GFSGBSN_250_spd_021.txt.gz
Wind_Speed
27 26 26 23 29 29 31 31 30 27 23 21 22 24 25 26 28 29 30 31 31 34 36 38 39 39 40 41 42 45 47 50 53 57 61 68 78 87 85 82 83 82 85 87 90 90 92
22 24 24 25 26 28 30 29 24 20 17 19 23 24 24 27 28 27 27 27 28 30 34 34 36 35 35 35 37 39 42 46 50 53 56 58 61 63 68 67 71 73 80 81 82 85 76
21 24 23 27 25 26 28 23 17 13 16 21 24 25 25 25 25 25 25 27 28 30 30 32 30 31 32 32 34 36 37 37 38 42 46 47 50 53 54 57 59 62 63 60 65 70 77
25 23 22 24 24 25 23 17 14 14 15 20 26 27 26 26 27 27 27 27 27 28 28 27 27 25 23 23 23 23 24 26 29 32 35 36 38 39 41 44 47 50 51 54 53 53 53
27 21 22 25 21 20 16 15 15 17 20 24 27 30 30 30 28 27 27 26 26 26 24 22 22 22 21 20 22 23 26 29 31 33 35 35 36 38 38 39 38 36 35 31 33 32 32
26 21 24 21 19 15 16 17 19 24 28 28 31 32 31 29 28 27 28 27 26 22 21 21 23 22 25 24 24 25 25 25 28 28 30 29 28 28 27 24 23 20 18 19 18 20 21
23 23 23 19 16 16 20 22 26 34 36 35 35 33 33 33 32 30 28 27 26 23 25 24 22 23 22 20 19 16 16 16 15 15 17 16 17 18 17 15 16 17 18 16 17 17 19
22 25 20 18 18 24 27 31 35 36 41 38 37 37 36 34 30 26 26 27 27 27 26 23 19 17 14 12 11 11 11 12 14 14 15 15 15 15 16 16 17 17 17 16 17 17 18
25 23 20 19 26 31 36 41 43 42 40 38 38 34 33 32 31 30 29 28 28 25 23 18 13 12 9 9 10 10 11 11 11 13 15 16 16 17 18 18 18 18 18 20 19 20 23
26 23 24 25 36 41 44 47 45 44 37 35 32 32 32 32 31 30 29 25 22 22 18 15 13 13 13 13 11 9 8 9 9 11 13 17 19 22 22 22 21 21 23 24 24 24 23
27 25 29 36 42 46 49 48 45 42 35 31 32 33 33 31 28 26 24 23 22 19 16 15 17 17 15 12 10 7 6 7 9 11 12 13 17 21 23 24 25 25 26 27 27 27 28
24 31 36 48 47 50 48 46 46 43 33 32 33 32 31 28 26 27 25 22 19 18 18 19 18 15 13 9 7 7 8 9 11 11 12 14 16 18 21 24 27 29 29 30 31 34 33
29 37 43 48 53 49 45 47 40 36 35 34 32 30 29 28 30 28 25 22 21 22 20 16 14 13 11 9 8 7 8 10 11 11 11 11 12 13 14 18 23 26 30 32 33 31 32
39 40 52 52 51 45 43 48 43 41 35 33 33 32 32 31 30 27 24 22 21 19 15 15 16 15 14 12 7 6 4 3 4 5 3 5 8 10 11 12 15 19 21 27 32 34 34
45 46 56 52 52 45 44 45 43 41 35 36 35 33 31 30 28 27 25 23 21 18 18 18 17 14 11 9 6 4 2 2 2 4 5 6 6 8 9 9 11 15 16 17 20 26 32
51 50 56 57 54 45 46 46 42 40 38 39 37 34 30 29 31 29 26 23 20 19 18 17 14 10 10 6 2 2 2 1 1 2 3 4 7 10 12 12 11 12 12 15 18 21 25
54 55 58 57 54 47 48 46 43 41 38 37 36 33 32 30 30 29 27 23 19 18 16 13 11 11 10 7 5 5 4 3 3 4 6 8 10 13 15 15 16 17 18 20 20 22 23
55 58 61 60 53 50 47 45 44 42 40 38 35 33 32 32 31 30 26 23 17 15 14 13 13 13 10 8 7 6 7 7 7 7 9 11 13 15 18 20 20 20 22 23 26 29 32
53 60 61 62 56 55 45 46 47 44 40 37 36 35 31 31 30 29 26 24 17 15 15 14 15 14 11 10 10 9 9 9 11 13 14 16 18 20 22 24 26 26 25 26 27 29 32
57 61 60 65 60 56 50 48 48 43 42 38 39 35 33 31 30 29 26 23 18 17 17 17 17 16 15 14 13 13 13 15 17 18 19 21 24 25 27 28 27 27 29 32 33 35 34
58 59 62 66 63 56 52 51 48 43 42 40 41 37 34 33 32 30 26 23 21 20 20 20 20 19 19 19 17 17 19 20 21 21 23 24 26 29 31 34 37 34 33 35 36 38 37
58 61 63 64 63 61 55 52 48 44 41 40 43 40 35 35 33 31 28 26 25 25 24 24 23 23 22 20 20 20 22 23 24 26 26 27 30 34 39 39 42 43 41 39 39 39 40
59 62 63 62 67 61 58 55 50 43 41 42 42 40 38 36 34 32 29 27 26 27 27 27 26 25 24 24 24 25 26 27 29 30 32 33 34 35 39 42 47 44 42 42 41 41 45
59 62 63 61 66 64 58 55 53 46 43 38 39 43 42 41 36 34 34 32 30 32 31 31 30 30 30 29 30 31 32 33 35 37 38 40 39 40 42 43 49 44 43 45 48 44 44
59 63 63 63 63 63 59 59 56 53 43 44 39 38 41 42 40 35 33 34 36 35 34 34 35 35 35 35 36 37 39 39 41 43 44 44 44 44 46 45 47 46 45 45 43 45 49
62 65 63 62 63 65 63 61 58 55 45 45 40 38 38 38 35 36 36 36 35 36 38 40 40 40 41 42 43 45 45 45 46 48 50 49 49 50 47 49 47 46 42 47 46 49 53
63 65 67 63 62 60 62 62 61 57 49 49 49 46 41 42 40 38 39 40 39 39 39 41 45 46 47 48 50 52 52 53 52 52 51 51 53 53 53 52 51 48 50 52 54 56 58
64 66 66 67 66 63 62 62 64 60 58 54 53 49 47 45 44 42 41 40 41 42 41 44 43 45 47 50 50 53 53 53 51 50 52 54 56 57 58 60 55 52 53 54 59 61 65
60 66 68 67 65 63 63 66 66 63 61 59 57 55 54 54 52 50 48 48 47 48 49 52 51 51 51 52 53 53 52 52 52 54 56 60 61 62 63 65 61 59 59 61 63 67 72

GFSGBSN_250_spd_024.txt.gz
Wind_Speed
44 34 30 28 26 27 28 26 29 30 30 29 25 22 23 24 24 25 24 27 29 30 31 32 34 37 38 41 42 42 46 47 49 51 55 60 67 76 77 77 83 82 81 80 83 84 84
40 30 26 26 28 27 27 26 30 30 28 23 21 20 22 23 24 24 25 26 27 28 29 30 33 34 34 34 36 37 40 42 45 49 51 54 57 62 64 65 69 73 74 76 79 81 84
38 32 27 25 25 25 25 28 29 27 23 18 18 21 24 26 25 24 25 25 25 26 26 29 30 30 31 31 31 33 36 39 41 43 46 49 51 54 57 59 61 62 63 63 67 71 75
35 33 26 27 26 22 24 30 26 20 16 14 20 24 24 26 25 24 23 23 23 23 24 25 27 26 26 26 27 27 30 33 37 40 43 46 49 50 50 51 53 54 55 55 59 61 63
37 31 28 27 21 22 25 27 20 15 12 15 21 23 25 26 24 23 21 21 22 22 22 25 24 21 19 20 22 24 27 30 32 35 35 35 34 35 36 38 39 40 44 47 51 54 56
34 33 28 22 19 23 26 22 17 13 16 19 25 28 24 24 24 23 23 23 24 23 22 21 20 20 23 22 22 23 26 27 28 27 27 30 31 31 31 35 37 39 42 45 47 44 46
34 31 29 21 20 25 24 18 15 17 21 26 30 29 28 26 25 25 27 28 27 26 23 20 23 25 20 21 20 21 21 22 25 26 25 27 28 29 32 32 31 30 33 33 34 34 32
37 33 27 20 22 24 21 19 19 24 27 28 31 32 30 28 27 28 28 26 22 23 23 24 23 23 22 21 20 18 18 17 17 18 18 19 20 21 22 22 23 22 23 23 25 26 28
41 36 25 20 23 21 23 23 29 32 35 33 34 34 32 34 33 30 30 29 25 25 26 25 22 19 17 15 14 14 14 13 12 13 15 16 17 18 19 21 21 22 23 23 25 26 27
44 33 24 22 21 24 26 31 38 40 39 39 38 37 38 38 29 27 27 28 27 27 25 20 17 16 13 12 12 12 10 9 9 10 12 13 15 17 19 20 21 21 22 23 26 27 26
41 30 23 22 25 33 35 40 36 42 41 40 41 39 34 31 29 31 29 28 27 20 17 16 14 15 14 13 11 8 7 9 10 12 12 11 13 15 18 21 22 23 24 27 27 28 28
38 27 25 24 32 39 41 44 43 41 41 41 41 36 36 35 33 28 26 23 20 19 18 17 16 15 13 11 9 9 7 7 8 8 10 11 13 15 17 20 23 25 27 28 29 30 32
34 29 29 29 42 46 48 47 45 42 40 38 37 35 34 31 27 26 24 22 19 19 17 18 17 15 14 12 11 7 6 6 5 6 8 8 7 8 9 12 15 21 24 24 28 30 35
34 31 32 42 50 50 51 50 46 42 36 35 35 35 31 29 27 26 24 22 20 19 18 17 17 17 13 9 7 4 4 5 3 3 2 0 2 4 5 6 7 8 11 15 19 23 26
33 36 41 51 51 54 52 48 47 44 32 34 34 32 31 28 27 28 24 21 21 21 18 16 15 14 12 11 9 6 5 3 2 3 5 5 5 7 9 10 11 12 12 13 14 15 19
36 39 48 58 55 55 51 46 48 42 35 34 31 32 31 31 31 27 24 23 22 19 17 16 16 15 12 11 7 7 7 5 3 1 1 3 5 7 9 12 14 16 18 19 22 23 26
41 44 52 59 58 57 47 47 47 40 37 34 36 35 32 34 29 27 26 23 22 19 18 18 16 13 12 11 8 7 7 5 2 2 3 5 8 10 12 14 17 19 21 23 24 25 27
47 46 53 60 60 56 45 46 48 41 40 37 37 35 35 32 30 26 25 24 21 20 22 20 17 14 13 12 11 9 9 8 6 6 7 9 11 13 15 18 19 20 21 23 28 31 31
54 48 59 62 60 56 46 47 46 42 41 42 40 37 35 31 29 29 27 26 23 22 23 19 15 14 14 14 13 10 9 9 9 10 12 14 16 18 20 23 27 29 30 32 34 36 39
58 51 59 60 59 56 49 48 45 44 42 40 40 36 33 30 29 30 31 29 25 21 20 17 14 15 16 16 14 13 12 11 11 13 15 18 20 22 22 23 27 30 32 34 34 37 42
58 56 54 61 62 55 52 49 48 45 44 43 39 37 34 31 32 34 32 29 28 22 19 18 17 18 19 19 17 16 17 16 16 17 18 19 22 24 26 29 31 36 36 38 39 41 38
56 61 55 58 62 59 50 52 48 47 45 40 36 35 35 33 32 33 33 29 28 25 22 20 20 20 21 21 20 20 20 20 18 20 21 23 26 29 32 34 36 38 41 42 43 44 44
58 61 57 60 62 59 53 50 50 47 44 40 39 37 36 34 33 33 32 30 28 27 24 23 23 22 24 24 24 24 24 24 25 25 27 29 32 35 39 40 41 41 44 46 47 47 45
60 61 61 61 64 61 56 53 48 48 48 45 39 39 37 37 36 35 33 32 29 28 27 24 25 27 26 28 28 28 29 30 31 32 34 36 37 40 43 45 48 43 46 45 48 49 48
62 60 60 62 59 66 59 56 52 49 50 47 41 37 41 39 37 35 34 34 32 29 28 30 29 30 31 32 33 33 34 35 38 41 42 43 46 47 48 48 48 48 46 52 51 56 51
60 59 63 61 62 62 63 59 55 53 49 47 42 38 38 39 41 40 35 35 31 31 31 31 34 35 35 36 37 39 40 42 44 47 50 50 50 51 51 50 50 53 50 52 55 57 55
58 61 61 64 63 61 64 62 57 53 52 50 44 43 38 34 37 37 36 38 37 35 30 33 32 33 34 36 38 42 42 46 46 47 51 51 51 53 52 53 55 56 58 61 62 61 59
58 58 62 63 64 63 62 62 62 58 55 55 53 45 40 41 35 32 34 34 35 31 34 35 37 38 38 37 38 41 43 47 50 53 57 59 59 58 58 60 59 60 63 64 67 65 63
58 56 61 63 63 61 61 61 63 62 58 55 52 54 45 43 42 39 38 38 37 36 38 41 39 45 44 46 49 53 55 57 59 61 64 66 66 63 62 66 67 65 66 68 67 65 64

GFSGBSN_250_spd_027.txt.gz
Wind_Speed
72 69 60 56 47 38 33 33 25 27 27 28 27 30 29 26 25 23 22 23 25 26 26 26 27 28 29 32 33 35 38 40 43 46 51 63 73 75 69 72 76 71 75 80 79 76 78
69 66 56 52 44 35 34 30 24 28 27 27 28 29 26 24 22 20 20 21 21 21 23 24 25 28 28 28 30 31 32 33 37 41 46 47 60 79 78 72 73 73 76 81 81 83 83
67 62 50 46 40 35 28 27 25 26 26 28 28 24 21 22 19 19 20 19 19 20 20 21 24 27 28 29 30 30 31 32 35 38 44 48 48 52 62 75 81 79 78 76 78 85 86
64 55 46 40 40 30 25 24 25 25 26 26 23 22 21 20 19 20 19 19 18 18 20 22 22 22 23 24 25 28 29 29 32 34 37 42 45 48 53 57 64 73 79 79 83 78 78
55 49 42 39 38 34 23 24 24 25 24 21 19 18 20 21 20 20 19 20 19 19 20 21 22 23 23 24 25 25 27 29 30 32 35 38 40 44 46 48 51 52 54 59 60 63 62
50 44 38 37 37 30 23 21 23 26 19 19 17 19 20 22 22 21 21 21 22 22 21 21 20 21 21 21 21 22 22 23 24 26 29 31 34 36 38 42 43 45 46 47 50 52 51
46 38 34 35 33 25 23 20 26 22 17 17 19 22 22 22 23 22 22 24 24 24 23 22 16 21 18 18 18 19 20 21 23 25 29 31 32 32 32 33 34 35 35 32 39 38 41
42 36 33 32 30 24 22 21 27 17 19 18 24 24 23 24 24 23 23 24 23 25 27 29 23 23 20 18 16 17 17 17 17 18 19 22 23 22 24 27 28 28 27 29 32 32 33
39 34 33 33 30 24 22 24 22 20 23 23 26 27 27 29 32 33 31 28 26 27 26 27 22 20 21 19 18 17 16 16 16 17 18 19 19 20 20 20 19 22 25 24 28 28 29
39 33 34 38 31 24 23 24 21 26 28 26 30 31 31 29 29 33 32 31 28 23 24 24 22 24 22 19 17 16 14 14 16 14 13 13 13 13 15 15 15 23 17 22 23 27 26
40 37 44 39 29 24 24 24 29 29 31 34 34 33 31 32 32 32 30 31 28 25 25 23 20 22 19 17 15 16 11 9 8 8 9 10 12 14 15 16 17 20 20 21 24 26 26
42 44 45 37 27 23 26 31 34 36 39 40 39 38 35 34 31 32 31 29 30 25 25 21 21 19 18 17 14 12 11 8 6 8 10 11 12 12 13 13 15 17 20 23 23 25 29
42 47 46 37 23 27 30 35 39 46 45 44 39 37 41 30 32 32 31 30 28 26 22 20 19 19 17 14 12 9 7 6 6 8 8 8 8 7 6 7 9 11 13 16 18 21 24
46 51 47 36 24 35 34 39 42 47 48 44 38 41 38 32 33 32 30 26 26 23 21 19 18 16 14 13 11 8 6 4 5 4 3 4 5 5 5 5 5 5 6 7 9 14 20
52 55 47 33 31 43 39 44 49 49 46 41 45 35 36 33 31 29 27 27 24 22 20 18 17 15 15 11 10 6 4 5 4 5 8 9 7 5 4 5 7 9 11 13 16 19 22
58 54 44 33 39 47 47 52 49 47 43 43 40 36 34 32 29 28 29 26 23 21 20 18 18 17 12 10 8 7 7 7 7 7 7 4 2 2 4 7 10 13 15 17 19 23 28
61 53 40 38 47 51 56 53 48 46 43 39 37 36 31 27 28 29 29 25 23 22 21 18 16 14 13 13 10 9 9 9 8 6 4 3 3 4 7 10 13 14 17 19 20 22 26
59 51 42 47 54 55 59 51 50 45 40 41 37 34 31 30 30 32 28 25 23 22 20 17 17 17 15 14 11 10 10 10 8 8 7 8 9 10 12 14 15 16 18 22 27 28 30
57 48 44 57 58 58 59 52 43 48 37 36 34 34 32 29 32 30 28 26 24 21 20 18 19 17 15 13 12 12 11 12 13 12 12 11 11 14 16 19 20 20 24 27 31 37 38
55 46 50 61 60 60 56 48 46 48 40 34 33 35 32 32 34 28 26 26 25 22 20 20 19 18 14 13 14 14 14 13 13 13 14 15 15 15 15 18 21 25 28 31 32 34 39
54 47 54 63 61 62 53 47 47 49 37 38 39 38 36 37 34 29 27 27 27 24 21 22 21 19 16 14 15 16 16 16 15 16 16 16 17 18 20 23 26 30 33 36 38 40 41
54 49 55 64 62 64 53 47 50 48 39 44 43 39 35 37 32 26 28 29 29 26 22 22 20 17 17 19 19 19 18 18 18 19 19 20 23 25 27 31 34 37 38 41 43 44 44
55 51 54 67 62 63 52 49 42 44 44 44 41 39 39 35 31 28 30 30 30 28 26 21 18 20 21 17 18 19 20 20 20 21 24 25 28 31 35 38 41 44 47 48 49 48 48
58 54 54 65 65 59 55 50 43 44 45 44 46 41 38 32 32 32 30 32 33 28 25 25 25 22 20 20 20 21 22 22 25 26 30 31 33 36 41 44 45 45 47 51 51 52 55
57 57 56 64 66 62 58 53 49 44 48 45 41 40 37 34 31 30 31 33 33 29 27 27 25 23 23 24 25 27 27 28 29 31 32 36 38 40 42 43 48 50 50 54 56 58 62
58 59 59 59 62 64 60 53 49 49 49 47 45 44 36 32 30 32 31 32 33 30 30 28 26 26 29 28 28 28 28 29 33 35 35 34 38 43 47 50 53 57 58 59 60 62 64
59 59 58 58 56 57 63 59 53 50 49 47 45 44 40 34 30 31 35 35 34 32 31 31 29 23 26 26 27 29 30 28 28 35 40 43 48 51 53 56 58 60 56 58 60 61 64
57 59 58 57 58 55 63 61 56 53 49 50 47 44 42 41 33 31 35 37 36 33 34 32 30 27 28 28 33 33 34 39 42 45 50 53 57 59 60 61 59 59 60 61 63 63 65
57 58 59 56 58 59 58 63 60 56 52 48 52 49 47 48 40 34 30 30 32 32 33 31 29 34 32 36 36 37 42 45 49 52 56 58 63 65 68 69 65 64 62 64 66 67 66

GFSGBSN_250_spd_030.txt.gz
Wind_Speed
85 60 70 75 68 71 69 58 46 42 36 28 34 33 32 31 29 30 26 25 26 27 25 26 27 29 33 33 30 33 37 39 40 43 42 44 52 67 70 61 59 64 66 67 66 69 72
91 70 66 72 65 67 60 48 38 35 30 34 33 30 31 29 29 26 23 20 19 18 19 23 27 29 29 28 25 27 31 34 40 40 44 48 57 66 71 67 69 70 69 70 69 70 75
84 73 57 68 64 65 50 43 35 33 31 34 32 31 28 29 25 20 18 17 16 16 19 23 28 27 26 28 28 28 31 32 33 41 46 46 50 63 70 72 75 75 68 68 68 72 72
74 68 60 65 63 62 46 39 35 35 33 31 32 26 26 23 18 17 18 17 17 17 19 22 24 26 27 27 28 29 31 32 33 33 35 40 44 48 64 68 69 71 77 71 65 71 74
76 60 57 62 60 55 42 35 30 31 31 31 29 22 22 18 18 19 18 18 18 18 19 21 24 26 27 28 27 27 27 28 30 31 33 33 34 36 40 53 65 69 69 67 67 68 69
70 59 56 57 57 48 39 30 25 30 30 27 24 20 16 17 18 19 20 20 20 21 23 23 24 25 25 25 24 21 23 24 25 27 26 27 30 35 37 38 40 43 46 52 62 64 62
67 59 54 52 51 42 35 25 26 28 28 23 19 15 17 20 22 22 21 20 21 21 23 24 23 23 24 24 24 23 23 23 25 26 26 26 28 30 32 33 35 38 43 47 47 49 49
61 56 46 47 43 37 28 24 24 28 23 17 16 18 21 20 22 24 25 27 29 28 27 26 24 26 25 24 22 21 21 22 23 23 24 24 26 27 28 30 31 30 29 31 33 35 36
55 44 43 42 41 28 24 27 22 26 21 15 19 21 20 26 30 28 28 28 27 27 27 26 27 28 27 26 23 18 17 17 17 16 14 14 15 16 17 19 23 25 27 31 32 30 30
61 42 35 40 37 25 29 28 25 22 19 19 24 25 27 28 28 29 30 29 28 28 26 24 25 25 22 19 17 17 16 13 12 12 14 16 17 19 18 18 20 21 21 23 25 26 25
51 39 33 40 31 30 33 28 26 20 21 24 29 29 28 27 29 32 31 30 30 29 28 25 25 24 23 21 17 15 15 14 16 15 16 17 17 17 17 17 18 19 20 21 23 26 30
46 33 35 38 30 36 34 29 24 23 25 30 33 33 33 34 34 33 33 31 30 26 24 24 24 24 21 18 19 18 17 16 15 12 12 10 10 10 11 13 14 16 19 20 22 26 27
31 34 37 35 30 38 34 29 23 28 33 33 37 39 38 34 33 34 32 31 30 28 27 25 25 23 21 20 18 17 15 12 10 10 9 8 10 10 9 9 9 11 10 9 9 9 8
34 38 37 35 37 38 35 28 26 35 38 42 42 41 40 35 36 38 34 32 31 29 27 26 25 22 22 21 19 15 12 9 8 7 7 7 8 8 8 6 5 2 1 4 7 10 10
42 42 40 41 45 41 34 28 36 40 45 46 44 41 38 34 35 33 31 32 30 30 26 25 24 23 21 17 14 12 9 8 9 9 11 14 13 10 8 4 1 3 7 9 12 14 13
47 45 45 46 48 44 34 33 42 47 50 49 44 42 36 36 33 32 32 33 30 28 25 25 22 20 17 15 14 10 9 9 11 14 15 12 8 5 1 1 4 7 10 12 15 18 19
51 48 49 53 51 43 35 37 46 54 52 48 40 38 42 31 34 34 32 32 28 25 24 22 19 18 18 15 12 9 10 12 12 12 11 8 6 4 4 6 10 12 15 17 18 20 25
51 53 55 56 52 42 41 41 52 55 53 44 41 43 38 37 34 32 33 30 26 24 22 20 19 19 17 14 11 11 13 13 12 11 10 9 9 11 11 12 14 15 17 21 25 25 28
55 57 60 56 53 46 47 48 52 55 53 44 45 38 38 36 31 32 32 29 25 24 22 20 19 19 17 14 15 15 14 13 12 12 11 12 13 14 16 16 15 17 20 24 28 33 35
58 63 62 56 53 49 52 54 58 54 50 46 42 39 35 31 31 33 32 29 26 24 23 20 19 18 16 16 17 15 14 14 14 14 14 15 16 17 17 18 18 20 23 27 30 35 39
64 67 61 58 52 55 57 62 55 53 49 45 41 38 38 34 33 35 34 31 27 24 22 19 19 18 18 18 19 17 15 15 15 15 16 17 19 18 18 20 23 27 31 34 37 40 42
68 68 62 56 53 61 66 63 53 51 47 46 43 40 37 37 32 34 30 28 26 25 22 19 18 21 23 22 21 17 15 15 15 17 18 20 19 19 22 24 29 33 36 38 40 46 48
69 65 60 55 58 66 68 60 50 53 46 42 38 39 37 33 32 34 29 26 25 24 23 21 23 24 22 20 18 17 17 16 18 19 20 21 22 24 26 28 33 36 37 41 45 50 55
67 62 58 57 62 68 66 62 50 52 49 40 40 41 39 36 32 35 30 23 23 26 27 26 25 20 17 19 18 15 16 17 19 22 23 25 26 28 30 31 32 37 43 45 49 52 55
66 60 58 61 63 66 65 56 51 52 47 43 44 46 41 37 34 33 25 27 28 27 29 27 26 23 23 21 20 19 20 23 25 26 28 27 27 28 29 34 38 42 46 50 54 59 58
63 57 56 63 64 62 64 53 52 46 53 42 42 45 39 35 32 30 28 30 30 29 30 29 25 26 26 24 22 22 23 22 23 26 27 26 28 33 38 41 45 48 53 56 59 63 65
60 58 57 62 65 65 63 53 51 48 46 42 49 45 40 37 36 31 27 31 32 30 30 30 31 29 27 24 22 21 21 20 23 27 32 34 38 43 47 49 51 53 56 60 63 63 67
58 57 59 54 68 62 64 58 56 47 43 44 48 44 41 38 36 30 25 27 31 33 32 32 32 32 30 26 28 26 27 29 32 33 36 39 44 50 53 55 55 61 63 66 67 69 74
57 55 60 53 61 65 63 59 53 52 47 47 49 45 41 40 38 35 34 28 29 33 36 35 35 33 31 34 30 31 32 33 34 35 42 47 51 53 58 62 64 66 66 68 71 73 76

GFSGBSN_250_spd_033.txt.gz
Wind_Speed
76 79 80 79 81 80 74 72 76 72 70 64 53 45 34 34 35 35 35 32 30 30 30 32 32 34 36 37 40 38 34 35 34 36 39 39 40 41 47 48 51 49 48 54 52 52 52
83 81 80 79 79 75 72 72 73 70 65 61 52 41 34 36 36 34 32 30 28 27 24 27 29 31 35 36 36 33 30 30 30 33 37 38 39 43 53 60 63 61 57 50 58 57 58
87 89 83 81 80 73 69 72 75 68 62 56 47 35 34 37 35 33 31 27 24 19 22 27 29 31 31 31 31 30 28 31 34 35 37 40 41 41 49 57 69 63 59 65 54 58 58
94 91 88 88 79 67 66 72 68 66 57 50 40 32 35 35 32 31 23 21 19 20 22 25 28 29 27 29 31 30 30 34 36 37 37 37 39 41 42 52 64 66 63 64 59 61 64
94 95 94 91 78 60 63 71 64 62 51 44 36 32 35 31 31 22 18 19 21 20 20 21 26 29 30 32 35 32 29 31 32 33 33 37 36 35 38 43 51 58 69 71 68 66 65
95 98 92 84 69 56 63 65 58 56 46 41 31 33 29 30 23 18 19 20 21 21 21 22 26 28 29 30 29 25 25 26 27 26 25 24 25 27 30 33 39 48 55 63 65 67 66
99 93 87 78 67 55 58 57 55 51 42 32 28 28 28 21 15 18 19 21 23 22 23 25 27 27 27 24 24 26 25 24 23 23 27 30 29 27 27 30 33 34 38 47 61 60 59
91 91 79 72 66 54 53 51 52 43 36 26 26 25 20 15 18 20 24 27 26 27 27 27 28 28 27 28 27 27 26 26 27 27 26 26 27 26 26 30 33 34 35 34 34 35 38
83 82 74 70 55 54 47 47 46 38 31 25 22 20 15 19 21 24 26 26 26 27 28 26 25 26 28 28 27 26 25 25 24 23 22 24 23 23 23 25 25 26 26 26 25 25 28
79 77 77 77 53 49 37 44 39 35 28 24 19 17 20 23 24 25 25 25 27 26 26 27 28 28 28 25 24 23 23 21 19 20 20 19 16 17 18 20 21 23 24 26 25 25 26
75 74 76 67 52 42 34 44 36 35 27 22 18 21 24 26 26 27 28 28 28 28 27 28 29 29 28 24 22 22 18 16 16 14 15 16 17 20 21 22 22 24 23 24 25 26 23
70 73 70 65 47 37 32 44 36 37 26 20 21 27 26 26 28 31 32 31 31 30 23 22 25 24 24 21 15 16 18 17 16 17 17 17 18 19 19 19 20 21 21 21 21 20 17
70 70 73 54 43 37 35 42 42 37 25 21 28 30 29 30 33 33 31 32 31 29 26 25 24 21 20 19 20 18 16 17 16 16 16 17 17 17 16 14 13 12 11 9 5 3 3
73 70 63 48 38 36 44 42 45 33 25 26 33 35 35 37 36 33 31 32 30 28 25 22 23 22 21 20 20 19 17 16 15 13 12 13 13 11 10 9 7 6 5 3 1 4 7
73 70 55 43 45 42 47 45 45 31 29 35 37 40 41 40 36 32 31 30 27 27 24 26 26 23 22 22 19 18 15 13 13 13 12 10 10 12 10 8 7 5 4 3 5 8 10
54 52 50 52 46 51 51 49 42 32 33 42 43 47 44 40 32 35 32 29 30 30 28 27 24 26 25 22 21 17 14 12 12 12 14 15 14 12 10 7 4 4 5 9 11 13 15
47 47 48 54 53 54 56 50 38 36 40 45 47 47 43 35 34 34 32 29 30 28 26 26 27 26 24 22 18 14 11 11 13 15 17 14 12 10 6 5 7 9 12 14 16 18 18
44 46 44 57 58 57 57 48 37 40 45 50 53 48 41 33 34 34 32 31 28 28 28 29 27 25 22 19 16 12 12 13 14 16 14 13 12 9 9 11 13 14 15 17 19 21 25
37 50 60 62 58 62 56 45 40 44 50 55 51 48 42 38 34 33 33 33 32 30 29 27 24 22 21 18 15 12 13 15 15 14 14 12 11 12 13 16 17 18 17 19 22 27 29
47 59 64 59 62 62 56 43 47 48 54 59 54 46 40 41 34 36 36 36 33 30 27 24 23 22 21 17 15 15 16 15 16 15 14 13 15 16 17 18 18 18 21 23 27 30 32
49 61 58 64 67 63 53 44 49 52 57 57 47 42 44 35 33 35 36 35 32 30 27 24 23 22 22 20 18 18 17 17 17 16 15 16 18 19 21 21 21 22 24 27 30 31 34
58 59 62 65 69 61 52 49 50 56 58 52 43 45 41 40 39 37 38 35 31 29 27 25 23 23 23 20 18 18 17 15 16 16 17 18 20 22 23 23 25 27 29 29 31 35 38
58 61 65 72 67 59 51 50 53 58 61 53 45 48 41 38 35 36 37 35 32 30 28 26 24 23 22 18 20 19 19 22 20 20 19 20 21 23 26 25 27 31 31 31 37 42 44
62 65 70 72 63 57 53 55 54 56 62 49 48 45 39 37 35 39 38 35 32 31 28 27 27 24 19 19 22 22 22 20 21 21 20 22 24 26 27 28 28 30 35 38 43 49 51
65 71 74 66 60 53 55 58 59 62 57 48 48 45 41 40 42 37 36 33 31 32 30 29 28 23 19 21 22 22 21 23 23 25 26 27 27 26 27 29 28 38 42 45 49 52 56
70 74 72 65 57 54 60 61 61 59 54 51 47 45 43 42 38 35 37 33 31 29 29 31 30 28 26 25 24 24 24 26 25 28 27 24 25 26 30 33 37 43 48 51 53 56 62
71 70 67 62 54 60 61 63 59 56 57 52 49 46 44 39 38 35 35 37 33 29 28 29 32 32 29 28 27 29 27 26 28 28 27 26 29 32 35 36 39 49 53 55 58 62 64
68 64 62 56 57 64 66 63 57 54 56 54 45 40 43 40 40 37 33 36 34 30 28 30 31 33 33 32 31 32 29 30 31 32 34 35 35 37 39 43 45 54 55 58 64 65 66
62 59 57 55 58 64 66 65 59 48 52 56 50 42 41 44 41 39 36 35 33 28 27 29 33 34 34 36 35 35 35 34 35 35 38 39 42 43 46 50 54 57 60 65 67 68 69

GFSGBSN_250_spd_036.txt.gz
Wind_Speed
69 62 63 68 70 70 72 76 79 76 78 84 81 79 74 68 62 50 40 36 38 35 35 33 35 34 36 34 33 32 30 32 32 27 21 27 31 34 31 33 36 40 43 46 50 52 53
76 65 66 67 68 74 76 78 78 76 82 80 79 80 70 68 57 46 38 37 36 35 36 32 31 32 32 28 30 32 31 31 32 30 25 29 32 32 31 37 42 45 46 47 40 39 44
72 70 70 69 69 72 77 79 80 74 80 81 79 78 67 67 52 44 35 35 36 37 33 30 29 28 27 26 29 30 29 33 30 29 28 31 37 38 37 38 44 45 44 48 42 39 42
74 76 73 77 75 77 76 80 82 76 78 80 76 76 66 65 51 40 33 35 36 31 29 27 24 25 24 28 29 29 32 31 29 30 29 28 34 37 37 35 38 43 46 48 50 47 50
81 83 82 83 83 82 84 84 82 75 77 76 77 72 65 56 44 32 32 35 30 28 24 20 20 20 25 25 28 31 34 33 32 31 30 28 28 33 33 33 34 34 35 39 37 52 55
91 88 86 87 87 87 83 86 78 68 77 74 71 65 63 47 35 33 32 30 27 22 17 16 17 20 25 26 29 32 32 29 27 25 27 28 28 28 30 34 37 37 37 39 40 42 42
95 93 90 91 87 84 82 83 73 66 74 70 67 59 55 37 33 32 26 23 19 16 17 17 20 24 23 23 24 25 22 19 18 21 26 26 26 27 31 33 34 34 34 39 42 45 49
94 91 89 87 84 84 83 80 72 68 71 67 64 51 45 32 30 22 17 16 17 19 20 20 23 26 26 27 29 27 23 20 21 22 23 21 23 25 25 26 27 28 28 28 32 37 42
95 89 91 86 84 80 80 82 71 69 68 65 53 44 34 32 23 16 13 18 21 21 21 21 23 24 26 25 25 25 24 24 24 21 20 22 23 24 24 24 25 24 23 24 26 26 27
90 85 84 78 75 76 74 78 72 67 62 59 42 39 30 27 18 17 18 21 21 22 22 22 22 23 25 26 25 23 22 22 22 21 21 20 21 22 23 22 21 20 20 20 21 22 24
89 79 79 70 68 70 70 71 66 56 54 50 39 34 28 22 19 20 20 22 22 21 21 22 22 22 24 23 21 22 19 18 18 17 16 15 17 18 18 18 18 20 21 21 21 21 21
94 84 74 68 71 64 66 68 62 49 49 42 37 31 27 23 23 22 22 23 23 23 24 24 24 24 23 22 21 21 19 18 18 18 18 16 16 17 16 17 17 17 17 17 17 18 20
95 91 78 71 67 68 65 66 55 43 45 38 37 31 27 26 26 25 24 25 27 27 26 26 26 24 22 23 20 19 19 17 17 16 15 16 17 17 17 17 18 18 18 16 14 13 12
90 89 86 69 71 66 67 60 51 45 45 40 37 31 29 30 29 28 30 30 30 27 24 24 24 23 24 23 22 19 16 16 15 15 16 15 16 16 17 17 16 13 11 11 11 9 9
83 81 80 65 64 70 66 60 50 49 50 41 37 30 34 32 31 33 34 32 30 28 25 27 23 23 22 20 19 18 16 16 15 15 16 15 17 18 15 14 11 11 10 8 6 5 6
79 74 70 62 68 69 64 62 54 53 47 43 39 31 38 35 37 35 33 30 31 29 28 26 26 25 22 21 19 18 18 16 15 14 15 15 15 13 12 11 11 9 7 6 6 9 11
74 74 63 62 66 64 58 58 58 58 47 45 39 38 40 40 41 32 32 31 29 28 27 26 26 23 23 21 21 19 15 14 14 14 14 13 12 12 10 10 8 7 6 9 11 13 15
66 68 65 57 58 53 57 59 62 49 45 46 38 45 44 44 41 34 34 30 28 30 27 25 24 24 23 23 20 16 14 14 14 14 16 15 14 11 9 8 7 9 12 15 16 17 19
67 69 62 54 55 61 59 62 59 49 51 47 44 50 50 47 40 37 35 31 28 28 26 26 26 25 25 22 20 18 15 15 16 16 17 14 13 11 9 9 11 14 17 20 21 21 22
59 52 40 50 57 62 65 64 54 52 54 48 53 53 52 51 40 40 36 31 32 29 29 29 29 28 26 23 22 19 16 16 16 17 16 14 12 10 11 13 16 18 20 21 23 24 28
60 55 52 53 60 66 67 55 56 56 53 51 53 54 50 41 37 37 35 34 34 32 32 31 30 28 27 25 22 19 16 15 15 15 14 13 13 13 15 16 18 21 24 25 27 29 31
60 48 51 57 58 64 57 58 58 57 52 55 54 56 50 43 43 38 35 36 35 34 33 32 29 28 26 25 21 17 16 16 15 14 16 17 18 18 19 20 22 25 27 28 30 31 31
51 51 54 59 61 54 58 61 60 54 57 59 56 58 53 44 41 37 38 40 38 37 35 32 28 26 25 23 21 18 17 17 17 21 22 20 20 21 24 23 24 30 30 31 30 31 36
50 52 59 62 57 56 62 63 59 57 61 61 60 55 51 43 42 42 42 39 40 38 34 31 28 25 23 22 21 20 22 23 25 23 23 24 23 25 28 28 25 33 35 31 31 38 43
57 55 59 62 58 64 65 63 57 59 60 64 61 54 48 47 47 43 37 40 40 37 35 32 28 26 23 23 23 24 25 27 26 27 28 28 28 29 29 31 28 35 36 36 38 42 49
59 62 58 58 66 68 66 60 61 60 61 63 57 51 50 47 46 42 39 40 40 38 34 30 29 28 25 25 26 27 27 27 27 30 31 31 32 31 33 31 29 36 40 40 41 44 53
59 57 55 64 68 67 65 61 60 62 57 63 54 52 52 48 43 38 38 41 41 38 34 31 31 29 28 29 28 27 27 28 30 32 34 32 33 34 34 32 34 41 43 44 46 51 57
52 55 63 69 67 66 61 58 61 60 57 64 52 50 51 45 42 39 39 40 41 37 31 29 30 32 31 32 33 33 33 33 35 35 36 35 34 38 41 42 40 45 47 50 53 59 63
58 64 69 68 67 64 55 59 60 60 58 63 53 53 51 46 42 42 42 41 40 37 32 32 32 31 32 34 35 36 36 37 37 37 40 39 41 43 48 49 48 47 50 54 62 66 68

GFSGBSN_250_spd_042.txt.gz
Wind_Speed
62 61 60 61 60 63 65 67 65 65 62 63 58 64 66 67 71 71 74 74 71 73 68 64 49 35 29 25 24 30 24 26 27 29 29 29 30 28 28 26 23 23 22 24 27 29 33
65 64 64 63 67 65 68 69 67 65 67 67 58 64 65 67 71 71 72 71 71 71 65 59 44 33 26 26 25 25 20 22 25 25 24 26 23 26 27 24 23 24 23 25 29 28 31
67 67 68 68 70 72 69 68 67 69 70 68 62 65 65 72 74 71 71 71 71 67 64 49 41 35 32 24 21 20 19 22 23 24 26 27 27 27 26 24 25 25 23 24 25 29 29
71 71 71 73 72 73 75 70 73 66 70 69 61 64 66 70 74 73 72 72 70 62 57 44 41 35 29 20 19 17 20 21 23 25 28 31 29 27 27 26 26 25 25 25 25 26 27
77 77 78 77 75 78 75 72 73 76 71 68 63 64 67 69 72 72 73 70 69 61 51 42 33 26 20 17 15 17 21 25 27 29 34 33 29 27 26 30 26 24 25 22 22 29 29
83 84 82 79 81 81 77 76 73 71 70 67 63 67 67 71 72 70 69 70 63 57 46 36 25 18 14 13 13 18 23 28 29 33 36 32 31 27 27 29 29 25 21 19 20 22 26
93 93 90 84 84 83 82 76 75 73 71 66 68 68 68 76 71 70 70 67 59 51 38 29 18 15 12 11 14 21 25 30 30 38 34 31 28 26 27 29 29 27 23 22 24 25 28
92 92 91 89 87 86 83 74 71 71 72 68 70 71 68 76 73 67 68 67 50 42 34 25 18 14 11 11 16 22 26 28 32 33 29 30 27 24 24 25 27 25 27 29 25 25 25
99 94 94 93 92 90 85 76 75 73 71 67 71 71 72 73 74 67 63 65 47 37 27 20 14 11 10 12 13 20 23 27 30 27 27 30 27 26 25 25 25 27 27 27 28 29 31
98 97 96 94 89 88 86 83 82 79 71 72 70 74 74 72 71 67 59 61 43 31 23 16 10 9 11 14 19 21 26 29 28 26 27 26 28 27 25 25 27 28 28 29 29 30 31
102 99 97 95 92 88 85 84 82 82 76 73 74 76 74 80 72 65 57 55 37 27 21 14 11 10 12 14 20 27 29 30 28 27 27 27 25 25 26 27 27 27 28 28 29 30 30
112 110 105 99 93 90 87 85 82 80 75 73 72 77 74 71 71 63 53 45 30 25 19 14 12 14 17 17 22 27 29 27 24 23 22 21 21 22 21 22 24 24 25 25 25 26 28
119 114 108 105 100 99 96 92 86 82 78 74 74 73 73 66 70 59 49 36 27 22 19 15 14 16 19 19 22 25 24 24 24 24 24 23 24 22 22 20 19 18 20 22 24 23 21
118 116 111 108 106 96 93 89 84 82 80 76 74 72 70 65 67 53 45 29 25 20 21 17 18 19 21 22 24 24 24 24 21 20 20 21 22 20 17 16 17 19 19 20 19 18 20
106 111 107 104 103 99 96 91 81 82 79 72 70 69 68 68 64 48 39 25 25 21 22 19 19 20 23 22 22 22 21 20 20 21 20 19 19 19 20 22 22 21 19 19 18 17 14
94 97 99 102 95 93 94 93 90 84 80 74 72 73 67 65 57 44 32 27 24 25 25 23 25 23 23 25 24 23 22 21 20 18 18 18 19 18 17 17 16 15 14 14 13 13 11
90 90 90 93 90 95 98 98 96 92 89 82 69 69 64 59 54 43 29 30 28 31 28 28 27 24 25 23 23 23 23 23 20 18 17 16 15 15 16 15 15 14 14 14 13 10 11
84 85 88 93 95 99 100 100 92 87 86 75 69 71 65 57 54 41 34 32 34 35 32 31 25 26 25 25 25 23 21 19 19 17 15 14 14 15 16 18 19 19 17 13 12 13 14
79 81 86 91 93 93 94 92 84 76 67 69 73 73 65 58 52 44 41 37 40 39 36 32 29 30 30 28 24 21 21 21 17 15 15 15 18 19 20 19 17 15 14 14 14 16 17
71 77 83 85 87 91 91 85 81 66 66 70 73 73 62 58 53 48 42 42 45 41 39 33 30 30 31 27 23 22 23 20 18 16 15 17 20 19 18 18 19 17 16 17 17 17 20
68 72 76 82 86 86 82 77 71 64 67 68 68 61 57 55 47 45 44 49 46 42 42 36 30 32 32 27 23 25 24 21 17 16 18 20 21 20 20 19 19 18 18 20 20 20 23
63 68 70 73 76 76 72 72 68 62 58 61 61 57 57 53 51 49 50 49 48 45 42 35 34 34 33 25 26 27 24 20 18 17 19 21 22 22 22 21 19 20 23 23 22 24 27
59 65 70 71 72 69 62 65 61 51 54 54 54 57 54 53 47 51 55 51 51 46 40 35 34 35 31 28 30 28 25 22 20 21 22 24 25 24 23 21 20 26 27 25 26 30 31
59 64 68 67 65 65 67 61 49 55 60 59 57 54 52 49 53 58 57 57 52 46 41 39 37 35 31 31 31 29 27 24 22 24 25 26 25 25 26 25 25 32 31 30 31 34 35
52 55 60 65 65 62 56 52 59 62 63 62 57 56 53 55 58 66 60 60 51 47 42 40 37 34 32 32 32 31 28 26 26 27 29 29 28 28 29 31 31 34 36 36 34 39 41
50 53 57 60 60 56 53 57 58 60 60 59 59 57 56 60 62 68 59 59 51 46 42 40 37 36 34 34 34 32 31 30 30 31 32 32 31 32 34 34 34 39 40 39 41 42 47
53 55 57 57 55 52 54 57 59 60 61 60 58 58 61 60 68 68 60 55 52 47 43 41 39 37 36 36 35 33 33 32 33 33 32 32 34 36 37 37 39 40 41 43 45 48 50
56 57 58 59 58 58 57 59 60 61 61 58 59 60 58 62 68 65 61 55 51 47 45 43 41 39 39 37 35 35 34 34 35 35 34 34 35 36 37 39 39 41 43 46 50 52 54
54 55 56 57 57 58 60 62 61 60 59 62 63 61 60 68 66 62 59 56 51 48 45 42 41 37 38 38 38 36 36 36 36 36 35 36 36 38 40 41 42 44 47 50 51 54 56

GFSGBSN_250_spd_045.txt.gz
Wind_Speed
57 56 55 54 57 55 57 57 58 56 59 60 62 66 63 63 66 69 65 64 67 73 76 74 68 66 52 36 28 25 26 29 29 31 27 24 27 31 29 28 29 29 30 26 26 29 30
60 57 57 59 59 60 60 60 59 58 60 62 64 69 65 67 66 68 64 63 68 73 77 74 68 60 48 38 29 26 26 27 25 25 26 25 25 24 27 28 31 31 26 27 26 30 27
63 62 60 62 63 64 61 62 61 62 61 63 67 69 68 64 68 68 65 63 67 76 75 71 67 54 43 34 27 24 24 22 20 21 25 25 27 30 33 32 29 27 28 28 29 29 25
68 68 68 66 64 65 63 64 64 64 64 65 69 69 69 68 69 66 65 65 65 73 74 70 62 49 37 30 26 21 18 16 18 20 25 29 31 36 32 32 31 32 29 30 29 29 30
75 74 73 71 70 69 67 64 66 67 67 67 71 72 70 69 69 68 68 65 66 72 75 61 57 46 34 26 22 16 13 16 20 25 28 30 34 36 34 32 32 31 30 28 23 20 20
79 78 76 76 73 71 72 70 67 71 71 70 73 71 69 66 66 67 70 67 66 71 68 60 51 41 29 23 17 13 14 19 25 29 29 36 35 33 33 33 33 33 31 25 20 19 21
80 82 80 78 76 74 77 74 73 75 75 71 73 71 74 69 74 68 70 66 66 73 70 56 46 35 27 21 15 12 16 25 28 30 33 38 34 35 33 35 31 29 27 22 22 24 25
84 83 85 82 80 80 81 81 76 74 74 77 75 74 74 70 70 68 70 65 67 71 72 51 42 30 24 18 13 13 19 29 32 33 41 37 33 31 28 30 33 27 24 24 24 23 28
83 84 86 89 85 84 83 81 79 76 79 76 74 74 72 71 71 68 70 65 67 71 68 49 37 26 20 15 10 12 22 29 32 33 38 35 34 31 28 26 27 26 27 27 26 26 29
94 90 88 91 92 87 86 85 83 81 79 77 78 75 69 72 72 70 67 67 70 73 68 47 32 22 16 11 9 14 19 25 29 37 37 34 35 28 26 27 29 29 31 29 29 26 29
101 99 97 96 94 89 89 91 85 82 83 79 74 76 76 74 74 72 68 67 68 71 60 46 28 20 13 9 10 16 19 21 30 33 32 30 30 26 24 27 29 33 32 30 28 30 32
106 103 99 96 95 92 89 89 88 80 83 82 81 79 77 76 75 70 67 68 69 66 59 45 25 17 12 9 12 15 23 29 28 30 28 32 31 27 26 27 27 28 29 30 32 34 34
113 108 104 103 101 102 92 87 92 88 86 87 85 81 79 78 77 74 66 65 66 63 54 40 24 16 13 14 14 16 25 29 29 28 28 28 27 28 25 26 30 30 30 31 32 31 29
118 116 116 114 111 107 100 95 94 94 92 87 85 82 82 79 77 77 69 66 64 61 48 35 23 17 15 17 16 17 20 23 24 25 26 26 26 27 27 28 29 30 28 25 23 23 22
130 127 120 116 109 109 104 97 98 99 96 93 87 86 82 81 78 77 71 62 64 56 42 32 20 20 19 21 23 24 26 25 24 25 27 27 27 27 27 26 24 21 20 20 21 22 23
126 128 125 119 114 107 104 102 103 99 99 94 93 89 88 81 79 75 67 60 63 53 38 30 19 20 21 21 25 26 28 27 28 28 26 23 23 25 24 23 22 22 22 21 21 21 21
105 109 115 114 113 110 109 104 104 101 100 97 95 92 91 84 77 70 58 61 55 49 35 30 24 24 22 24 25 26 27 26 26 23 21 21 24 23 22 22 21 23 24 22 20 20 19
97 98 102 107 111 108 103 98 106 101 106 98 95 93 88 82 73 66 61 66 50 45 36 32 27 27 27 24 25 24 24 22 23 24 24 24 24 23 22 22 23 24 22 19 19 20 19
91 92 95 96 102 107 104 100 100 99 98 92 91 93 92 80 67 69 71 64 47 45 40 37 33 30 30 26 27 26 25 25 25 25 24 23 23 23 23 24 24 21 20 19 20 20 20
82 85 92 91 92 96 101 102 101 101 93 94 96 89 86 69 72 72 68 58 47 46 43 41 36 32 33 30 30 29 31 28 27 26 25 24 24 24 23 20 22 22 23 22 21 22 21
74 76 84 87 93 96 96 98 100 97 94 94 89 79 70 68 73 67 63 53 49 46 45 41 39 38 37 33 32 33 31 29 27 26 23 23 23 23 23 24 25 24 23 22 24 25 25
67 71 74 83 85 93 96 96 96 92 91 85 81 75 70 74 70 66 62 51 49 47 46 45 43 43 37 36 36 34 30 29 27 24 23 22 24 25 26 26 26 24 26 27 27 25 26
63 66 71 76 80 83 88 94 90 89 77 69 69 56 58 62 65 63 56 49 52 48 50 49 48 43 38 36 38 35 31 32 29 25 23 24 27 28 29 28 26 28 30 27 28 30 30
62 67 70 73 77 79 84 85 83 74 67 70 59 61 61 60 63 59 55 54 54 50 55 53 50 44 38 38 39 35 33 33 31 27 25 26 28 29 30 28 27 33 31 32 32 34 34
58 60 62 67 74 76 78 76 74 67 66 65 59 60 63 64 62 63 58 56 57 57 58 51 49 48 41 42 40 36 35 34 32 28 27 28 30 31 31 30 32 35 36 35 35 39 39
48 51 55 61 66 69 66 68 64 68 64 59 58 58 58 60 59 57 55 61 53 58 57 53 50 44 44 43 40 38 36 36 32 31 30 31 32 32 34 34 35 37 39 40 41 43 45
43 46 50 54 58 60 64 64 64 62 59 58 65 63 61 62 65 63 60 54 58 60 56 53 49 46 45 42 40 38 37 36 35 33 32 32 35 37 37 38 39 40 41 43 46 48 50
42 46 50 54 58 61 63 63 61 58 60 62 60 57 56 56 59 62 62 59 64 59 56 54 51 47 46 43 40 39 38 36 37 36 35 36 37 39 39 40 40 43 44 46 48 49 50
44 48 53 59 63 65 65 61 60 61 62 59 56 56 57 59 60 59 57 62 64 59 62 56 51 51 48 42 41 39 39 38 38 37 37 38 39 41 41 41 42 42 44 45 48 51 54

GFSGBSN_250_spd_048.txt.gz
Wind_Speed
62 62 63 64 65 62 60 56 52 53 54 53 54 56 55 57 58 61 64 67 69 70 69 70 73 72 74 72 58 45 33 32 32 28 28 30 27 27 30 35 34 26 23 24 28 48 50
61 59 61 62 63 62 54 54 55 54 54 55 56 55 57 60 59 62 65 67 68 67 67 74 75 74 70 70 54 42 29 26 30 29 25 28 28 23 28 27 29 27 24 25 26 47 44
64 62 57 62 60 60 59 56 56 55 56 57 55 56 58 59 61 63 66 68 68 68 71 75 76 73 65 66 50 40 28 24 24 21 21 23 28 23 25 29 32 28 28 30 27 32 43
59 59 55 58 59 61 62 62 59 57 58 58 59 59 58 59 62 65 66 67 69 68 69 73 75 70 62 61 45 36 27 21 18 15 19 23 26 26 31 37 30 27 30 32 32 34 40
65 65 62 60 60 63 65 66 65 63 61 62 63 62 62 60 63 65 66 70 70 68 69 73 74 75 57 58 43 32 26 17 13 14 18 22 29 32 33 34 29 34 34 34 38 38 36
71 68 67 64 65 66 67 70 70 67 66 66 64 65 63 64 64 65 68 69 68 66 68 72 73 64 56 49 40 30 23 14 14 14 19 28 32 34 34 30 32 33 33 33 33 28 23
76 73 68 67 67 68 70 72 71 69 69 69 64 65 65 67 67 67 69 67 65 62 69 72 73 56 52 41 36 26 19 12 14 16 26 28 29 35 33 32 33 35 34 31 23 23 21
83 80 82 78 78 74 71 71 70 76 73 68 65 65 67 69 68 69 70 67 66 69 69 69 71 64 47 37 34 25 17 12 17 21 26 32 36 39 35 31 31 33 31 25 20 21 23
88 86 85 85 83 79 76 71 71 72 71 72 69 68 69 70 72 72 71 68 64 62 65 69 71 60 48 33 30 23 16 15 20 22 27 33 31 30 29 28 31 27 25 24 23 24 24
97 95 94 92 89 88 82 81 76 74 73 71 72 70 72 72 72 73 71 66 69 67 66 68 69 64 50 31 25 20 15 15 21 21 28 37 33 28 31 28 28 24 26 22 21 18 28
103 102 99 95 95 92 88 88 81 77 73 74 74 75 73 71 75 71 70 62 68 69 68 69 69 67 49 30 21 17 13 15 21 19 26 37 29 29 28 22 21 22 24 23 22 25 26
111 108 106 101 99 96 93 87 86 84 80 78 78 79 74 73 74 69 65 65 68 67 68 67 68 66 48 28 21 16 14 12 15 17 27 30 27 24 19 20 21 25 24 26 29 31 34
120 114 111 107 104 101 97 94 92 89 84 82 81 80 79 75 70 70 71 65 68 67 69 68 67 63 47 26 22 15 15 17 18 20 27 27 22 25 23 21 21 24 24 26 30 35 33
120 125 119 113 112 106 105 101 98 92 86 84 85 82 79 79 77 72 72 69 67 68 69 67 66 66 47 26 22 15 16 19 22 24 27 23 24 29 26 22 25 30 28 31 31 32 33
123 119 113 107 101 107 103 103 102 94 88 87 87 85 83 81 83 80 72 70 69 71 69 67 67 66 41 28 24 18 15 19 22 23 22 22 23 30 30 30 28 28 30 32 34 36 35
123 125 121 117 111 106 102 101 101 100 91 92 92 90 88 88 85 84 76 73 72 75 72 71 65 64 35 29 25 24 23 24 25 26 29 24 27 32 29 33 33 33 33 32 30 30 28
118 118 120 122 120 118 109 106 105 101 98 97 96 91 93 90 87 83 77 75 76 79 75 73 68 56 32 30 27 26 29 30 31 31 32 28 32 30 33 33 30 30 30 29 28 29 28
113 116 115 118 118 118 115 114 114 109 106 104 97 92 96 92 87 83 75 76 79 80 75 73 69 49 32 34 28 28 29 30 29 30 31 26 25 28 27 27 30 31 31 29 29 27 27
104 107 109 112 118 119 117 116 117 116 111 104 98 98 98 98 88 83 80 79 81 79 76 72 66 45 34 35 31 31 27 26 26 25 25 31 31 28 27 32 31 30 27 26 26 27 28
94 104 103 102 104 108 112 113 111 110 110 108 106 105 101 95 88 87 85 83 82 80 72 69 62 44 36 38 36 31 27 27 26 26 31 29 29 30 30 32 26 30 29 28 26 27 25
91 97 94 97 99 102 107 110 109 110 111 110 107 105 98 93 91 87 90 88 80 77 69 71 58 44 41 40 39 35 30 30 29 32 31 31 32 29 29 29 31 28 27 26 26 27 22
85 84 84 87 93 98 99 99 102 110 113 108 103 100 100 98 92 86 80 80 80 73 70 66 48 46 45 44 42 37 35 31 31 34 32 30 29 28 30 29 29 26 27 28 28 27 24
73 76 77 79 84 86 93 95 99 102 100 89 92 99 95 93 87 82 79 78 73 69 64 56 47 50 46 48 42 35 37 35 34 36 33 30 31 29 29 29 28 29 31 29 27 28 28
64 67 71 71 76 80 84 91 96 97 87 85 89 95 91 91 85 77 77 76 74 67 66 50 50 52 48 45 45 41 39 38 36 35 33 31 28 28 31 30 30 34 31 30 31 33 32
58 61 63 66 70 73 81 85 90 90 82 76 78 80 83 82 82 83 79 77 76 68 55 47 51 45 46 50 47 41 42 40 37 35 34 31 29 29 30 31 34 34 33 35 35 37 35
52 54 55 59 64 70 73 80 82 84 79 73 68 70 72 72 73 75 74 72 67 59 43 44 50 48 53 49 45 43 44 43 37 38 36 34 31 30 33 33 35 35 37 38 39 39 40
47 51 52 52 58 66 71 75 71 69 68 71 69 69 66 64 62 66 65 64 54 51 45 49 49 51 53 50 47 47 45 43 41 39 38 35 33 33 34 33 36 36 41 41 42 44 45
42 45 48 51 56 63 66 65 60 61 65 65 62 68 59 58 62 59 58 56 54 48 39 36 49 51 53 51 47 49 47 46 43 39 39 37 36 36 35 35 36 40 40 44 45 47 49
36 37 39 44 51 58 62 61 64 62 59 62 64 55 55 47 50 56 50 49 48 54 64 59 54 58 58 50 47 49 49 46 44 41 39 39 40 40 38 37 39 40 42 46 49 49 49

GFSGBSN_250_spd_051.txt.gz
Wind_Speed
73 71 72 70 69 66 63 60 59 59 60 62 58 53 50 49 50 52 52 55 56 56 61 64 70 76 77 73 79 71 60 49 39 30 24 21 28 26 23 25 36 36 30 26 26 32 36
70 71 71 67 68 64 64 61 62 61 62 61 55 51 50 49 51 51 53 55 57 55 60 63 69 74 72 72 77 66 54 46 38 28 23 21 21 25 21 26 32 31 23 26 29 30 39
70 69 68 69 69 65 59 58 59 57 58 59 53 50 49 50 52 52 54 57 57 58 60 64 70 74 73 75 70 62 51 43 37 26 17 18 19 19 18 21 29 28 30 28 26 33 40
69 66 64 62 62 63 60 60 55 55 56 57 55 52 53 55 52 54 58 58 57 57 61 63 71 72 72 71 61 64 50 41 35 25 13 13 15 22 24 26 30 34 29 30 28 41 36
71 70 65 62 62 62 63 59 58 57 56 57 60 59 59 57 57 58 58 57 55 58 61 66 69 69 68 67 66 59 48 39 32 20 9 10 15 22 24 31 38 32 28 30 29 32 41
75 74 70 68 65 58 59 61 56 53 55 56 56 58 59 64 61 62 60 56 55 56 59 65 68 66 66 69 62 51 43 38 28 15 11 8 17 24 31 36 34 30 30 29 31 29 33
78 80 78 74 72 67 66 66 65 58 56 55 54 56 61 64 64 63 61 57 54 55 60 64 67 65 64 67 54 48 39 36 26 13 12 12 20 28 33 41 34 31 31 30 29 31 30
83 80 79 79 80 77 77 70 65 62 59 53 53 57 61 65 66 66 65 61 56 56 58 63 65 65 64 66 61 46 37 34 24 12 11 16 25 30 30 32 34 32 32 30 26 28 27
92 86 84 81 82 82 80 74 71 66 63 60 59 61 61 60 62 62 62 57 59 56 56 61 61 62 63 64 64 44 37 30 21 15 13 19 21 26 31 29 30 25 25 28 27 26 26
98 97 92 88 86 87 83 79 75 72 70 67 66 64 63 61 62 65 59 60 58 58 55 63 60 61 64 64 61 44 36 26 18 15 16 19 20 25 30 28 24 21 20 25 28 25 23
109 99 100 97 94 89 88 84 83 80 73 70 71 72 67 66 67 64 63 59 60 60 54 58 58 62 63 63 65 43 34 21 17 17 17 19 20 18 25 24 21 19 22 22 26 26 25
115 109 105 101 96 97 94 92 88 86 79 75 72 73 70 70 70 67 65 63 63 58 57 59 60 61 60 64 62 49 35 23 15 15 19 18 21 24 21 19 18 16 18 21 25 23 28
128 120 109 109 102 98 97 95 92 90 87 81 78 75 77 70 72 67 68 68 64 56 60 56 61 60 60 64 61 59 39 23 16 16 19 19 20 24 19 19 19 24 22 20 26 30 32
119 122 127 113 112 106 103 100 99 92 92 86 83 81 83 76 75 73 73 68 60 63 62 60 62 61 61 64 62 60 42 25 17 17 17 16 16 25 24 26 27 29 28 28 30 31 32
126 121 118 122 123 120 117 107 104 97 96 90 90 84 82 83 80 79 74 66 56 63 64 63 64 62 64 66 61 59 44 28 17 18 19 18 21 25 24 29 30 30 24 26 25 26 26
120 122 121 122 123 123 120 115 109 105 103 97 95 90 87 91 85 84 77 63 56 66 68 66 64 63 63 65 63 60 44 30 27 20 21 23 26 29 28 29 31 34 30 28 29 31 32
116 121 119 119 120 117 115 120 117 112 110 103 102 93 91 94 89 85 68 58 62 68 69 67 65 67 68 63 64 61 49 29 30 26 26 29 30 31 24 22 31 35 35 35 32 32 32
110 113 118 116 117 119 118 115 115 114 113 107 96 93 94 94 88 78 68 63 65 69 69 67 65 66 69 66 66 66 51 32 31 29 33 34 30 35 36 32 31 33 36 37 30 27 29
102 107 111 114 116 116 118 120 112 109 108 105 98 93 90 96 86 71 72 72 68 71 70 70 70 72 70 67 68 69 48 37 35 32 35 35 33 33 31 30 31 29 28 27 27 30 32
96 98 104 109 110 114 117 116 115 113 111 106 99 99 96 88 82 72 73 71 69 73 70 71 72 73 73 71 68 70 40 38 34 31 32 34 33 28 30 30 27 27 29 29 31 32 36
87 90 92 96 103 108 112 114 114 115 116 113 109 103 96 86 79 75 81 77 72 73 74 73 71 75 72 73 73 76 48 39 36 31 29 29 30 29 30 31 31 32 30 31 31 33 36
76 80 83 86 95 100 102 108 111 113 118 120 109 101 94 86 90 83 84 82 77 77 77 75 75 77 75 71 71 66 46 40 37 34 31 29 30 29 34 35 32 30 32 33 32 34 33
69 73 75 80 86 90 94 99 103 113 115 105 105 110 103 95 93 87 82 83 79 82 79 77 77 77 75 71 69 60 44 42 37 36 35 30 31 31 33 32 30 32 32 30 31 31 29
62 66 70 72 71 75 82 92 96 102 103 100 98 102 99 93 92 87 85 81 82 82 81 77 77 78 71 73 67 52 43 43 41 39 37 31 32 34 34 31 31 33 31 31 32 30 29
55 58 61 62 64 70 75 82 90 89 90 92 96 97 95 93 90 90 85 82 85 85 82 77 74 71 72 71 60 50 44 44 41 42 39 33 36 35 33 32 31 30 33 33 32 31 33
48 53 57 56 59 64 70 71 75 86 84 81 83 86 86 85 78 83 84 85 85 81 77 69 66 69 72 60 46 48 44 46 44 42 40 36 37 35 34 32 30 32 34 36 33 34 39
45 49 51 53 54 57 59 60 67 76 72 73 76 77 75 75 81 82 80 80 82 83 75 68 67 71 60 46 40 44 44 49 45 44 44 37 37 38 37 34 34 32 37 36 38 38 42
42 45 47 48 50 53 53 56 62 67 63 67 72 69 68 68 68 70 77 79 82 79 73 69 70 66 49 50 48 37 43 50 45 47 41 37 37 41 40 38 35 35 36 39 40 41 42
38 40 41 41 44 47 51 55 64 56 59 67 67 69 68 65 63 63 67 67 71 72 70 68 69 64 63 62 53 40 45 51 47 45 42 38 41 43 40 40 38 35 37 46 42 42 44

GFSGBSN_250_spd_054.txt.gz
Wind_Speed
73 70 72 74 74 74 73 71 70 66 67 67 64 63 54 55 61 60 52 48 44 46 49 53 52 57 62 65 70 71 73 73 66 54 43 33 24 19 22 21 21 26 25 23 28 29 27
70 73 75 74 73 73 72 70 71 69 69 68 65 56 56 57 58 54 50 48 44 46 49 53 54 55 58 64 69 67 70 71 59 49 40 29 20 16 16 21 17 23 24 24 30 25 26
70 69 71 72 72 71 71 71 70 70 64 62 61 58 54 54 53 52 49 47 46 48 52 53 53 55 61 63 68 67 71 68 55 47 36 24 17 12 16 22 19 19 25 27 28 26 34
77 74 71 73 72 70 68 68 68 66 64 62 58 51 51 50 50 54 51 48 47 49 53 53 53 57 59 63 65 66 69 63 51 43 32 21 14 13 17 21 20 21 23 26 31 33 34
82 80 76 74 75 72 69 67 67 62 62 59 58 54 52 50 52 51 53 51 49 53 54 53 53 57 61 64 66 60 67 61 49 44 31 22 13 13 20 23 21 28 27 38 37 32 33
83 82 82 80 75 72 69 67 61 59 54 52 53 52 53 52 52 53 51 47 48 53 52 55 55 56 59 64 66 60 62 59 46 42 31 27 17 11 19 20 22 24 32 34 36 31 28
82 85 84 84 80 76 72 67 62 61 60 56 52 56 54 52 52 52 50 46 45 52 50 50 51 50 57 59 61 58 58 56 44 42 30 27 21 13 17 23 26 29 28 26 24 28 24
90 86 88 86 85 81 76 73 69 64 62 58 55 56 57 55 54 53 47 42 45 45 45 46 48 49 56 57 59 61 54 55 47 41 32 25 24 16 14 21 24 27 21 21 20 23 23
96 89 87 88 87 83 79 77 72 72 66 63 61 59 60 58 56 53 48 44 47 43 43 45 48 49 55 57 57 58 52 57 49 35 35 21 17 12 14 18 25 17 20 21 20 20 21
105 98 94 90 88 88 84 80 78 75 74 72 66 66 63 62 60 57 54 49 48 48 46 46 49 50 54 57 54 56 55 52 48 32 31 18 17 14 14 19 28 19 19 21 20 21 21
120 116 102 99 95 90 89 84 81 77 75 73 75 73 66 65 66 63 57 54 53 52 46 49 50 52 56 55 53 55 54 49 47 34 26 17 14 17 15 23 21 23 20 19 20 21 26
115 113 118 112 106 98 95 90 86 79 79 76 74 77 71 71 68 62 59 58 56 52 47 49 51 51 54 57 55 56 58 52 41 41 27 21 14 15 14 14 22 21 18 19 20 24 29
118 121 113 120 115 110 103 100 93 88 84 83 79 77 77 72 71 67 65 62 57 47 52 47 50 51 56 54 53 55 57 52 49 50 28 20 17 11 14 16 19 19 17 18 23 27 27
124 119 119 114 121 121 110 106 103 95 91 88 87 81 81 81 73 72 71 66 56 51 53 50 51 53 54 50 52 55 58 51 53 43 30 19 17 10 13 19 20 23 23 21 20 22 29
123 126 122 119 117 119 121 112 108 104 99 95 89 86 86 87 81 79 76 68 54 55 58 52 53 56 56 54 51 54 56 53 49 39 37 24 18 14 17 26 28 27 27 24 26 25 24
115 123 122 125 121 115 119 118 114 112 108 102 92 90 87 95 86 82 73 61 58 61 60 55 55 57 60 52 52 53 55 54 54 45 41 31 24 19 22 25 27 27 30 30 27 27 28
106 114 122 125 125 120 120 119 118 116 117 111 100 93 95 94 89 83 69 63 61 70 66 59 61 56 57 54 54 54 56 56 53 56 49 29 30 28 28 27 21 26 29 31 28 32 34
95 102 112 120 122 122 122 120 121 121 117 116 109 97 101 99 92 81 70 69 68 74 68 63 64 58 55 55 53 55 57 58 55 54 43 38 34 32 34 30 24 29 32 35 36 34 34
87 91 101 110 121 119 122 121 123 120 120 118 114 108 106 106 97 85 78 74 72 76 70 63 62 55 57 59 54 56 58 59 58 55 48 47 37 35 38 36 32 33 29 28 27 28 30
80 84 88 99 108 118 116 118 118 120 120 116 111 115 117 107 95 90 82 77 71 75 66 63 61 57 58 58 57 57 60 62 61 59 51 42 35 32 35 34 34 28 26 25 25 28 32
77 77 80 87 98 109 113 114 117 120 121 122 118 111 100 102 93 84 83 78 72 74 67 61 55 57 60 61 58 59 61 62 62 64 56 39 35 30 30 30 27 28 27 29 29 32 33
70 73 73 77 86 99 106 108 114 119 123 125 119 107 102 94 91 86 80 74 73 75 66 59 57 61 62 62 58 61 59 58 67 64 56 44 37 28 28 30 29 26 32 36 29 32 33
63 67 69 71 77 88 99 98 108 116 124 118 113 111 106 98 92 83 70 66 67 75 67 62 60 61 61 63 61 59 61 63 70 70 62 46 37 31 30 30 27 29 37 35 34 30 33
56 59 64 66 70 80 86 90 98 110 105 108 106 103 102 99 94 82 77 70 70 74 70 67 67 60 61 63 62 63 62 64 67 69 64 44 37 33 34 32 29 38 36 35 31 29 31
51 54 59 61 66 70 76 79 88 90 96 101 104 101 99 97 96 87 79 75 77 78 71 73 70 64 67 66 66 68 66 67 64 65 58 38 40 36 34 34 33 36 35 35 32 29 30
46 49 53 57 59 62 68 72 69 73 84 91 95 95 96 92 85 86 84 80 80 79 78 71 69 70 67 59 59 55 53 51 64 67 51 39 42 39 35 35 32 39 35 37 34 31 33
42 46 47 51 54 56 57 59 57 64 74 80 87 90 93 92 88 82 84 79 85 86 79 76 70 69 66 58 62 63 61 59 57 43 43 39 42 41 38 36 36 38 37 36 37 38 36
39 40 44 47 49 51 53 52 55 63 67 73 77 83 87 89 87 86 86 82 82 82 79 75 74 66 65 67 65 67 54 49 47 57 52 41 42 43 40 38 35 39 39 40 41 40 40
34 39 42 45 47 48 49 52 57 61 64 67 74 77 81 82 81 80 77 79 75 74 73 74 69 68 67 69 63 62 57 60 60 52 48 42 43 46 43 39 38 40 42 43 45 44 44

GFSGBSN_250_spd_057.txt.gz
Wind_Speed
71 69 69 73 70 72 70 72 70 67 64 66 65 62 64 63 64 63 63 61 53 52 54 51 49 49 54 56 55 59 65 71 69 73 66 56 43 30 17 11 12 14 17 18 25 24 25
68 72 70 66 70 70 68 68 67 63 61 65 65 67 66 65 64 61 60 56 54 52 49 51 46 49 53 55 55 57 63 67 69 72 62 52 35 26 17 11 12 10 20 21 19 23 26
73 67 73 69 68 65 67 65 66 63 66 68 65 69 66 66 60 61 53 50 49 44 48 46 47 51 53 53 54 54 59 65 70 69 58 48 34 24 19 12 12 12 19 28 26 26 24
80 76 72 74 73 69 67 66 64 62 61 63 65 65 64 64 62 58 51 45 43 42 48 46 48 51 54 49 50 51 59 63 66 69 56 44 34 21 16 12 10 13 16 21 25 23 24
83 83 81 83 76 75 74 73 68 65 64 63 65 61 62 62 61 55 52 45 46 42 43 46 48 48 46 45 47 51 56 62 63 67 53 41 31 22 18 12 7 10 14 23 22 22 28
93 90 87 83 75 80 76 78 73 70 66 65 64 60 60 60 57 50 48 45 46 44 46 44 43 42 41 41 46 50 54 60 60 63 52 39 30 26 19 10 8 10 14 21 21 23 32
104 99 96 85 79 80 79 80 79 74 70 65 66 61 60 57 55 50 43 43 45 48 47 40 37 37 39 39 43 49 53 58 59 62 53 40 30 29 23 14 11 9 17 17 19 22 28
107 104 103 97 94 86 80 80 80 79 74 71 66 64 61 57 55 52 48 43 45 47 44 37 37 35 41 41 44 46 53 56 57 58 51 37 28 28 20 13 9 11 17 20 24 23 19
100 99 98 103 100 96 90 83 83 80 79 74 69 66 62 60 57 56 53 45 49 48 43 39 39 37 40 43 43 46 50 54 55 54 47 35 27 23 20 11 9 7 15 14 15 17 19
108 104 101 95 97 100 98 87 83 79 80 79 75 72 68 64 61 57 53 51 51 50 45 46 40 40 41 43 44 44 48 52 54 54 49 34 25 21 18 13 6 13 14 10 13 16 16
110 110 105 105 102 99 99 96 90 88 82 83 78 72 70 67 65 61 56 56 52 53 47 48 42 44 41 43 42 44 47 49 52 55 43 35 22 20 14 12 8 17 12 11 14 16 18
109 109 111 107 105 104 103 101 96 90 88 81 80 78 72 71 71 66 62 59 58 55 46 47 46 45 42 42 43 45 47 50 52 50 43 35 23 18 16 8 7 13 16 15 16 19 20
107 109 109 109 109 108 105 103 102 94 89 88 83 79 76 75 74 71 69 66 63 53 51 46 47 47 43 44 44 45 47 50 52 50 47 37 28 18 18 11 7 12 14 16 16 16 19
107 106 108 107 109 110 105 107 107 103 96 94 87 83 79 79 74 72 71 70 63 53 53 50 49 48 45 43 44 45 47 50 50 49 47 40 34 19 20 19 12 13 16 15 16 16 15
100 104 106 109 111 110 109 106 108 109 105 104 94 88 81 82 77 77 73 67 57 54 56 52 51 49 46 45 44 47 48 51 49 50 50 42 41 26 22 22 21 17 19 18 22 21 18
96 98 99 104 111 115 114 110 111 115 113 112 102 97 92 90 87 81 75 64 61 61 60 57 54 49 49 49 44 49 50 52 49 50 49 45 43 31 37 27 25 20 20 21 20 24 23
88 91 94 98 105 113 116 115 112 115 113 118 113 107 100 97 93 86 70 64 65 66 63 60 54 50 49 48 48 49 52 50 48 48 48 47 44 44 45 30 30 27 26 24 20 22 26
79 85 88 92 99 107 116 120 120 116 117 115 117 114 105 106 98 87 75 67 64 67 67 64 56 52 50 51 51 49 49 51 47 48 50 48 46 46 43 34 32 31 27 26 27 31 29
76 79 82 86 93 103 111 120 121 122 124 117 112 112 116 113 99 85 81 74 69 72 69 63 60 55 53 54 53 52 50 52 48 47 53 51 50 50 42 38 30 33 31 31 34 33 33
71 74 77 80 86 95 104 113 122 124 123 123 119 118 121 122 98 89 88 81 77 78 73 68 63 59 55 54 53 51 48 51 50 48 53 53 53 56 46 43 31 30 33 33 33 28 25
64 69 72 76 80 87 97 109 114 123 122 126 126 119 110 104 102 93 90 86 83 79 73 70 66 60 59 57 54 52 48 52 51 50 52 57 58 62 48 48 33 34 30 30 27 25 22
60 63 67 70 73 79 89 101 109 114 121 123 122 116 108 97 95 98 94 87 81 83 79 72 69 65 60 55 56 56 55 52 50 52 48 51 55 61 57 45 32 33 29 27 26 23 22
57 60 62 66 68 73 80 93 103 108 117 107 108 113 109 101 96 97 88 83 83 88 84 76 69 68 64 63 62 61 55 51 48 47 47 53 59 61 58 51 32 30 36 30 29 28 23
54 57 59 61 64 68 74 83 95 103 98 96 106 108 105 101 98 89 86 83 78 80 81 80 71 64 62 64 63 61 54 49 51 48 54 56 57 63 55 48 27 39 37 33 31 29 30
51 55 54 57 60 64 68 78 88 85 85 89 98 103 103 98 94 89 86 86 84 81 77 74 67 65 67 65 62 61 56 51 49 53 55 49 49 57 59 44 31 36 41 36 34 30 34
47 50 50 53 55 58 63 71 75 72 82 83 89 94 99 99 94 90 84 85 83 81 79 69 67 65 66 61 57 58 54 51 52 50 47 51 59 65 52 36 32 41 40 40 36 33 39
43 44 46 49 52 55 59 62 64 68 70 76 86 87 94 94 96 92 85 82 85 84 80 76 70 67 66 60 57 52 54 53 46 46 47 56 60 64 56 49 37 42 44 40 38 43 38
39 40 44 48 50 53 54 57 60 61 61 71 79 82 88 92 91 91 87 81 82 81 80 78 75 66 66 62 61 61 60 53 50 46 50 58 66 62 60 47 36 45 45 45 45 42 41
35 38 42 44 46 48 48 50 52 51 60 70 73 78 83 86 85 84 83 81 78 76 77 81 71 69 69 65 61 59 55 53 51 50 56 60 62 61 58 47 39 45 47 46 46 44 43

GFSGBSN_250_spd_060.txt.gz
Wind_Speed
77 74 70 69 62 67 69 68 68 68 69 71 69 66 66 63 60 62 60 59 59 60 59 55 59 53 53 49 49 52 57 59 60 67 70 70 62 52 42 27 22 9 7 9 14 17 19
77 76 75 69 61 64 67 70 66 62 63 67 66 67 60 61 56 55 58 59 58 55 53 54 49 49 46 45 48 53 54 54 58 62 69 68 58 51 35 21 17 10 5 15 13 14 15
86 82 76 73 65 63 63 62 67 66 62 60 66 64 60 59 57 55 56 52 53 54 52 52 47 42 43 47 48 50 48 51 57 61 68 65 56 49 25 16 12 7 8 13 13 10 13
94 90 83 76 71 68 65 67 63 62 56 57 54 60 62 60 54 53 54 54 54 52 53 47 45 42 44 44 42 43 44 48 54 62 66 65 54 45 19 14 7 7 8 10 13 13 14
100 97 90 87 79 75 74 70 73 68 63 61 63 60 58 56 54 54 53 55 54 51 49 50 45 44 43 41 39 40 42 47 52 58 62 66 52 41 18 16 7 3 10 8 14 10 12
109 102 99 96 95 83 81 79 79 73 69 68 64 60 64 63 58 56 55 52 48 50 49 45 41 41 39 39 37 37 41 44 52 56 60 65 53 40 26 18 12 10 12 5 11 10 15
104 99 96 89 90 98 84 84 83 77 83 71 66 66 64 64 62 57 54 53 52 51 46 40 39 36 37 36 36 35 39 43 47 54 57 63 60 39 30 26 16 10 8 7 12 11 15
97 97 93 94 93 89 97 94 88 85 83 74 66 67 66 65 62 62 58 53 53 51 47 42 36 36 38 37 36 36 38 41 44 51 55 59 61 37 27 26 19 10 5 1 8 8 17
101 99 97 96 96 94 90 93 99 98 92 83 75 70 71 63 63 60 60 55 53 51 46 43 38 37 39 38 40 37 36 39 41 48 51 53 56 36 24 19 20 10 5 7 7 10 10
111 106 101 99 97 96 96 96 89 94 90 90 82 76 70 68 65 63 58 56 55 54 48 46 40 39 41 41 43 39 36 39 41 44 47 49 54 39 24 18 13 6 2 5 9 9 11
113 111 110 106 103 97 94 95 94 88 90 93 89 84 76 72 72 65 61 62 60 57 51 46 38 41 42 44 43 41 36 38 41 41 45 49 52 42 22 17 12 5 8 7 4 6 9
105 107 109 109 108 104 100 98 97 95 89 88 89 86 84 76 78 73 68 64 62 61 53 48 43 41 44 43 43 40 38 38 39 40 44 48 46 45 22 17 13 7 8 14 12 8 9
102 102 102 105 106 106 105 102 97 95 97 91 86 86 85 83 83 77 70 66 63 58 53 51 48 47 47 44 45 43 40 37 37 38 42 46 44 41 26 19 16 11 7 7 10 10 10
96 96 99 99 101 104 106 106 108 103 101 99 93 89 86 87 85 78 74 72 64 54 55 52 52 49 49 47 44 43 43 38 37 39 41 45 46 41 31 29 18 14 11 10 10 9 9
89 92 94 94 97 99 101 106 107 106 106 104 100 97 86 89 92 84 82 75 60 57 60 56 57 53 50 43 43 42 42 39 36 39 40 45 44 41 39 31 25 17 17 17 14 13 16
79 83 88 90 94 94 100 99 104 108 109 108 104 100 92 93 98 89 84 70 63 63 64 59 55 54 50 45 42 44 41 40 36 40 42 45 46 42 41 35 32 24 18 18 19 19 20
73 74 79 84 88 92 94 98 100 104 109 111 110 101 97 98 101 96 78 68 64 68 66 63 56 50 46 44 45 44 44 42 38 40 43 44 45 43 43 42 40 35 25 21 22 27 25
70 71 73 77 82 86 90 95 100 102 107 112 108 104 104 105 103 92 78 71 70 69 67 64 59 54 52 50 47 44 40 43 42 42 44 43 43 41 43 44 45 38 33 25 21 27 27
66 68 70 72 75 79 86 90 96 101 104 108 106 104 109 111 105 85 80 77 74 73 66 64 61 57 51 52 52 47 43 46 42 44 45 42 39 41 45 48 42 41 37 23 24 28 32
64 66 68 70 71 74 79 86 93 98 100 105 107 108 117 114 95 89 87 83 77 77 71 66 64 61 56 52 49 49 48 47 48 47 44 44 41 40 43 49 46 44 43 26 23 26 30
61 64 66 68 69 69 74 81 87 95 98 103 107 106 109 104 96 84 88 86 84 83 80 72 68 64 60 55 51 52 54 54 53 53 47 45 41 41 44 45 48 49 43 29 24 25 26
59 60 63 65 69 66 69 75 82 91 98 101 99 101 101 99 96 94 90 88 86 85 81 74 68 68 65 60 58 59 60 59 57 53 47 46 41 45 44 48 49 51 51 34 26 26 26
55 58 61 64 66 66 67 71 78 87 94 87 86 97 98 97 103 99 89 91 88 90 85 79 77 77 69 67 68 65 62 61 59 56 50 48 46 44 46 48 49 49 51 33 30 26 25
51 54 57 61 63 65 65 67 74 79 80 80 81 93 95 93 98 92 90 89 87 87 89 86 83 78 73 76 72 68 65 63 60 57 54 52 47 47 48 48 51 50 51 39 30 30 29
46 50 54 56 60 61 61 63 69 71 71 75 81 89 91 93 100 99 92 91 88 86 86 89 84 80 79 78 75 70 67 65 59 55 52 50 51 51 50 47 47 43 51 53 41 36 37
41 46 50 52 56 58 60 61 62 65 68 74 75 81 86 88 94 97 96 93 89 85 84 86 86 82 82 77 73 68 66 62 56 51 49 51 48 51 51 51 43 50 51 51 42 32 46
38 43 45 48 53 56 57 57 59 62 64 64 68 76 80 83 95 97 94 89 91 90 84 84 87 82 77 75 70 67 64 62 54 49 49 50 51 53 56 51 45 51 53 53 50 41 41
36 40 42 46 49 52 53 53 55 57 59 56 62 70 72 78 88 93 95 92 91 91 87 85 85 77 70 67 60 59 57 54 55 52 51 52 56 57 52 49 48 54 49 53 50 36 39
35 38 40 42 45 46 48 48 50 51 51 52 58 64 65 77 82 90 88 88 88 88 89 89 82 79 73 70 63 61 57 59 55 54 54 55 56 54 54 49 52 55 56 56 46 38 37

GFSGBSN_250_spd_063.txt.gz
Wind_Speed
66 65 68 66 62 66 64 62 60 63 49 54 60 61 61 61 60 59 60 58 56 58 55 54 54 53 52 47 46 44 45 48 50 52 56 62 67 70 57 54 41 21 16 11 9 10 16
75 76 76 73 66 66 67 68 64 66 54 53 60 62 61 60 59 57 56 53 51 49 49 51 48 45 45 46 43 44 45 45 45 49 55 60 66 70 55 51 34 18 12 10 3 3 10
85 86 81 76 77 73 76 76 75 71 65 62 56 59 58 59 57 55 52 53 53 51 49 49 45 45 45 45 43 43 42 41 43 47 52 60 65 64 52 47 26 14 7 8 2 4 4
92 91 89 90 88 86 79 79 80 77 71 68 58 62 57 56 50 51 47 48 47 43 44 45 43 45 45 43 43 41 36 37 41 45 49 59 58 66 51 43 22 9 8 6 4 4 5
102 102 101 95 93 92 90 87 85 82 80 77 67 64 61 58 58 53 50 45 42 44 45 44 44 43 42 42 40 36 32 35 39 43 47 54 58 61 51 42 23 15 12 8 3 6 7
110 107 107 102 101 98 98 96 94 91 84 81 71 67 67 62 59 55 49 46 45 41 42 44 45 41 41 39 37 32 31 32 37 43 46 51 56 60 52 43 23 16 10 8 4 7 10
117 116 117 112 112 110 108 105 104 94 87 83 86 75 73 69 65 62 58 50 49 49 49 45 42 42 41 39 34 31 32 34 39 43 44 49 52 55 52 40 25 16 11 1 5 10 14
124 121 118 117 118 117 110 105 100 95 86 84 84 88 81 73 72 66 61 52 51 51 48 51 43 41 39 35 33 33 32 34 38 41 42 44 48 52 54 37 26 15 9 5 5 7 11
135 132 131 126 122 113 111 105 94 87 85 85 85 84 84 80 77 72 66 56 54 53 48 48 42 43 36 33 32 33 33 35 37 39 39 43 45 49 49 35 25 16 11 10 4 3 10
131 125 124 120 117 112 107 100 91 88 82 88 85 82 78 81 75 78 73 61 59 53 53 49 43 41 34 36 34 33 33 34 36 37 37 39 41 46 50 32 24 11 7 7 10 3 8
116 115 117 115 113 108 105 102 97 90 85 86 92 90 82 81 81 81 76 67 60 57 51 52 47 41 40 37 35 35 33 33 36 34 35 39 40 40 44 41 25 16 6 2 5 4 5
106 106 105 104 106 107 108 110 107 100 91 90 90 89 85 79 82 85 80 75 63 59 53 47 47 45 43 39 36 35 33 34 36 35 35 38 37 37 40 39 31 20 12 4 4 8 8
97 99 99 99 98 98 100 101 104 105 102 97 94 94 89 85 82 83 82 77 71 57 56 52 48 48 46 43 39 37 37 37 37 36 35 36 34 34 36 39 35 24 13 8 6 6 8
89 91 93 94 94 94 94 96 97 100 102 104 99 95 90 88 89 85 86 80 74 59 61 58 53 48 46 45 42 39 39 40 37 34 34 32 32 32 35 37 33 30 18 10 12 9 9
79 82 84 85 87 90 91 91 94 96 99 103 107 99 91 91 92 90 87 84 70 64 65 63 57 51 47 42 42 40 41 42 36 34 32 32 31 32 34 35 34 39 25 16 14 14 15
72 73 74 76 79 83 85 87 90 94 96 99 105 105 96 96 99 96 87 76 72 68 70 65 60 54 51 46 43 44 44 43 38 34 33 32 33 32 33 35 35 40 27 24 16 20 20
67 68 70 70 72 74 78 82 86 90 95 99 102 102 99 104 104 102 84 70 72 71 72 66 62 56 54 48 47 46 46 45 38 34 35 33 34 33 32 36 39 35 33 31 27 19 24
62 64 66 67 68 71 72 76 82 87 94 98 99 98 98 110 109 96 83 70 72 75 74 69 64 60 57 53 50 48 44 44 40 36 36 36 32 35 33 36 37 36 37 33 31 25 22
60 62 64 67 66 68 70 72 77 82 88 94 95 94 102 114 107 91 80 79 79 75 76 72 65 61 60 56 54 52 48 47 44 40 39 35 35 35 35 37 37 37 35 31 34 29 28
61 61 62 65 67 67 68 69 73 77 83 89 93 97 104 112 94 94 91 85 80 77 77 75 69 63 60 59 57 56 53 48 47 42 40 36 37 39 40 38 38 41 35 38 35 35 26
60 60 60 63 68 68 68 68 70 74 78 85 91 95 95 91 81 88 88 87 87 82 79 77 74 65 62 62 59 56 56 53 49 45 41 39 38 40 41 41 42 43 34 41 39 36 29
58 59 59 60 62 66 68 66 68 73 77 79 81 84 86 83 83 88 91 87 86 86 82 76 73 68 67 66 65 62 60 57 52 47 43 42 43 43 43 42 44 39 33 41 45 37 37
52 55 57 58 61 64 64 65 67 68 68 67 70 77 80 79 85 85 86 86 83 89 81 78 77 76 71 69 68 64 61 58 55 50 48 47 46 45 45 45 43 38 45 40 47 42 36
47 52 54 55 59 61 62 65 62 61 59 66 71 75 75 76 82 78 88 90 89 87 85 82 82 79 76 78 73 67 63 60 57 56 53 52 50 51 49 47 42 47 40 48 46 45 37
42 47 49 51 55 58 60 61 59 54 58 62 70 67 68 79 86 84 87 89 96 93 89 85 86 86 87 81 75 70 65 63 59 57 56 56 54 51 49 47 40 40 47 46 47 46 40
37 38 42 46 51 54 57 56 53 52 56 66 66 62 68 77 78 85 89 93 95 92 91 88 91 88 88 85 81 75 69 65 65 60 59 57 57 54 48 47 42 46 45 46 49 45 42
29 30 35 41 45 50 51 52 51 52 59 63 59 58 66 74 80 85 88 94 97 95 92 91 94 92 90 85 80 77 71 68 65 62 60 58 57 52 47 46 42 42 47 51 47 47 47
26 30 35 40 45 47 48 50 51 52 55 55 56 56 65 70 77 84 91 97 99 95 95 91 99 92 88 84 78 74 69 66 63 59 60 54 49 49 49 48 43 51 51 48 51 52 48
27 31 35 40 42 45 47 47 47 50 50 52 55 58 65 73 77 82 88 96 100 95 98 97 94 92 87 84 74 70 70 69 60 58 54 48 51 50 52 53 55 52 52 51 51 51 50

GFSGBSN_250_spd_066.txt.gz
Wind_Speed
70 67 70 67 68 65 63 59 61 57 52 59 63 58 50 50 49 47 48 49 48 47 48 49 46 48 42 42 45 43 40 46 45 43 44 45 51 58 66 69 52 44 29 21 16 13 11
76 72 67 69 71 70 69 67 67 61 59 56 63 63 62 57 55 49 47 47 47 46 47 46 44 44 42 42 36 38 40 44 42 39 41 45 50 59 64 64 49 39 20 16 8 2 2
75 76 71 74 73 74 70 68 70 70 65 60 63 65 67 63 58 48 48 48 47 45 46 44 46 43 42 37 35 38 40 40 37 37 38 43 51 57 63 61 47 36 19 15 3 6 6
80 79 72 78 78 78 80 80 81 78 75 73 73 70 71 68 61 53 52 52 48 46 42 46 44 40 37 34 38 39 37 38 33 34 36 42 50 54 57 59 45 35 19 13 5 5 7
95 91 85 89 85 87 90 91 88 86 83 80 77 74 69 70 68 62 58 55 50 48 46 40 40 35 36 33 36 36 35 36 30 33 37 41 48 50 52 62 43 37 21 12 6 4 9
97 98 96 96 100 100 97 97 98 94 94 87 85 76 76 75 70 71 68 63 54 51 50 48 39 34 33 33 35 35 34 32 29 32 36 40 44 48 51 55 42 36 21 8 4 8 8
102 103 106 106 105 106 105 102 101 99 96 93 92 90 86 83 80 77 72 62 62 57 52 48 40 39 39 36 34 33 33 29 29 32 35 38 42 44 49 50 47 35 15 8 2 8 13
112 111 111 111 112 111 113 111 108 109 108 101 99 96 95 93 88 80 80 71 65 62 56 49 44 42 41 41 39 32 31 29 29 31 33 35 38 41 46 46 45 33 16 16 6 2 13
118 120 120 120 121 121 121 121 118 115 117 112 109 105 99 94 91 91 80 76 75 69 61 57 50 42 43 38 36 33 30 29 29 30 31 33 37 40 42 42 42 29 20 12 14 7 5
124 129 130 128 128 131 128 128 125 123 120 117 117 109 110 108 102 92 81 75 74 69 65 60 52 45 41 40 34 32 30 28 29 29 31 32 35 39 40 37 39 30 20 9 9 10 6
119 121 123 129 134 131 129 132 131 132 131 126 125 121 113 104 88 82 77 80 76 72 67 66 58 48 44 41 41 34 31 29 29 30 31 33 34 34 36 34 35 36 22 12 2 2 3
111 113 116 117 119 119 119 121 122 120 123 120 117 117 111 97 86 81 79 83 79 75 63 60 62 55 48 42 43 36 33 31 30 29 31 32 32 30 31 31 32 33 28 15 11 8 8
98 99 99 101 101 102 102 104 107 108 109 110 107 104 100 92 85 81 82 87 83 73 62 60 58 55 51 44 43 40 36 34 32 32 32 35 30 29 28 28 28 32 31 20 11 13 13
93 92 93 94 94 95 95 94 96 95 98 97 99 101 97 89 88 82 80 90 80 68 65 65 58 57 50 49 42 41 38 35 35 36 34 35 29 28 27 27 23 27 26 24 17 15 16
82 83 84 85 86 86 86 87 88 89 91 93 96 97 97 94 94 91 83 87 78 71 70 70 64 59 55 53 47 43 40 40 38 33 36 35 30 29 28 26 25 24 26 25 25 17 19
76 76 77 77 77 78 80 82 82 83 88 89 91 93 93 98 100 100 95 73 82 79 75 74 68 63 60 57 50 47 44 41 40 37 36 35 32 29 28 25 26 24 24 28 26 24 19
66 66 67 68 69 70 72 73 75 79 83 86 88 87 87 97 103 104 87 67 84 80 77 70 69 68 63 60 56 52 48 45 42 40 37 36 34 30 29 27 26 26 23 26 23 27 25
60 60 62 63 64 65 67 68 69 72 77 80 84 79 88 97 102 89 75 75 81 84 80 74 70 70 65 63 59 55 49 46 45 44 40 43 35 32 31 29 25 26 27 27 27 26 27
60 60 60 61 63 63 64 65 66 69 70 73 76 81 89 100 92 79 74 80 84 84 83 79 73 72 68 65 62 57 53 51 48 46 43 43 37 35 33 31 27 28 29 30 31 28 25
58 59 59 60 61 63 64 65 66 67 69 70 74 79 87 88 78 75 77 84 86 82 85 83 76 74 71 69 65 60 56 55 52 50 47 43 39 39 37 32 29 30 31 33 35 34 28
56 56 57 58 60 61 63 66 66 67 69 68 68 69 78 77 75 71 77 83 86 84 83 83 77 73 74 72 69 67 64 61 57 54 53 47 41 43 40 33 31 32 33 34 35 36 35
56 58 58 59 61 62 65 68 67 67 70 62 58 65 71 74 76 74 80 76 87 87 85 82 76 78 79 76 73 70 69 66 62 58 56 49 44 44 42 38 36 33 36 38 38 36 38
56 56 57 59 61 61 63 66 67 66 65 49 54 66 67 67 73 75 77 78 84 89 88 87 85 85 81 79 78 73 70 65 61 61 58 51 48 46 45 42 38 37 40 40 39 39 37
50 52 55 58 60 61 62 63 64 61 51 51 59 66 65 64 71 74 75 83 89 92 91 90 87 84 80 82 77 75 72 67 62 62 59 52 51 49 47 46 39 40 45 41 40 36 39
46 47 50 53 55 57 58 58 56 57 50 52 59 62 63 61 74 75 81 84 95 101 99 94 92 90 88 86 78 76 75 70 63 63 62 57 56 53 49 47 44 43 41 44 41 38 40
40 42 44 46 50 53 52 51 52 53 51 55 61 62 60 62 72 79 80 85 92 98 101 98 99 97 91 86 79 77 75 69 68 65 65 62 59 56 51 46 45 42 47 49 44 37 49
33 35 38 42 45 46 47 47 52 53 53 56 63 59 59 65 70 71 76 87 96 102 103 102 101 98 93 87 80 76 75 70 69 65 64 61 60 55 53 49 47 45 46 48 44 47 47
26 28 31 36 39 41 44 49 53 52 54 59 58 55 60 64 67 72 82 86 97 107 110 105 106 103 94 88 81 77 75 72 69 68 67 66 63 58 56 51 44 46 48 50 49 49 49
21 25 28 31 36 42 46 50 49 50 54 55 51 53 56 59 65 72 82 89 96 103 108 107 98 98 91 87 82 78 77 77 72 71 72 67 66 64 57 51 50 55 53 54 52 50 49

GFSGBSN_250_spd_069.txt.gz
Wind_Speed
74 74 74 71 69 69 66 63 64 62 60 63 59 56 54 45 51 52 51 53 45 39 38 34 37 40 37 36 34 37 38 35 34 40 44 46 44 44 50 55 60 67 52 42 33 25 18
73 72 73 73 71 69 65 66 65 65 66 66 67 61 64 57 50 53 53 55 51 47 46 40 38 39 39 37 36 38 36 33 39 40 41 43 40 44 48 53 58 65 49 40 28 15 10
75 77 74 72 74 72 71 70 70 72 69 70 70 68 69 65 51 46 54 56 56 51 48 43 41 39 43 38 39 39 31 36 41 40 39 40 38 42 45 50 55 63 46 35 24 16 5
73 74 77 81 78 77 80 73 74 72 71 73 70 69 70 64 68 60 57 55 55 55 50 41 39 44 40 40 36 33 29 37 39 36 37 36 38 39 43 49 54 59 41 32 12 12 4
78 78 80 77 78 82 79 74 74 77 78 74 78 74 72 72 74 68 66 62 59 57 54 45 47 45 43 43 37 30 26 35 37 35 32 36 37 39 42 47 52 55 40 32 20 10 8
84 86 83 84 88 85 86 81 75 83 80 80 82 82 80 82 85 76 73 65 61 58 54 54 50 50 47 45 41 36 26 35 33 32 31 36 38 38 41 44 49 48 38 31 18 5 7
90 90 96 91 91 92 90 94 96 93 93 87 90 90 94 84 88 85 78 77 73 64 62 58 61 54 50 46 44 34 33 35 38 32 30 35 37 34 39 41 44 46 34 27 17 8 5
105 104 100 102 103 103 102 97 99 99 101 97 96 95 97 94 90 85 84 80 75 75 71 65 66 61 51 53 49 39 36 38 36 32 31 33 33 34 37 39 40 41 41 25 14 10 5
104 107 109 107 106 109 108 108 107 106 104 104 102 102 100 98 100 94 90 88 85 84 73 75 73 61 60 57 50 43 40 40 35 30 30 32 32 33 37 37 37 37 38 29 21 9 8
107 113 114 115 115 113 113 116 117 114 115 115 110 110 109 108 108 101 96 96 93 88 84 77 74 63 65 62 50 50 41 40 34 31 29 31 32 33 35 35 34 34 33 33 19 9 5
107 110 115 119 118 120 121 123 120 120 119 119 118 117 117 114 111 108 109 105 102 96 95 85 76 71 73 62 57 49 46 39 36 32 29 30 31 32 34 34 32 31 32 28 17 16 2
102 106 107 114 118 124 125 126 127 128 127 127 124 124 125 123 119 119 116 114 110 106 95 89 77 76 67 62 53 51 47 42 40 32 31 30 32 30 32 33 30 27 28 28 24 14 17
100 101 103 105 106 109 115 117 124 123 128 129 129 130 130 129 125 126 124 123 120 111 100 94 85 74 69 61 56 53 48 44 40 37 33 30 32 32 33 32 28 26 25 23 25 24 14
93 94 95 97 99 99 102 104 107 111 118 120 124 121 119 123 121 123 129 128 118 97 101 92 78 70 69 63 56 53 50 47 39 38 35 35 33 33 33 33 27 26 23 24 22 21 18
90 89 89 88 90 91 93 94 96 96 99 100 103 102 101 105 116 116 116 116 91 88 82 77 69 71 71 64 58 56 48 43 43 43 38 37 35 33 34 33 27 27 23 23 21 22 25
83 83 82 82 84 84 86 86 88 87 88 89 89 91 90 95 102 107 107 87 83 80 78 72 72 73 71 67 60 54 50 46 46 45 41 37 36 34 33 32 29 27 26 23 22 23 25
74 75 76 78 80 80 80 81 80 81 82 82 80 80 84 90 99 98 89 64 75 77 75 70 79 77 74 70 64 57 51 52 51 49 45 41 40 35 34 36 31 29 27 23 24 25 26
71 73 74 75 75 75 75 74 74 75 75 75 74 72 83 86 86 84 73 61 74 78 75 74 80 76 75 73 65 59 53 52 57 52 47 44 42 37 37 37 31 30 30 27 23 25 26
69 69 69 69 70 70 71 70 69 69 69 70 67 68 77 78 74 74 64 66 76 81 76 76 77 79 80 75 71 65 62 55 58 58 53 48 39 38 38 36 36 35 30 29 27 25 28
66 66 68 67 68 68 68 67 67 67 68 68 67 63 68 66 69 71 66 69 77 81 81 78 78 80 84 80 75 73 69 66 58 60 60 50 44 41 39 43 39 36 35 32 30 29 29
61 61 63 62 62 62 63 64 65 66 67 68 61 53 60 57 61 67 64 70 78 83 85 85 81 79 83 82 82 76 74 71 66 61 64 52 47 43 43 44 43 40 37 34 33 32 33
59 59 57 57 58 59 59 60 63 63 65 68 50 50 56 56 64 62 63 72 78 85 92 86 83 80 81 84 82 81 77 75 73 69 68 56 49 46 48 48 46 42 41 39 36 37 37
52 54 56 56 56 57 59 60 63 63 66 61 47 50 52 55 62 57 63 73 76 86 89 91 90 91 86 86 88 80 79 76 75 73 68 60 53 51 49 52 48 44 44 41 40 40 39
54 56 58 59 61 62 62 63 64 64 63 59 52 55 52 56 61 56 64 72 77 83 89 92 94 94 90 95 92 86 80 78 77 69 66 64 57 58 55 54 48 44 47 44 44 42 42
55 55 57 58 60 62 61 62 64 63 65 59 56 51 49 56 60 57 68 77 82 88 100 100 100 96 97 94 93 89 85 79 79 77 73 70 67 63 57 53 51 49 48 49 46 46 47
50 51 51 52 54 56 59 62 63 64 60 53 53 57 53 61 58 63 67 73 83 92 97 98 105 109 103 90 94 91 85 81 84 82 78 74 70 64 58 53 51 51 53 54 51 42 54
43 44 44 45 48 52 55 59 60 58 53 50 51 56 55 59 62 62 61 70 82 90 94 100 108 102 98 95 87 89 87 86 83 80 79 73 69 63 58 53 52 53 53 58 52 51 52
34 36 37 40 41 45 49 52 53 52 49 51 51 53 54 60 62 57 62 72 83 89 96 99 106 110 105 100 87 87 85 81 80 78 78 73 70 65 61 56 56 56 57 56 54 53 50
26 29 31 34 37 41 43 45 47 47 49 51 55 53 57 62 60 55 65 74 83 91 97 101 98 102 102 97 89 87 82 80 77 76 78 75 70 69 65 59 59 60 60 58 58 57 56

GFSGBSN_250_spd_075.txt.gz
Wind_Speed
70 65 71 80 80 75 72 73 75 79 76 69 70 70 67 65 66 65 56 47 46 49 45 44 45 45 42 31 31 30 31 31 30 27 29 29 27 30 42 36 38 43 44 51 53 56 35
71 69 66 70 79 78 77 76 74 78 79 78 74 71 70 69 65 66 62 55 50 56 57 54 41 42 43 47 30 32 33 35 35 32 29 27 26 32 39 40 36 39 47 49 49 54 27
84 78 78 77 73 82 84 80 76 76 80 80 77 75 72 71 68 64 67 65 62 61 60 59 60 59 56 54 42 40 37 37 39 39 33 26 30 31 41 38 35 38 43 49 48 52 25
89 89 87 80 78 76 86 88 82 79 73 77 77 75 73 75 73 71 69 71 69 66 61 55 58 60 58 55 41 46 46 39 40 41 40 29 31 35 41 35 35 40 42 47 48 51 30
89 86 81 78 80 79 74 87 87 80 78 72 74 80 79 77 73 73 73 71 74 71 66 61 59 52 58 60 52 53 48 42 38 44 42 34 30 37 40 33 33 39 43 45 46 47 27
82 79 80 80 79 78 73 72 77 86 84 81 76 73 72 77 77 75 74 75 77 75 73 67 61 56 52 60 61 55 48 40 42 49 48 41 40 37 39 36 33 37 41 43 43 45 33
80 76 75 77 75 70 72 68 72 76 85 81 81 82 82 80 81 80 79 80 77 79 71 64 62 58 59 59 59 58 55 54 47 50 49 43 42 35 37 39 35 33 40 42 42 42 36
78 77 78 79 77 79 79 76 81 76 77 81 81 83 88 85 89 86 85 84 79 75 73 70 63 59 66 63 62 65 58 53 50 51 45 42 50 43 37 38 34 32 41 40 41 40 40
72 77 82 83 84 85 87 86 85 84 84 83 84 86 87 88 89 91 94 88 85 79 72 66 66 63 69 62 60 67 63 56 47 43 43 49 47 45 36 37 35 30 41 37 39 36 34
77 76 78 83 90 90 88 92 92 94 93 91 89 89 84 86 87 92 91 92 91 88 83 68 77 68 68 65 59 68 58 52 52 48 49 48 49 45 37 36 34 31 38 31 37 34 31
90 86 82 82 80 88 93 95 96 99 100 102 100 95 94 94 94 96 94 94 93 90 85 78 73 68 74 71 67 67 62 56 52 50 53 46 52 45 40 40 34 31 34 34 34 32 28
86 85 89 89 90 87 88 93 100 103 106 107 108 109 104 102 102 98 99 102 100 96 87 78 76 76 77 71 69 70 69 66 63 60 56 51 51 45 46 40 34 31 34 36 34 33 27
87 87 87 88 88 91 95 96 96 102 109 111 114 115 112 110 112 108 106 105 108 95 83 79 82 80 82 81 81 80 80 77 72 69 63 60 58 57 50 43 38 30 33 37 35 33 26
89 88 89 89 90 92 93 92 98 99 105 110 114 114 119 119 121 117 116 115 111 97 97 93 99 98 94 90 89 91 87 81 79 76 71 65 61 59 55 44 41 30 33 35 34 31 27
85 87 89 91 91 92 92 93 95 96 97 101 105 108 111 115 124 121 125 123 112 109 105 102 112 115 101 94 93 93 93 88 85 82 79 71 62 64 56 47 42 33 36 31 37 30 28
85 85 86 88 89 90 89 89 89 89 91 93 95 96 97 105 112 107 106 102 111 116 119 118 125 120 114 110 103 100 99 91 88 86 86 77 71 69 51 48 45 35 36 32 36 33 28
83 83 83 83 83 82 82 82 83 84 86 89 90 88 90 97 99 93 90 95 102 101 110 108 111 120 114 117 112 109 105 97 91 85 86 79 70 61 63 45 49 43 36 35 35 35 32
78 77 76 76 76 77 77 78 80 82 85 87 86 81 85 89 86 82 81 87 93 90 88 91 97 105 106 112 115 114 108 105 99 96 93 81 71 68 53 50 52 47 38 35 32 34 33
68 69 70 70 70 70 71 72 74 76 79 82 80 78 81 82 73 75 79 79 80 78 79 81 88 91 100 92 94 98 102 101 99 90 85 76 69 58 52 53 52 48 42 38 36 35 33
61 63 64 65 66 66 66 68 69 71 73 77 76 71 71 71 71 70 71 70 75 76 75 76 79 81 80 74 80 82 90 88 86 77 71 70 59 56 46 52 54 50 48 42 43 34 35
59 60 62 62 62 63 64 65 66 68 72 76 68 61 63 63 62 67 65 64 67 64 61 64 70 70 73 70 70 72 79 83 80 75 71 61 58 56 53 55 56 53 52 47 40 40 32
54 56 56 57 57 56 57 58 60 63 67 69 56 55 58 58 57 58 55 54 59 53 56 64 66 69 66 65 67 72 80 77 76 70 65 63 65 63 61 58 55 55 50 47 42 42 39
51 52 52 53 53 54 55 55 57 60 64 57 48 51 49 49 47 45 45 51 51 49 50 55 59 59 53 59 68 72 75 79 70 63 65 67 74 66 59 62 59 54 47 43 45 45 44
47 47 48 48 49 50 51 52 54 56 58 53 49 52 44 41 42 43 49 51 48 49 46 51 50 47 54 73 70 74 75 76 66 67 70 71 79 70 64 65 64 51 50 47 46 45 45
42 43 45 46 47 48 50 51 53 54 55 50 49 44 41 41 44 44 49 51 46 47 42 47 45 56 68 69 74 75 75 76 70 72 75 77 83 75 67 68 56 55 54 56 53 49 49
44 43 43 44 45 47 48 50 52 53 54 53 50 46 44 44 36 48 50 50 51 49 47 47 53 61 69 67 74 69 78 73 72 80 82 84 84 80 71 68 55 51 58 51 57 51 49
43 45 47 49 50 52 53 54 56 56 56 55 52 49 48 43 50 50 50 50 54 52 53 53 57 61 68 64 68 71 76 80 83 87 83 86 87 82 75 69 70 65 60 57 51 52 55
46 48 50 52 54 56 57 58 60 60 60 59 55 52 50 49 52 54 54 54 56 55 53 52 54 58 67 64 69 72 77 78 77 78 80 86 90 82 78 70 67 70 69 68 54 51 56
46 47 48 50 52 54 56 58 60 61 61 60 56 52 55 56 54 61 57 57 57 59 56 54 51 61 67 66 69 76 79 77 73 73 77 84 86 83 79 69 70 71 73 68 63 62 60

GFSGBSN_250_spd_078.txt.gz
Wind_Speed
85 84 84 84 79 71 68 72 75 76 77 73 77 77 77 78 71 69 66 66 59 55 55 55 43 43 46 45 46 42 37 32 31 33 31 28 33 32 29 26 31 34 31 32 43 46 54
88 89 88 88 81 80 76 67 71 75 78 77 71 73 76 77 76 76 70 66 63 58 55 57 46 43 47 49 42 43 43 41 43 40 36 32 33 35 36 28 33 33 29 30 40 45 50
95 99 94 93 88 87 82 79 72 71 74 75 82 79 76 76 79 74 76 73 73 65 60 53 52 44 50 56 46 47 50 51 48 42 38 38 33 36 38 34 31 30 30 29 40 42 48
100 98 99 98 98 95 92 88 83 80 75 73 78 80 81 75 76 79 76 76 75 68 63 56 52 48 50 56 54 55 55 57 45 36 42 45 35 39 43 44 41 27 31 27 37 40 47
104 104 101 99 100 101 96 90 87 86 88 83 75 78 83 83 76 75 78 80 77 69 67 62 59 55 63 62 55 52 51 52 45 43 46 45 39 45 42 41 38 31 32 28 34 39 45
108 104 100 100 101 98 89 86 88 87 85 84 77 77 76 81 82 74 73 82 82 76 68 67 64 60 62 69 63 57 53 50 46 45 51 45 39 48 47 41 40 36 29 27 38 34 39
112 105 101 100 100 93 84 83 83 81 83 82 81 77 75 78 80 82 78 75 76 71 70 70 62 62 62 67 68 63 56 51 49 47 50 42 48 49 41 42 41 42 28 25 30 31 34
107 106 102 101 90 84 82 81 84 81 81 84 81 81 73 75 78 80 78 79 77 72 70 68 68 65 67 64 62 68 59 54 53 51 48 49 46 44 37 36 43 41 30 25 26 32 30
107 107 100 91 85 80 81 80 82 81 80 79 78 78 73 73 77 81 82 82 78 78 71 70 71 67 71 65 61 68 63 62 55 54 56 49 51 43 32 38 45 42 34 25 24 31 29
106 102 95 88 83 76 73 78 81 81 83 82 82 81 79 83 83 80 83 86 86 82 82 69 77 70 72 70 62 69 65 64 58 55 55 48 50 43 38 40 45 34 34 27 24 29 27
102 98 95 89 86 79 77 73 80 87 88 90 88 89 86 88 89 86 84 83 83 82 87 80 78 79 76 75 69 73 71 65 60 63 55 54 55 45 39 42 40 33 33 31 24 27 28
100 98 95 92 90 85 81 81 81 79 82 90 93 93 95 94 97 93 90 88 86 85 75 77 76 77 76 76 74 75 73 69 66 68 62 56 56 48 41 44 42 42 37 40 27 27 30
100 99 97 95 94 92 88 87 86 89 89 86 91 95 98 101 105 100 101 96 94 85 76 78 78 76 75 77 79 79 77 70 69 69 64 61 57 54 50 45 46 48 43 39 35 28 25
93 92 91 89 90 91 90 90 91 90 91 93 93 93 93 101 111 108 107 108 100 88 86 87 87 86 80 83 84 84 83 78 74 75 69 65 58 58 57 55 55 53 51 41 39 28 25
87 87 85 84 84 85 85 88 90 91 92 93 94 92 93 98 106 107 114 105 103 99 94 95 98 98 92 88 90 90 83 79 78 75 72 71 65 67 66 65 62 56 52 49 39 30 26
77 81 83 82 80 80 81 83 85 88 91 93 92 90 88 97 96 95 98 95 101 109 109 107 106 105 97 97 92 91 90 83 77 76 78 77 73 69 68 69 65 62 59 54 40 38 28
71 74 78 79 78 76 78 79 80 82 85 89 88 85 88 90 88 86 78 87 94 107 111 114 112 110 109 105 104 100 94 92 92 90 90 84 80 76 75 75 69 64 58 45 40 40 34
69 70 73 74 75 76 76 77 78 81 84 82 79 70 80 82 80 74 70 79 88 88 92 104 105 103 117 120 111 108 102 97 102 100 98 92 91 81 70 71 67 68 61 49 44 43 40
66 67 67 70 70 72 74 75 77 79 81 81 76 73 76 77 69 69 73 75 80 84 83 84 88 88 97 111 101 107 106 109 112 111 104 103 102 94 89 85 77 73 67 65 50 49 40
61 62 62 63 66 68 70 71 73 75 76 76 72 70 68 69 67 68 70 72 73 77 77 74 77 75 83 95 87 86 90 91 98 99 101 107 105 97 95 83 82 72 63 56 53 46 44
56 58 60 60 61 62 65 68 70 71 74 73 66 62 64 61 64 68 68 68 69 69 70 67 70 73 76 78 78 74 80 81 84 83 83 92 87 83 79 77 82 76 65 56 54 48 44
48 52 55 57 58 59 60 62 64 66 69 63 56 57 59 59 60 59 59 57 60 66 64 64 65 72 64 69 72 73 71 75 78 79 79 81 75 73 73 71 73 63 55 61 55 49 44
42 44 47 49 53 55 56 57 60 62 63 53 50 54 54 55 56 54 52 57 59 58 54 59 63 62 60 64 62 67 67 71 70 78 73 69 69 67 60 64 63 56 55 59 55 47 46
40 41 42 43 45 47 48 50 51 53 49 45 47 49 45 48 48 50 55 56 55 55 57 57 57 59 61 55 56 58 61 67 71 74 76 63 61 62 59 63 64 48 60 57 54 51 48
38 39 41 42 43 44 45 47 48 49 46 42 47 41 41 45 47 47 48 47 51 53 52 52 54 57 52 48 52 53 59 65 65 70 77 64 65 63 59 63 55 63 60 58 58 55 48
36 37 39 40 40 41 42 42 43 43 43 42 42 38 39 44 37 44 44 43 43 45 48 48 51 53 46 41 45 49 54 58 63 72 72 66 54 55 57 64 60 63 61 61 62 55 51
36 37 38 39 41 41 42 43 43 43 43 43 38 39 41 37 41 39 39 41 44 50 51 50 54 49 39 39 42 50 56 61 67 67 70 60 53 58 59 67 67 68 65 66 66 52 56
37 39 40 41 42 43 43 44 44 44 46 44 40 40 39 38 41 41 44 44 46 48 48 56 52 46 38 37 43 50 56 57 60 66 67 58 57 62 69 72 73 71 65 65 62 65 64
40 41 43 45 47 48 49 50 50 50 51 48 46 42 43 44 44 47 50 50 53 57 53 52 49 44 37 36 42 49 56 57 61 68 68 68 69 69 74 73 78 74 72 66 63 60 65

GFSGBSN_250_spd_081.txt.gz
Wind_Speed
94 93 93 93 92 91 90 89 90 89 80 75 77 74 72 75 75 75 73 73 75 70 65 61 57 52 48 52 52 41 44 42 41 42 38 31 37 45 38 32 34 37 45 38 34 36 36
84 95 98 98 96 93 94 95 92 91 88 85 77 78 73 75 75 77 76 77 73 73 74 67 60 55 50 57 51 44 48 45 43 44 44 42 41 45 35 36 36 40 45 40 39 36 35
97 94 97 99 99 97 96 96 95 95 93 91 87 81 76 74 80 75 77 75 75 74 72 67 66 55 52 64 51 51 48 48 45 44 42 46 48 41 38 35 39 42 43 42 40 34 32
101 108 107 102 102 100 99 95 94 96 93 91 87 85 82 80 79 82 73 79 74 71 69 67 63 60 58 66 57 55 51 54 51 45 48 46 47 41 41 40 39 42 46 44 44 33 33
111 117 116 109 103 101 102 99 96 94 95 93 91 87 84 84 81 80 75 72 75 75 69 65 64 62 64 66 60 55 56 55 51 50 50 43 42 41 44 43 40 45 46 41 44 35 31
124 121 108 105 105 106 104 102 102 99 96 95 93 88 85 83 80 82 77 76 71 74 72 63 64 66 65 68 66 63 56 61 58 55 50 47 44 44 43 42 42 42 43 42 46 34 30
119 108 104 103 105 110 108 108 104 103 100 99 94 89 86 80 76 77 83 81 76 69 71 67 61 65 70 70 67 64 62 59 61 61 60 54 44 47 43 38 39 40 36 40 47 34 30
111 105 102 102 104 104 110 111 108 107 99 97 92 89 85 78 75 77 81 80 74 73 63 74 63 62 68 73 66 69 65 66 61 58 61 54 46 49 42 40 40 40 32 37 42 32 28
109 104 102 100 101 101 104 96 97 97 90 90 90 88 82 77 77 77 78 75 77 72 65 71 69 64 74 65 66 71 66 66 65 62 57 55 56 49 41 43 44 44 36 30 38 32 28
104 100 102 101 101 100 100 100 97 98 94 90 88 83 80 78 80 76 76 77 77 77 67 69 70 64 69 67 62 76 69 69 65 58 61 55 56 52 42 43 42 47 41 31 27 28 27
106 102 99 100 99 100 99 99 99 96 93 89 82 81 78 76 85 82 77 76 79 82 68 67 70 70 71 69 65 72 73 72 66 64 58 53 59 55 42 49 43 49 45 37 31 30 34
105 103 100 96 96 95 95 96 95 92 90 86 81 79 75 78 82 82 86 82 77 79 67 67 66 69 74 77 77 73 73 69 69 69 63 58 64 57 50 51 47 53 47 40 34 34 36
104 102 99 97 95 93 93 92 91 89 86 85 81 78 73 77 84 86 86 86 85 79 72 75 76 75 73 76 74 79 80 75 71 71 66 64 63 63 57 54 54 53 53 46 37 37 38
99 99 99 97 93 92 92 93 92 92 90 88 83 81 76 81 83 88 90 91 85 82 83 84 85 83 80 75 76 75 74 74 71 69 67 66 63 60 60 57 59 56 57 53 42 45 42
88 87 87 86 87 86 86 86 87 88 87 86 84 82 78 83 86 83 87 89 90 88 89 91 90 92 88 83 80 80 76 73 72 70 68 66 63 64 63 63 64 59 56 55 49 42 39
79 77 76 76 76 78 78 81 83 84 83 82 80 79 80 83 83 86 88 81 80 83 91 96 98 99 96 90 85 83 80 77 76 73 71 67 65 69 70 67 62 62 61 58 53 43 39
70 69 69 69 69 70 73 75 76 79 80 81 75 72 78 80 81 81 78 80 83 82 88 88 99 106 103 96 93 86 83 82 81 79 76 73 69 70 74 69 68 67 64 58 56 46 44
62 60 61 62 65 66 68 69 72 74 77 76 72 67 72 77 73 72 72 75 78 78 81 82 86 91 103 108 101 98 91 90 87 85 83 82 76 70 69 69 64 62 63 63 60 56 48
55 55 55 57 60 64 66 68 69 71 72 72 67 67 69 74 57 57 65 72 74 75 78 78 80 83 88 89 95 104 98 99 97 95 92 89 83 79 77 76 71 74 72 69 65 59 51
51 51 52 54 56 60 63 65 67 67 68 67 66 66 66 63 54 55 61 62 61 68 72 73 74 81 80 84 82 81 88 94 106 101 97 98 94 90 84 84 85 79 70 66 64 59 51
48 48 49 50 54 56 59 61 63 63 64 62 57 56 61 56 59 60 63 64 63 68 70 70 69 78 77 76 80 76 81 81 84 92 109 106 100 96 95 92 94 91 84 77 74 71 74
45 45 46 47 48 51 55 56 60 60 61 53 47 51 59 58 62 62 61 60 63 68 67 68 63 71 69 66 72 75 75 75 75 75 80 91 98 107 104 99 99 99 97 93 78 70 68
41 41 42 43 45 47 51 54 54 54 49 44 48 55 55 56 58 53 54 63 67 65 61 62 60 64 64 67 67 68 61 68 67 74 73 79 78 82 87 97 103 108 95 92 85 77 74
38 39 39 39 41 43 46 50 52 50 43 49 51 54 49 50 50 54 56 59 60 58 57 54 51 57 61 58 58 60 58 62 63 68 70 72 79 70 70 80 88 75 77 76 73 67 62
35 36 37 38 40 41 42 45 47 46 46 48 51 47 46 50 53 54 53 56 58 55 53 55 53 57 51 48 49 51 52 53 57 62 67 72 74 71 74 74 74 73 67 66 62 52 53
35 35 35 36 38 40 42 43 43 40 43 46 45 47 48 49 48 50 51 54 54 51 54 55 54 53 48 47 46 46 47 51 53 62 68 70 74 73 65 65 63 61 64 66 58 48 54
33 34 34 35 37 38 39 40 40 39 40 43 41 43 46 44 48 49 49 50 52 52 54 54 50 46 44 41 42 44 45 49 52 60 64 67 71 68 66 57 58 59 63 62 58 46 60
31 32 33 34 35 36 37 38 38 38 40 39 43 43 43 45 47 46 47 47 48 47 47 50 45 44 42 38 39 43 42 46 53 59 64 67 68 72 65 50 54 59 64 61 54 62 59
30 31 32 33 35 36 36 36 37 38 39 40 38 39 42 44 44 44 45 47 48 48 50 47 43 39 39 35 34 39 40 44 54 59 67 70 74 75 59 52 56 59 62 62 61 65 58

GFSGBSN_250_spd_084.txt.gz
Wind_Speed
87 83 84 83 86 85 85 87 87 82 80 81 85 83 86 84 83 77 69 70 67 64 64 67 67 65 62 61 65 51 55 49 46 43 42 37 34 39 43 42 42 47 39 38 41 41 43
91 92 91 89 90 93 92 91 91 93 88 85 82 85 87 86 86 80 73 72 71 70 63 66 66 67 62 65 66 58 57 55 47 46 44 42 38 40 45 43 44 43 39 40 40 41 40
102 103 100 97 95 94 92 94 94 93 90 92 95 96 90 88 86 86 80 76 71 65 63 61 67 67 66 69 70 66 58 57 53 48 48 44 42 43 46 38 42 41 37 41 39 39 39
108 105 109 109 105 104 105 101 97 97 99 97 106 98 91 87 85 84 79 75 71 66 65 60 63 69 66 70 67 66 60 61 56 54 49 46 45 47 48 42 39 40 41 40 38 37 39
110 111 114 113 107 107 107 110 107 103 107 104 98 91 87 88 85 85 81 80 73 69 67 63 64 65 67 67 67 65 61 64 60 56 55 49 49 50 50 46 41 39 41 40 36 36 38
104 109 114 111 112 111 112 113 112 112 107 95 88 87 87 88 87 85 84 82 75 67 65 63 66 66 62 67 67 64 61 59 60 61 56 49 50 50 50 45 41 41 40 40 35 34 37
111 113 114 111 113 118 118 121 116 106 98 88 86 84 85 87 90 86 87 84 78 69 62 62 66 68 65 64 67 63 62 60 61 61 58 55 48 56 59 52 48 43 40 37 36 34 38
111 115 116 117 121 122 123 114 107 101 92 87 84 81 82 83 82 82 87 88 74 65 62 62 71 72 73 67 61 65 64 65 64 63 61 55 50 58 54 50 46 44 42 37 34 33 34
121 123 126 129 131 125 112 106 100 94 92 85 82 81 79 77 79 77 76 72 66 64 62 67 65 69 72 62 59 65 64 67 66 65 63 58 56 57 55 49 42 45 43 40 34 37 31
131 133 135 129 120 115 109 104 97 93 89 81 80 79 80 76 74 73 76 70 70 66 60 69 65 67 69 61 62 69 65 65 61 61 66 59 59 60 58 57 49 46 44 38 32 37 33
127 122 120 115 109 104 98 92 86 83 81 76 76 76 75 75 76 73 72 71 69 69 61 64 66 66 66 67 66 67 67 65 63 64 65 59 64 64 61 59 52 49 43 38 33 36 37
113 108 102 100 97 95 94 88 83 80 78 76 73 73 71 71 72 72 72 69 68 72 64 60 60 69 66 64 67 65 67 66 64 67 64 63 62 61 58 59 52 50 47 43 37 35 37
98 98 96 95 94 93 91 90 85 79 76 76 74 72 69 69 72 69 70 67 67 62 64 70 67 66 69 68 67 67 70 64 66 64 66 64 63 61 57 54 53 51 52 45 41 37 42
96 95 94 93 91 89 87 86 82 79 75 75 75 73 71 73 71 69 67 66 63 62 64 72 72 72 73 69 69 67 63 67 69 67 64 64 60 60 59 58 59 55 53 44 43 40 42
91 88 86 84 85 83 80 78 77 75 73 72 72 72 72 77 74 71 68 60 63 65 65 71 80 78 76 72 74 73 67 66 70 74 75 72 64 65 64 62 58 53 49 51 46 39 39
84 80 77 76 74 73 71 67 68 67 69 68 68 70 73 74 75 75 69 62 65 66 65 70 77 79 82 78 77 77 75 74 71 67 66 71 71 71 70 68 66 58 55 54 47 39 40
71 69 69 68 66 64 64 63 64 65 65 66 65 63 72 73 71 70 63 65 69 70 70 72 79 81 80 86 82 84 82 81 76 74 70 67 65 63 64 61 62 60 55 50 49 43 45
65 63 63 62 61 62 62 61 62 63 63 63 63 59 70 71 68 65 58 62 66 74 78 77 78 80 85 85 86 85 89 88 85 81 77 73 73 71 70 67 65 63 59 58 51 42 43
59 59 58 57 57 56 57 57 58 59 59 63 59 62 66 66 60 58 58 61 66 71 76 79 80 81 83 81 78 81 87 94 93 88 89 84 78 75 70 70 69 67 64 60 52 48 42
52 52 53 53 53 52 52 53 54 55 57 57 58 58 60 58 55 58 61 61 63 68 71 72 77 81 83 80 75 74 75 81 96 97 93 91 88 82 78 73 78 70 68 65 60 54 51
48 47 47 48 49 48 48 49 51 53 52 48 48 50 55 52 58 60 64 61 63 63 66 68 68 72 75 71 70 71 74 76 80 82 95 98 94 93 84 80 84 77 75 74 67 60 57
43 43 43 44 45 45 45 45 46 48 46 36 42 51 55 53 59 59 59 57 62 63 65 64 62 70 65 60 66 72 70 69 69 66 69 78 95 97 90 92 86 89 87 81 70 69 67
39 40 40 41 42 42 42 41 41 41 36 35 45 50 49 53 56 55 55 62 64 64 59 62 62 65 58 63 61 62 62 63 65 68 68 69 73 83 88 103 99 101 91 86 84 79 78
35 36 36 38 38 38 38 38 36 34 33 39 41 49 45 50 51 54 63 61 62 61 63 62 61 58 60 55 58 61 60 61 63 65 67 66 67 71 69 82 89 90 101 100 94 88 84
31 32 34 34 35 35 34 34 32 31 34 38 42 41 42 46 51 53 54 57 59 60 59 59 57 60 51 51 54 55 57 57 62 63 64 66 67 66 67 74 77 74 84 102 106 94 93
31 32 32 32 32 33 32 32 30 30 33 36 38 39 38 41 42 48 53 54 53 55 54 53 54 50 46 46 48 49 51 53 58 59 62 63 64 63 69 68 67 65 74 83 92 88 89
30 31 31 32 32 31 30 30 30 31 32 33 37 38 38 40 40 42 45 48 50 51 49 49 47 44 45 45 45 45 48 51 54 56 58 58 59 63 66 60 61 59 63 67 74 68 73
29 29 29 29 30 30 30 29 30 32 31 33 36 38 41 43 44 44 45 46 49 49 48 49 46 48 47 46 46 47 47 47 46 49 51 53 60 63 62 61 62 58 59 64 65 67 64
26 26 26 27 27 28 28 29 32 33 33 34 35 38 41 44 43 44 46 49 51 53 52 51 45 44 44 43 43 45 48 47 46 48 52 52 56 60 64 61 62 59 60 65 59 63 59

GFSGBSN_250_spd_087.txt.gz
Wind_Speed
85 85 87 88 87 87 86 84 79 80 86 82 83 81 88 87 82 82 81 78 76 71 67 65 63 59 55 51 60 59 60 59 59 58 52 48 42 40 36 35 30 39 38 36 38 35 37
93 92 91 92 90 90 88 88 89 89 90 94 87 91 89 88 85 84 82 86 83 79 78 70 65 63 60 55 58 60 61 61 59 59 55 49 45 42 40 39 34 36 38 33 32 34 39
94 94 93 95 93 92 95 96 96 97 99 100 96 97 96 94 94 88 86 86 85 86 78 72 66 61 54 61 56 59 58 60 59 60 60 53 46 43 45 42 40 39 38 33 31 35 35
103 99 99 98 97 97 99 101 101 101 104 106 107 106 104 100 100 95 96 93 85 86 75 68 64 57 54 62 57 59 59 62 62 62 61 58 50 48 47 44 44 42 41 36 34 33 35
100 106 106 107 110 106 105 107 107 109 110 107 103 102 102 99 99 101 97 98 92 78 73 65 65 61 59 63 62 59 59 66 65 62 60 59 53 51 50 49 46 44 43 41 33 34 35
100 101 103 107 107 107 107 109 112 108 104 105 105 107 105 105 99 97 100 98 89 74 68 65 62 62 64 65 63 61 60 63 68 63 61 55 53 50 52 57 49 42 41 43 35 35 35
93 94 94 100 104 105 106 103 108 108 107 110 105 107 105 100 101 91 79 78 73 64 64 65 65 64 64 66 64 62 63 65 61 63 60 58 52 48 60 57 47 41 44 45 41 33 34
92 91 95 94 100 101 103 103 107 109 107 109 108 109 106 101 87 83 76 69 67 59 58 59 60 63 71 67 59 60 67 66 63 60 59 54 46 55 58 56 49 41 42 47 39 31 34
103 101 103 102 102 103 103 106 108 108 110 109 111 110 102 91 84 76 71 65 63 57 53 64 58 59 62 59 56 62 63 67 64 53 57 55 54 57 56 56 51 47 44 44 39 30 32
110 113 113 113 114 110 111 113 116 114 117 111 105 97 89 84 79 70 67 64 60 56 52 60 56 47 53 48 55 64 58 67 64 57 59 57 55 59 58 55 54 48 48 49 41 33 33
115 117 117 122 121 121 118 118 117 114 108 102 96 88 79 75 71 64 62 59 58 57 53 56 53 49 51 53 55 59 58 61 65 64 59 56 63 63 61 61 60 54 53 49 43 34 32
115 116 114 113 113 110 106 105 100 98 97 91 85 78 72 70 68 64 62 58 57 59 53 54 52 50 53 54 54 58 58 58 66 67 62 60 62 63 63 61 57 54 55 51 45 37 32
100 101 101 101 100 99 96 94 91 91 90 87 84 78 69 67 68 66 63 57 58 52 51 52 53 54 53 55 58 60 62 64 63 66 62 62 62 63 56 55 55 52 53 51 48 39 38
98 96 95 95 92 90 89 88 87 87 85 83 80 74 69 69 69 68 66 59 52 46 51 50 55 56 58 59 60 62 64 64 65 64 65 61 62 59 62 59 59 54 54 50 48 42 37
93 93 91 85 83 82 81 81 81 79 76 75 71 68 67 69 65 67 66 55 49 49 51 50 56 58 59 64 62 63 56 63 62 58 63 61 59 61 53 54 55 52 50 54 48 41 36
84 84 82 78 75 74 74 76 73 70 69 67 64 61 66 66 63 67 63 54 52 53 53 56 56 60 63 68 69 69 67 59 65 65 62 61 58 60 60 59 61 61 56 53 49 42 37
71 71 69 68 67 67 67 67 64 65 65 59 56 54 63 62 62 62 55 54 57 58 58 60 61 65 69 69 74 74 73 70 68 64 59 63 55 61 60 58 59 64 60 55 52 46 42
58 59 60 60 62 61 60 59 61 60 59 54 54 52 65 60 56 55 55 57 59 62 62 65 67 69 68 67 70 77 77 76 72 67 68 63 63 68 70 68 66 67 64 63 59 56 52
54 54 54 54 54 54 55 56 57 55 52 51 52 53 58 54 49 51 54 59 61 64 65 67 69 70 72 71 69 74 78 77 76 74 69 69 68 64 65 68 71 66 66 66 61 59 48
48 48 47 48 49 49 51 51 50 51 48 46 46 47 50 51 50 53 58 63 62 65 67 65 67 71 73 75 73 71 74 84 85 81 77 73 72 71 71 70 70 66 66 64 62 57 50
41 42 43 42 43 43 45 45 44 44 41 37 39 46 49 48 56 61 61 61 63 65 65 65 66 72 77 77 76 73 73 71 79 82 83 80 77 82 80 75 74 76 72 72 68 62 54
38 38 38 38 39 39 39 39 37 37 32 34 42 47 46 51 56 59 57 59 61 64 63 65 68 72 70 73 75 75 70 67 68 72 81 85 83 84 87 89 89 84 79 73 68 66 58
33 33 32 32 33 33 33 32 32 30 32 40 44 45 43 49 52 51 53 61 65 65 63 63 67 65 66 71 65 68 66 69 69 66 69 73 82 92 91 92 95 93 87 87 83 76 68
28 28 28 28 27 28 29 30 28 30 34 38 40 37 37 45 46 52 59 62 64 64 66 65 61 60 65 58 59 62 62 63 63 67 68 69 77 80 83 89 90 82 97 91 93 87 80
24 25 25 25 26 27 28 28 27 30 33 36 34 36 42 44 51 53 54 57 61 62 62 60 62 62 58 54 52 54 55 56 59 63 64 68 69 70 69 79 75 74 84 91 95 89 90
24 23 23 24 24 25 26 27 27 28 30 32 34 36 40 41 47 54 53 54 55 57 58 61 64 62 56 51 49 50 53 55 59 61 63 65 66 59 58 65 66 72 75 77 81 87 94
22 23 24 25 26 26 26 26 26 27 28 30 32 33 34 40 44 41 46 50 51 54 58 59 61 55 49 47 47 50 53 59 59 60 62 60 58 56 61 57 56 65 70 72 72 72 81
25 26 27 27 27 27 27 26 25 26 28 29 29 33 38 40 38 43 44 47 51 52 55 55 52 44 45 44 48 52 55 54 53 56 54 54 55 57 58 52 57 66 64 64 65 70 73
24 24 23 23 23 24 25 25 26 26 28 28 30 35 37 38 42 43 45 46 48 51 51 49 46 44 45 47 49 51 52 47 48 50 50 48 48 51 51 51 56 58 58 57 59 65 65

GFSGBSN_250_spd_090.txt.gz
Wind_Speed
74 83 85 84 81 82 82 84 85 83 82 86 82 81 81 81 78 78 77 76 78 79 77 76 75 74 76 71 74 67 65 55 53 49 51 51 49 49 49 43 42 42 40 37 33 35 34
75 82 88 87 88 88 88 86 86 88 86 86 86 84 82 82 81 82 85 82 82 81 82 81 82 80 73 74 71 70 63 56 57 52 49 52 50 49 49 45 44 43 42 39 37 36 34
84 84 92 95 91 89 92 93 91 89 91 90 90 89 89 91 90 90 90 91 90 89 89 85 84 83 76 78 79 75 63 55 52 52 51 54 52 50 48 47 48 44 44 43 38 40 40
87 87 95 99 97 97 97 95 94 95 94 95 96 95 96 96 95 93 94 97 94 94 95 93 88 84 82 88 81 75 65 57 55 52 51 51 50 50 49 49 49 47 43 44 38 42 40
100 96 98 99 99 97 95 92 94 95 99 98 99 101 100 101 101 101 102 99 102 103 101 93 91 87 86 88 82 71 65 57 55 55 52 50 49 50 49 51 51 50 49 44 41 41 41
107 101 96 101 102 100 101 102 99 100 99 98 103 103 102 104 103 104 105 106 103 99 97 92 92 89 88 83 76 68 65 62 60 59 52 52 52 50 49 51 54 53 46 43 47 38 37
95 92 103 98 97 102 101 104 104 100 98 98 99 103 103 106 107 106 102 104 103 100 93 94 93 82 82 76 73 68 67 62 62 60 55 54 51 52 57 56 55 50 46 47 52 37 38
94 91 92 87 88 98 102 104 102 102 96 95 98 97 100 109 107 109 108 107 101 99 92 94 85 74 74 67 65 67 67 64 60 63 58 53 49 53 62 57 58 50 46 48 52 38 33
101 101 98 94 92 93 95 95 96 101 101 100 97 98 99 103 104 105 102 99 101 96 87 79 73 67 67 63 65 70 67 65 64 63 59 56 56 58 58 61 56 55 49 49 49 37 31
108 105 108 106 105 105 101 102 101 100 105 105 100 101 102 102 102 104 103 101 98 89 79 68 70 63 61 63 63 67 65 68 66 64 63 58 59 59 57 59 58 51 54 48 46 41 37
104 106 107 107 108 109 110 108 108 108 109 107 107 106 107 104 106 105 101 94 86 80 70 63 64 61 62 63 59 63 62 64 64 64 64 60 66 62 56 59 57 50 53 48 44 42 38
93 92 93 95 100 101 103 105 106 106 106 105 105 103 102 102 101 97 91 84 77 73 58 56 59 62 63 63 60 61 62 61 65 63 62 61 64 63 59 55 56 55 51 50 48 43 37
95 95 94 93 93 93 96 98 98 98 99 98 99 98 94 93 93 89 87 79 72 63 56 54 56 63 65 61 60 60 62 59 60 60 61 62 60 65 61 57 57 59 54 56 54 46 46
84 92 90 90 92 92 91 91 91 92 93 93 91 89 88 88 86 84 83 75 66 58 60 58 60 63 66 64 64 64 64 62 58 57 56 55 59 62 63 60 60 61 58 58 56 46 49
81 84 81 83 86 86 87 87 88 87 87 85 84 82 82 85 85 83 80 70 61 61 61 61 62 63 65 68 67 68 65 61 57 55 54 54 55 56 62 64 62 59 56 59 57 46 48
73 76 77 76 78 81 82 81 80 79 75 73 72 73 78 78 79 77 71 65 63 62 64 67 65 64 66 66 69 71 69 60 56 56 53 55 57 55 59 63 62 59 57 55 52 44 46
61 63 66 68 70 73 74 74 73 72 68 64 66 68 73 71 68 63 60 62 62 63 66 69 68 67 67 70 72 72 69 63 60 58 56 53 57 57 58 62 60 59 57 55 52 46 48
54 55 57 59 61 62 63 64 64 65 64 60 62 61 66 62 60 59 60 61 61 65 70 72 73 71 69 72 73 72 71 64 59 59 56 57 55 56 61 63 63 63 57 58 53 51 52
49 49 50 51 52 54 57 57 58 61 57 55 55 57 59 58 57 58 60 60 63 67 71 74 75 74 72 71 73 74 72 66 61 59 56 56 53 62 61 60 60 63 64 66 63 60 61
44 44 43 44 46 48 50 52 53 53 50 49 51 54 57 56 55 57 60 60 61 67 71 74 75 74 73 72 73 74 74 69 63 65 60 62 61 61 63 67 62 60 56 56 59 54 59
41 40 40 40 41 42 43 46 47 46 43 44 49 54 56 52 56 55 56 58 61 65 71 73 75 77 77 73 72 72 75 70 63 63 68 66 68 69 67 62 65 71 71 70 70 69 67
37 36 35 35 36 36 36 38 37 36 39 42 49 53 53 51 51 53 53 57 62 66 68 73 79 79 76 74 74 71 71 67 70 67 70 77 75 72 71 72 75 68 64 68 74 76 77
33 32 30 31 31 32 33 34 33 35 38 43 48 47 44 48 50 49 53 60 65 64 66 71 78 75 75 76 71 70 69 69 71 69 68 71 77 80 80 76 74 71 77 74 69 65 69
28 27 25 27 28 29 29 30 31 32 37 42 40 40 44 45 46 51 56 59 62 62 66 66 70 72 73 70 69 67 68 69 71 73 70 72 75 77 81 85 81 81 83 82 80 79 76
26 25 25 25 26 26 27 28 30 32 35 38 36 39 41 44 46 47 49 55 59 62 64 64 67 71 69 67 64 66 66 67 71 72 69 71 72 75 77 83 85 87 87 86 89 92 87
23 22 22 23 24 25 27 27 28 30 33 33 34 36 39 40 48 49 46 50 50 55 59 61 61 62 65 64 61 63 62 62 64 65 67 68 69 69 72 75 76 81 88 89 91 91 94
21 20 21 23 24 24 24 24 26 28 30 28 29 32 36 41 41 41 45 50 50 52 55 56 57 57 59 59 60 60 58 58 60 64 67 68 67 66 71 73 75 81 82 84 85 88 91
22 23 23 24 24 23 24 25 25 25 27 26 29 32 35 36 34 40 41 42 45 48 51 53 52 52 50 54 57 57 56 58 62 64 64 61 59 63 63 62 65 73 74 76 77 73 78
23 23 23 23 24 24 25 26 26 25 25 27 29 30 30 33 36 38 37 37 42 47 48 45 47 45 48 51 55 56 58 59 60 58 56 56 55 56 57 58 60 64 63 65 66 66 68

GFSGBSN_250_spd_093.txt.gz
Wind_Speed
69 74 71 69 72 76 81 81 82 85 86 85 83 80 83 82 81 85 79 75 73 73 74 74 71 70 72 73 73 72 72 73 73 73 68 56 50 53 44 45 45 50 51 45 42 38 39
78 78 77 75 72 75 76 75 78 77 80 88 86 86 82 81 82 81 78 79 78 77 77 73 75 72 75 79 82 80 77 77 77 77 70 61 53 52 48 51 48 49 51 48 43 41 38
84 82 84 82 83 84 84 87 85 87 85 89 88 88 87 87 87 85 84 83 81 81 82 82 84 84 86 87 82 84 83 84 82 81 71 67 58 51 55 50 51 53 50 47 46 40 39
90 93 93 93 95 95 96 93 95 94 93 91 93 94 92 92 90 89 89 87 87 88 89 91 90 90 88 88 88 88 87 88 85 85 81 71 64 52 51 50 50 52 49 53 51 41 40
97 95 99 97 99 102 102 102 102 98 98 99 99 95 95 97 94 94 95 96 95 92 94 94 94 93 90 93 93 91 90 91 89 85 80 73 68 55 51 50 51 53 51 50 50 41 39
98 93 97 99 100 102 103 103 105 105 104 105 103 106 98 99 95 93 94 95 95 94 95 94 94 95 95 96 97 97 96 93 88 82 82 76 67 54 50 50 49 57 55 52 44 47 42
96 99 102 101 100 104 104 106 108 111 110 110 107 108 105 101 101 100 101 98 97 99 94 95 98 98 99 97 98 99 93 94 91 86 84 74 67 51 54 52 57 59 56 51 50 49 39
97 101 101 103 100 101 104 107 102 101 105 109 104 102 106 102 101 103 104 101 104 101 98 101 101 101 101 103 100 103 100 96 88 83 81 68 60 56 59 57 55 56 56 54 56 49 40
106 109 106 107 108 107 105 105 103 103 99 99 96 94 101 99 102 99 102 103 106 104 103 97 104 101 97 100 98 99 87 88 88 77 71 65 64 61 61 58 55 55 57 56 56 50 43
110 112 111 107 110 112 111 108 108 107 105 103 101 98 96 100 100 100 101 106 101 105 107 102 98 98 94 97 91 89 86 88 78 67 69 63 68 63 62 58 58 55 55 61 60 53 46
108 104 104 106 105 104 106 105 107 107 107 106 105 106 106 104 103 103 105 107 104 104 110 105 94 94 92 94 86 86 77 75 68 68 68 58 66 63 61 58 59 55 58 54 59 57 50
101 99 98 96 94 96 96 99 99 102 102 102 102 104 106 108 112 109 110 108 105 107 108 106 95 92 92 91 86 77 72 70 67 68 64 64 68 67 62 65 59 58 57 54 59 59 47
96 95 94 92 94 97 97 97 96 94 97 97 97 99 101 103 107 111 110 111 110 107 107 102 93 89 87 81 75 70 67 67 67 66 63 70 70 70 68 67 62 61 58 56 55 57 47
89 91 88 91 91 92 89 90 90 91 91 91 94 95 96 97 97 99 100 102 102 94 96 99 88 79 80 72 69 66 66 67 68 66 65 66 68 71 70 68 65 65 63 53 54 55 50
86 88 84 86 81 79 81 84 84 86 88 86 85 89 93 93 91 91 90 87 83 89 89 81 74 74 74 69 67 67 67 69 67 66 66 64 66 61 66 69 65 64 61 59 55 52 50
86 77 79 75 72 71 71 74 76 77 79 80 83 83 82 85 87 86 81 74 80 85 78 71 76 73 71 70 67 69 68 70 68 67 65 65 63 61 62 63 62 60 64 63 59 57 56
80 67 66 64 62 62 63 66 67 70 71 73 76 76 76 76 78 76 75 77 81 78 73 74 78 72 73 69 70 73 71 72 68 66 64 64 60 59 58 57 60 61 60 63 60 54 53
69 62 58 55 54 53 54 56 59 61 62 66 69 69 71 70 69 67 68 73 78 77 75 76 77 76 75 73 73 75 74 71 69 68 65 63 61 62 61 55 60 58 59 62 64 59 55
62 55 53 50 50 48 49 50 52 53 54 58 60 62 64 65 62 65 70 74 71 71 71 74 76 75 74 74 75 76 72 71 73 70 65 64 62 60 59 59 58 54 52 56 61 60 56
58 52 49 46 45 46 46 45 46 47 50 52 54 56 61 61 63 65 68 67 65 66 68 71 74 72 74 75 77 76 74 74 71 69 68 66 61 61 60 62 58 57 57 60 56 58 61
51 49 45 43 40 41 41 42 43 42 45 47 51 55 56 56 58 59 60 59 61 63 66 67 68 68 73 73 75 77 77 75 75 69 68 68 65 68 66 62 60 64 65 65 60 61 61
46 44 41 39 37 36 36 37 37 38 40 44 49 53 52 52 53 53 52 57 57 59 62 62 65 66 68 70 74 81 78 76 75 71 71 69 69 66 67 66 68 62 64 62 64 65 68
41 39 36 34 33 32 31 31 33 35 38 43 46 46 48 47 48 47 49 51 55 56 57 58 60 62 67 72 70 76 76 74 74 73 74 73 69 66 65 68 64 59 70 62 63 65 69
37 35 31 30 30 29 28 28 30 33 37 39 41 40 42 44 43 46 46 48 51 51 54 55 57 59 66 67 67 76 77 76 75 74 74 74 72 69 67 69 69 70 70 68 70 72 68
32 31 29 27 26 26 26 26 29 31 34 36 35 36 37 37 40 41 45 49 49 49 51 52 53 56 60 65 67 72 77 76 74 73 71 74 73 72 72 71 71 75 75 73 71 71 71
29 28 26 25 24 24 24 25 26 28 30 31 31 31 34 34 40 38 40 41 43 44 45 50 52 55 58 61 64 69 74 75 74 72 73 72 73 72 72 74 80 80 78 78 77 81 82
26 24 23 23 22 23 24 24 26 27 27 27 27 30 33 35 32 34 38 40 39 41 44 45 51 54 54 56 61 67 71 72 73 72 72 73 73 73 74 73 74 78 82 84 85 87 86
23 22 22 22 22 22 23 23 25 26 27 26 28 32 32 27 27 34 34 34 35 39 41 44 47 48 49 52 59 64 67 70 71 73 72 72 71 71 72 70 71 74 77 79 82 86 90
23 22 23 23 24 23 23 23 24 24 23 24 27 26 25 26 30 32 32 31 34 36 37 37 41 45 47 51 57 61 64 66 69 70 70 69 69 68 67 67 68 73 77 80 82 83 84

GFSGBSN_250_spd_096.txt.gz
Wind_Speed
77 78 79 79 77 77 76 75 74 77 81 86 86 85 87 84 85 82 77 75 74 74 76 77 80 78 75 68 72 65 68 66 66 63 64 68 67 68 66 61 58 48 55 47 46 43 46
84 84 83 83 83 80 79 83 83 85 83 79 85 87 87 90 86 88 87 87 86 87 81 78 81 77 74 68 74 73 71 69 68 69 73 76 74 72 71 71 62 57 49 49 46 47 43
88 89 88 87 87 88 88 88 87 87 89 85 86 84 84 83 84 83 84 83 83 90 88 83 80 76 74 79 74 75 74 72 75 78 80 80 79 76 77 76 68 57 46 55 48 47 46
92 95 93 96 97 96 93 91 92 94 94 92 92 92 93 93 91 93 92 89 88 85 88 90 85 82 77 80 79 78 77 78 82 82 83 82 79 78 80 78 74 59 50 53 54 51 47
97 93 99 102 103 102 104 102 100 99 100 102 104 105 104 102 101 101 98 99 95 91 91 91 90 90 85 83 82 84 84 87 88 87 86 85 85 83 81 81 68 60 54 55 56 55 47
95 93 98 100 103 109 111 106 110 107 103 107 107 107 104 105 109 106 103 101 102 97 95 94 95 90 93 91 90 88 90 90 89 89 89 89 90 89 86 85 74 69 59 61 54 56 51
93 94 99 102 102 107 109 112 107 110 111 111 110 108 107 108 110 106 103 107 106 107 99 100 98 94 92 93 89 90 94 92 91 90 91 94 95 87 86 85 80 67 61 59 55 54 52
90 93 92 97 101 102 107 108 109 112 113 113 117 111 116 113 114 111 110 111 105 113 105 106 104 95 98 99 90 92 92 89 93 93 95 98 95 92 89 86 75 67 62 61 56 54 57
82 80 80 88 95 98 105 110 113 114 117 116 115 115 114 116 117 116 116 114 112 114 108 100 106 102 101 101 99 97 97 96 96 98 98 97 94 93 82 70 67 63 55 64 55 55 60
88 90 93 98 101 105 107 111 113 114 115 116 115 117 118 119 122 119 120 117 116 109 112 96 103 101 98 101 100 97 100 98 96 93 96 92 87 81 76 70 68 55 62 65 57 54 54
101 106 102 104 106 110 111 110 109 110 108 110 111 112 113 118 122 120 121 113 115 112 113 105 98 92 99 102 99 100 99 97 96 96 98 84 83 78 70 65 59 52 67 66 57 54 54
105 105 103 98 97 98 100 100 100 102 102 105 106 105 104 109 109 113 112 115 114 116 112 103 105 96 96 98 98 99 95 99 97 96 94 82 81 78 71 58 55 57 67 65 60 58 50
91 92 94 93 94 93 94 95 98 96 99 102 100 98 97 101 104 105 106 106 107 107 103 107 112 102 98 99 98 99 96 96 95 96 88 83 79 76 63 57 56 61 69 66 62 58 45
88 88 89 90 90 89 89 91 90 92 93 93 91 88 91 95 98 97 100 100 95 88 96 107 113 98 97 99 101 98 101 100 94 87 87 80 69 63 56 53 57 62 69 68 63 57 49
88 88 86 86 86 86 86 83 83 86 82 84 84 85 85 88 90 90 92 89 86 93 95 95 96 92 94 101 100 101 99 92 92 84 78 71 61 60 54 54 58 61 66 65 64 58 51
85 82 82 82 84 84 80 76 74 80 73 74 76 77 78 81 84 84 80 78 85 94 87 82 83 85 87 93 87 87 91 88 77 75 73 64 58 55 52 58 61 63 67 68 63 60 54
81 80 80 81 81 80 73 64 64 68 63 62 64 64 67 72 76 76 75 78 80 85 76 81 78 74 76 80 75 74 78 77 69 68 63 59 57 55 56 58 64 66 66 67 67 62 59
80 79 78 79 75 70 61 61 56 56 55 54 55 56 58 63 63 67 72 74 75 73 72 74 77 74 71 73 70 65 68 72 54 62 60 56 56 55 57 59 60 62 62 65 67 65 62
79 78 77 70 66 64 57 55 51 51 49 47 49 49 53 55 55 59 63 67 68 68 68 69 73 72 73 69 65 64 70 59 59 61 55 58 60 59 61 62 62 59 62 59 60 63 60
78 76 68 62 61 58 52 51 47 46 45 43 44 47 49 48 51 51 55 58 62 64 64 64 69 68 70 66 65 64 62 56 61 59 60 62 60 58 62 64 61 61 58 52 55 57 58
73 66 63 59 54 51 48 45 43 41 40 41 44 45 44 44 47 49 50 54 55 58 60 62 63 64 66 65 66 65 60 57 63 60 63 64 62 62 65 61 61 64 59 56 57 59 58
66 62 57 52 48 46 45 41 38 37 38 40 41 39 38 40 42 43 44 49 50 52 53 55 57 61 60 60 61 60 61 60 63 60 63 64 63 63 66 64 60 61 59 59 58 62 62
60 55 49 46 43 42 40 36 34 35 36 38 37 33 34 34 37 39 40 40 43 44 47 49 51 53 56 58 52 54 45 50 60 58 61 64 68 66 67 69 61 56 57 64 60 63 61
52 47 44 41 38 37 35 34 33 33 33 32 29 29 32 30 32 35 34 35 36 37 40 41 44 48 47 48 49 52 55 57 63 63 68 70 70 67 67 65 59 64 63 62 65 61 67
45 42 39 34 34 32 31 31 30 29 27 25 25 25 27 28 31 32 34 35 34 33 36 36 40 42 42 46 47 48 51 52 59 63 67 70 68 67 66 65 63 65 67 64 65 68 66
40 36 32 30 29 28 29 29 28 26 23 23 23 25 25 26 28 25 28 31 33 34 35 36 36 39 44 45 43 44 49 54 58 64 69 72 70 70 68 66 66 68 69 69 74 74 69
34 30 27 25 25 26 27 26 24 22 20 20 21 22 23 21 20 21 24 26 27 30 32 32 36 40 40 39 42 44 50 56 59 63 65 71 71 70 73 71 70 68 64 68 73 74 77
30 27 24 22 22 22 23 22 21 19 19 18 19 19 17 17 23 23 25 28 28 31 32 33 37 37 36 38 43 47 51 55 60 62 64 68 69 71 72 70 71 71 68 69 68 74 76
28 26 23 23 23 22 21 19 19 18 17 18 19 18 17 19 24 25 27 26 28 28 31 33 38 40 41 43 44 47 50 54 60 61 62 64 69 71 71 72 71 71 70 73 73 75 77

GFSGBSN_250_spd_102.txt.gz
Wind_Speed
79 81 71 69 69 67 78 81 79 73 73 67 67 76 87 85 87 86 87 86 85 83 82 80 75 79 71 70 78 68 71 70 72 74 74 68 65 61 62 63 67 56 57 56 61 58 54
81 83 83 72 73 75 74 79 82 85 78 79 74 72 77 87 90 91 89 90 91 90 90 86 86 84 84 86 91 85 76 72 73 70 69 61 63 62 58 65 69 65 60 53 54 56 58
85 82 90 93 89 90 84 81 89 90 89 89 89 85 81 76 80 91 95 97 95 94 90 89 89 89 88 91 92 91 90 87 82 73 65 63 66 64 68 69 65 65 61 56 56 60 59
95 95 96 97 100 97 102 102 91 89 94 95 97 93 91 87 86 87 90 99 103 99 98 98 93 91 83 96 90 89 84 88 90 88 85 81 71 68 69 68 65 64 62 56 62 64 65
101 102 104 108 98 101 94 91 96 97 99 93 95 95 90 92 94 95 96 93 104 104 104 102 100 96 88 96 95 94 89 84 88 90 86 87 79 74 70 69 67 68 62 63 61 67 69
112 106 99 92 101 84 80 82 88 93 95 98 98 96 98 101 103 102 98 98 102 106 101 107 107 101 95 98 99 97 96 93 87 87 88 85 82 75 73 72 68 73 76 75 70 71 75
116 99 97 89 75 73 77 79 84 87 86 90 97 100 99 95 97 99 97 100 101 107 107 105 107 108 105 105 102 102 97 99 93 93 93 91 85 77 79 80 78 80 78 77 74 76 77
105 102 87 75 68 67 71 73 79 81 81 86 89 90 92 92 95 98 97 99 102 111 111 111 111 108 110 114 106 104 108 105 100 99 98 96 85 88 91 87 85 81 80 73 72 73 75
102 92 77 69 64 64 69 72 77 80 82 88 87 91 90 88 90 95 101 101 104 108 110 105 115 112 112 120 111 104 114 112 105 106 103 98 94 97 94 91 87 83 81 75 70 75 72
96 78 71 65 63 64 67 72 74 77 80 79 83 86 89 88 91 97 101 99 101 104 109 94 104 112 112 116 120 107 114 116 110 106 108 103 98 99 99 94 94 85 85 81 76 78 76
84 71 66 62 63 65 69 76 78 80 85 90 91 93 95 97 98 102 103 105 107 108 110 96 99 109 111 114 119 114 115 116 106 106 111 102 100 103 95 93 98 86 93 87 89 87 82
76 68 66 66 67 69 75 80 82 85 89 94 98 101 99 101 100 97 98 102 101 101 97 95 99 106 110 113 116 119 118 117 116 115 109 100 100 96 94 92 92 88 87 85 82 81 78
70 66 67 69 69 71 74 78 83 86 87 87 89 91 95 96 96 92 92 95 96 85 81 86 89 87 91 96 108 113 114 116 116 115 108 107 101 100 98 92 88 86 85 84 78 74 70
68 68 70 71 72 74 76 79 82 84 85 86 90 92 95 90 91 90 90 91 93 86 88 89 78 84 79 87 87 98 105 108 111 112 113 111 103 96 91 87 87 89 87 82 76 68 69
68 70 73 74 76 77 78 79 81 83 84 86 88 90 87 86 83 80 82 82 84 81 79 77 73 77 80 77 80 86 87 90 95 96 96 92 86 91 90 87 88 83 81 76 73 62 59
71 73 73 74 74 76 78 80 82 82 82 81 81 81 77 78 75 74 74 75 76 76 72 69 70 68 71 71 74 80 77 80 86 85 78 75 72 77 83 85 83 82 79 77 68 63 62
71 72 75 75 75 76 77 79 79 78 78 74 73 73 71 68 64 61 61 59 61 60 55 55 63 66 66 68 66 72 69 75 72 72 68 64 64 67 72 70 73 74 74 76 70 59 52
73 73 74 75 76 78 78 76 75 76 71 68 66 66 64 58 55 52 50 49 49 46 43 47 54 56 56 59 61 64 65 66 66 65 62 57 58 64 63 64 66 65 73 79 62 57 54
75 75 76 77 79 77 74 73 73 69 65 63 62 58 54 50 44 44 43 41 41 37 36 40 45 45 48 53 55 58 59 56 56 55 57 55 58 59 59 58 58 57 56 55 48 54 50
75 78 79 77 77 77 73 72 69 65 62 60 56 50 46 44 35 36 37 36 35 32 33 33 39 41 43 46 48 49 53 51 49 50 54 54 53 54 49 49 51 50 49 48 46 44 44
79 78 76 75 73 73 73 71 66 59 59 56 48 44 41 39 31 31 33 31 30 30 28 30 34 35 37 40 41 45 46 46 44 48 50 50 54 42 44 46 44 42 44 42 44 41 42
79 77 76 74 74 73 69 69 63 57 55 49 43 38 39 33 28 30 30 28 27 25 26 29 30 33 34 34 33 35 38 44 44 46 48 54 47 40 43 44 43 38 41 42 44 44 48
77 74 74 73 73 69 65 63 57 53 49 44 35 35 37 28 25 31 26 23 21 23 24 26 29 32 31 34 36 39 44 46 45 47 50 55 47 48 48 47 46 40 44 45 45 48 54
76 74 72 71 68 64 62 58 55 48 43 35 30 33 31 24 26 25 22 20 19 21 22 24 28 30 30 33 36 38 42 44 41 43 47 50 50 51 50 49 47 44 48 48 47 48 44
74 71 70 69 65 60 58 53 49 41 38 29 30 29 23 20 19 16 19 20 19 23 24 24 26 29 31 32 32 34 37 39 43 41 44 46 47 52 53 51 49 47 49 50 53 51 53
70 67 66 65 61 56 51 49 42 35 32 27 26 24 17 17 18 20 18 17 20 21 23 26 28 30 29 28 27 29 32 36 38 40 45 49 51 52 50 49 52 45 45 45 54 55 57
66 64 62 60 54 52 45 43 34 29 27 23 22 19 16 19 18 16 17 19 20 24 27 29 28 26 26 26 28 32 35 35 38 40 44 43 45 46 50 50 52 47 48 55 52 56 57
61 59 57 55 52 45 39 36 29 25 22 18 18 17 16 15 15 16 15 17 21 24 27 27 27 28 29 32 34 35 36 38 40 41 42 40 43 47 49 49 50 50 54 55 54 58 58
54 53 52 50 48 38 34 30 26 23 19 16 15 15 14 13 11 12 14 16 16 20 21 23 22 26 31 34 37 38 38 41 41 42 45 44 47 50 51 57 52 52 55 51 51 54 58

GFSGBSN_250_spd_105.txt.gz
Wind_Speed
72 68 64 66 71 71 70 71 76 72 73 72 71 71 74 77 79 73 77 79 85 85 85 84 83 82 80 77 85 84 82 81 82 87 86 84 83 77 73 73 74 62 58 57 59 57 56
72 73 78 77 72 74 73 80 85 89 86 84 83 80 80 79 80 83 78 76 77 84 88 90 88 87 85 84 86 82 81 80 82 83 82 82 80 83 77 68 70 68 60 58 59 56 62
74 75 79 84 80 77 86 89 94 87 81 80 88 86 86 85 84 82 88 86 81 79 78 94 91 92 87 92 88 88 87 84 83 85 81 79 79 74 75 73 72 65 61 56 55 62 67
79 84 83 84 86 87 90 95 93 81 76 77 81 83 85 87 85 83 82 86 91 88 88 86 81 96 87 98 97 93 90 91 93 92 90 90 91 89 84 78 67 62 58 55 60 65 62
89 88 92 90 91 93 96 100 94 83 77 73 79 84 87 88 89 89 89 90 95 92 92 90 88 87 81 91 95 100 98 95 93 93 94 94 90 85 85 80 81 80 66 62 64 65 68
93 92 91 92 93 96 99 101 91 79 71 69 71 76 86 86 91 94 92 95 96 99 93 92 92 92 89 90 95 101 102 101 99 97 96 96 93 89 83 76 71 74 77 77 71 69 78
95 95 90 92 98 104 106 98 86 72 64 64 66 72 75 81 84 90 90 93 98 99 96 97 97 97 95 98 98 98 99 105 104 103 99 101 98 87 86 88 85 80 77 76 74 71 76
91 92 93 104 102 109 100 93 77 68 63 64 67 70 76 80 86 90 87 90 93 93 93 102 101 102 99 102 94 96 104 106 104 103 108 106 97 95 93 92 91 86 80 77 77 78 81
93 96 100 102 107 106 97 86 70 65 62 64 66 71 75 81 83 87 89 91 91 93 94 86 96 94 95 101 102 93 108 105 107 107 105 107 101 103 99 97 92 86 81 78 84 88 87
91 98 102 107 108 106 93 80 67 63 63 64 70 74 79 81 85 86 91 94 97 98 95 84 96 98 100 102 99 96 107 109 110 106 110 111 106 104 101 94 97 93 87 86 87 87 86
99 105 113 112 108 109 87 75 66 62 63 69 73 76 80 82 86 89 90 95 95 96 88 83 90 90 94 98 96 96 102 107 98 99 108 101 102 107 104 99 102 95 100 95 90 87 87
106 108 112 110 113 100 80 72 65 64 66 69 72 76 79 81 84 86 89 93 92 91 82 81 87 81 89 95 96 98 100 102 102 100 99 96 100 100 99 95 92 88 91 88 85 82 75
106 106 111 109 111 86 75 69 66 67 69 72 75 78 80 79 84 87 86 87 88 85 87 82 77 76 77 77 82 95 99 102 102 104 99 98 98 96 95 93 91 90 88 88 87 82 69
114 112 111 113 98 79 71 66 67 70 72 74 77 80 82 81 88 87 85 84 82 82 83 80 65 76 65 67 72 79 82 87 95 102 100 97 95 95 96 95 93 91 88 87 86 81 77
112 112 113 106 87 74 68 66 69 71 72 75 78 82 83 87 85 82 81 80 79 80 78 69 67 64 58 57 65 65 73 77 85 86 85 80 80 94 95 94 94 90 93 85 90 83 80
114 116 106 98 81 72 69 68 69 70 72 75 79 82 81 81 78 76 77 75 72 69 65 62 59 57 56 59 61 61 66 72 77 77 75 75 70 76 85 88 84 91 91 96 86 79 77
117 108 106 88 77 70 69 69 71 72 75 78 80 79 76 72 70 69 69 68 62 56 51 52 49 48 49 52 55 59 62 71 67 68 68 69 64 71 72 68 79 86 86 79 77 76 72
111 108 97 81 73 70 69 70 72 73 77 78 78 75 69 66 63 60 61 57 49 42 40 42 41 40 43 45 47 52 65 63 60 60 58 62 61 66 62 66 69 68 68 70 66 63 65
109 101 86 78 73 71 72 73 74 74 75 74 73 72 63 61 58 50 54 44 40 37 37 36 36 35 38 42 43 49 56 57 56 58 52 50 53 59 65 63 62 63 61 59 53 59 57
102 88 79 75 74 72 74 74 74 71 69 71 71 67 59 59 53 43 48 40 35 34 34 33 30 30 33 37 40 47 48 49 53 51 45 50 55 57 60 56 56 55 52 54 53 51 48
89 81 78 75 74 74 75 75 73 69 68 70 64 60 57 56 48 42 41 39 33 29 30 30 28 28 29 31 35 42 46 47 51 47 43 49 51 54 57 54 50 47 47 47 49 47 51
83 81 80 78 78 77 75 72 70 66 67 67 61 53 55 53 43 40 37 34 29 28 29 29 26 28 29 29 30 35 39 41 42 44 45 51 53 53 52 52 47 47 45 46 44 45 49
84 83 83 80 77 75 73 70 68 66 66 64 53 50 52 48 39 37 34 27 26 27 28 29 28 29 30 30 31 33 39 42 43 43 49 52 52 52 55 51 47 46 45 44 44 48 51
87 85 82 79 77 75 73 71 67 63 61 59 48 48 48 42 37 31 30 27 22 26 25 28 30 31 30 30 33 38 42 43 44 45 50 52 52 52 49 48 51 48 45 43 46 47 48
86 84 81 79 77 76 73 68 64 59 54 53 44 45 43 36 35 30 30 26 21 24 25 29 31 29 31 33 35 38 39 42 44 48 50 50 47 47 41 46 48 44 42 43 45 46 48
84 82 79 76 74 70 67 63 60 54 49 47 40 42 38 33 33 29 24 25 22 24 27 28 29 28 27 30 34 38 40 42 45 46 45 45 46 42 41 46 47 42 42 45 47 51 51
79 77 75 73 70 66 63 59 54 48 44 42 36 38 33 31 29 24 23 20 21 23 24 26 25 27 25 27 30 32 37 40 44 42 41 44 41 42 47 50 47 44 45 48 51 55 56
73 73 71 68 65 62 58 54 48 43 40 37 33 32 30 26 22 19 17 19 18 18 20 20 20 23 26 31 35 37 37 40 42 43 44 43 43 48 51 51 51 49 50 50 51 56 57
67 66 64 62 59 56 53 48 42 37 36 33 29 29 26 22 17 17 17 17 18 17 17 18 20 23 25 28 35 38 39 41 41 42 44 43 43 47 50 55 55 48 49 50 52 57 58

GFSGBSN_250_spd_108.txt.gz
Wind_Speed
60 60 61 62 68 65 64 65 67 72 75 77 84 84 84 85 82 81 82 78 82 81 77 78 79 79 80 82 87 83 86 87 87 88 89 91 90 87 83 83 81 77 75 73 71 74 66
60 64 68 67 66 70 70 73 76 78 82 86 87 85 92 93 96 94 89 87 83 78 77 85 81 79 79 75 83 89 86 86 83 85 87 87 91 90 88 87 87 85 81 77 75 71 69
69 71 70 70 73 73 73 78 79 83 82 85 88 91 93 94 98 97 94 90 92 86 86 80 89 81 75 81 86 89 89 88 91 90 87 88 88 87 86 81 83 83 82 79 70 64 67
75 78 76 75 74 77 78 82 85 85 83 88 89 90 95 93 90 85 89 90 87 92 93 88 86 86 82 88 87 83 88 87 91 94 93 94 93 89 83 80 77 74 74 65 60 66 64
84 79 78 78 81 79 82 82 84 85 84 88 91 89 86 86 81 72 76 86 86 87 88 91 91 86 82 89 96 93 89 89 91 93 95 101 98 93 90 86 83 79 73 72 67 67 69
84 82 79 81 84 84 85 83 83 82 84 88 90 89 82 79 69 63 68 80 85 88 89 89 93 95 89 89 99 97 95 94 93 93 93 95 103 99 93 90 85 87 86 83 79 74 80
85 82 81 83 85 88 88 86 85 87 90 90 88 85 76 70 65 60 64 73 82 82 83 90 92 94 93 101 98 98 102 100 96 98 96 100 101 95 97 100 96 94 92 87 84 81 78
86 84 86 86 87 91 88 85 85 90 89 91 93 87 76 69 65 62 63 69 75 77 72 80 81 81 94 101 95 98 107 103 105 101 102 102 100 94 93 93 98 96 91 85 86 84 86
89 89 90 92 89 94 89 88 87 93 92 97 93 82 74 69 67 64 67 70 70 73 74 71 85 88 95 95 89 91 106 107 103 103 102 106 97 98 94 92 94 97 96 93 91 92 89
91 92 95 96 92 96 92 91 95 98 97 95 90 78 71 68 69 70 70 70 71 71 73 74 86 95 94 96 92 95 101 107 106 100 106 107 100 101 101 93 92 91 90 92 96 100 93
93 95 98 99 93 95 95 94 97 99 100 97 85 74 71 67 67 70 71 72 74 74 71 69 81 85 89 93 90 94 101 101 97 100 106 95 97 101 101 92 99 89 95 95 94 93 93
94 98 98 98 100 96 95 96 97 97 100 93 80 72 70 68 68 69 70 71 73 76 76 71 75 74 74 78 79 83 98 102 95 98 101 92 95 94 91 94 93 94 94 96 97 95 89
96 99 96 98 101 102 97 97 96 99 97 87 76 70 68 68 69 71 72 74 76 77 77 73 70 72 70 68 71 73 79 88 94 97 93 88 89 90 89 87 88 91 92 92 92 89 80
97 96 97 100 105 101 96 96 99 99 96 81 74 69 68 68 70 73 75 76 75 74 74 72 69 64 61 61 60 63 71 78 86 94 93 87 84 85 82 83 84 85 86 86 83 82 78
99 100 100 102 103 97 94 96 98 99 88 78 73 69 69 71 74 77 79 78 73 69 70 71 66 55 54 51 53 56 64 71 78 84 84 83 76 86 85 83 90 90 86 82 88 83 78
99 100 101 100 97 94 96 98 100 91 83 77 72 70 70 73 76 77 77 73 71 67 65 64 58 52 49 48 50 56 60 68 71 74 77 77 72 76 84 91 88 87 85 90 91 82 74
102 103 100 98 95 95 98 100 93 88 80 75 72 71 73 75 74 75 72 67 68 63 60 58 53 46 44 44 46 52 61 64 62 62 63 68 67 73 77 82 84 88 89 89 87 83 76
98 97 95 94 96 99 99 95 90 83 76 73 72 72 73 74 72 71 67 61 65 56 50 49 43 40 39 42 44 47 51 52 58 60 59 61 62 70 72 74 78 78 81 87 87 82 81
98 98 95 97 101 98 95 91 87 77 74 73 74 73 73 72 70 67 62 56 61 54 43 42 38 37 35 35 39 44 44 50 56 56 55 57 58 67 72 72 74 73 72 72 69 70 71
98 100 99 100 97 94 92 89 81 74 73 75 76 73 70 67 65 63 60 53 53 47 40 38 35 35 33 32 34 36 39 45 46 53 55 55 57 63 66 66 67 63 61 63 62 57 57
103 102 100 97 94 92 91 85 78 74 73 76 75 70 67 67 63 59 55 51 44 43 36 34 33 34 31 30 31 32 33 37 41 44 50 55 53 56 59 57 57 58 59 57 55 50 52
102 101 98 96 94 91 88 81 74 74 75 75 72 67 67 66 59 55 51 47 42 36 36 35 31 31 31 31 33 33 30 34 38 39 40 41 47 52 56 56 54 55 56 56 54 49 49
100 98 97 96 91 86 81 77 76 75 74 72 68 65 63 63 57 50 47 44 39 33 36 34 29 30 30 33 36 33 33 33 35 39 40 39 40 48 53 51 49 52 52 52 47 47 48
97 95 92 88 82 80 79 78 76 75 73 71 67 62 60 60 55 46 43 39 36 31 33 33 28 28 29 32 34 34 34 36 39 40 39 40 40 46 50 49 48 46 42 44 47 48 51
92 88 86 83 81 81 80 79 77 74 71 69 64 60 56 56 50 41 41 35 34 30 30 30 28 26 28 31 34 35 38 39 39 39 40 42 43 46 48 48 40 39 42 46 46 48 49
92 88 86 85 83 81 79 76 75 72 67 65 62 56 54 50 44 39 36 32 31 28 27 25 26 25 26 29 31 36 37 38 40 39 42 44 45 46 47 42 39 39 43 43 42 44 45
87 84 82 81 79 77 75 72 70 67 63 62 58 52 48 43 37 35 32 29 28 27 24 22 20 20 24 27 30 35 35 35 38 39 40 44 45 47 42 39 38 41 43 43 45 44 46
82 81 79 78 74 73 70 67 65 62 58 57 53 48 42 38 32 31 28 27 25 24 21 22 18 19 20 25 29 29 34 37 39 39 42 42 40 41 33 32 37 42 42 44 47 49 49
74 75 74 72 70 68 65 61 58 56 54 52 48 43 35 34 29 25 26 23 20 18 18 18 17 18 20 24 27 31 33 33 35 37 40 43 41 35 34 42 47 44 45 47 50 51 52

GFSGBSN_250_spd_114.txt.gz
Wind_Speed
47 52 55 59 63 66 64 65 65 66 66 63 65 64 67 69 72 72 75 74 77 75 77 78 82 86 90 93 90 85 83 85 87 94 94 87 86 89 88 86 89 87 86 82 81 80 77
54 59 58 60 63 67 72 73 73 71 70 70 72 70 71 73 74 78 80 78 76 75 77 77 80 86 91 92 94 91 87 87 90 92 99 99 93 90 88 89 88 90 87 86 84 82 81
57 59 66 69 71 69 73 75 78 79 78 79 76 75 75 77 78 80 83 79 81 77 76 78 80 80 83 84 85 83 82 84 87 95 98 104 101 94 88 85 88 87 90 91 87 85 83
63 64 63 67 75 78 78 78 80 80 82 82 79 79 79 83 88 90 84 82 78 81 85 86 84 81 80 80 76 79 82 84 84 91 99 104 107 99 93 88 85 86 86 86 86 85 88
67 68 69 70 72 79 82 84 84 85 86 85 85 84 83 85 91 90 86 87 85 85 89 89 84 81 79 76 74 75 76 82 89 92 98 103 107 105 99 95 93 86 81 84 86 87 87
72 74 74 75 81 84 84 87 86 88 88 90 89 88 88 87 90 88 90 91 89 89 94 93 83 82 80 75 72 70 72 76 86 93 97 103 109 105 101 100 91 96 93 85 84 87 89
77 80 76 79 81 84 89 91 87 93 93 94 91 89 91 89 87 87 92 93 92 93 95 91 83 80 77 72 68 67 67 72 79 90 97 105 108 103 108 108 100 100 97 94 90 93 90
81 80 87 83 86 86 88 89 92 92 94 93 90 92 92 90 89 91 93 95 96 95 91 91 87 82 73 64 67 67 68 70 78 84 94 104 103 105 111 108 102 103 99 93 95 93 93
86 85 87 89 88 87 89 90 91 92 94 94 94 93 91 93 95 93 91 94 96 97 94 89 84 78 71 67 63 65 70 71 75 83 94 101 91 112 116 112 107 103 97 99 102 103 99
91 92 90 92 90 88 89 89 92 92 94 91 91 94 94 96 95 94 92 92 94 95 90 83 80 73 67 64 66 66 70 70 75 82 90 95 96 105 113 111 109 105 100 101 100 105 99
93 92 92 92 89 92 91 89 90 90 89 90 91 96 97 96 95 94 94 92 93 89 88 80 76 68 65 61 61 65 67 69 70 76 88 74 90 102 108 98 117 104 109 107 106 103 100
93 92 91 91 90 91 89 91 91 90 91 93 96 100 98 98 94 92 93 92 89 86 83 79 73 66 61 61 65 63 65 71 70 72 75 65 85 85 92 107 111 107 110 111 108 108 100
90 93 94 93 92 93 90 91 95 93 95 96 99 99 97 93 94 92 88 88 84 82 80 75 68 67 65 60 66 66 68 69 71 71 75 70 70 78 79 90 102 109 113 112 109 105 95
101 104 101 94 91 91 90 92 92 93 95 96 99 95 94 94 91 90 89 86 82 79 77 71 65 67 66 63 64 60 62 60 64 64 67 70 68 68 73 79 84 96 102 107 102 100 94
96 99 98 94 95 92 90 91 90 91 91 89 93 93 94 91 92 90 89 82 80 76 72 65 65 66 65 64 61 56 53 54 57 57 60 64 69 69 68 69 82 83 95 81 96 97 91
99 98 100 103 97 92 92 89 89 90 92 91 89 89 89 90 90 90 84 81 76 73 66 62 61 62 58 60 57 54 47 47 49 51 52 57 59 64 65 69 76 81 78 90 92 85 81
98 96 97 98 91 88 86 87 90 90 89 89 86 87 89 89 87 84 82 79 75 67 62 61 61 58 56 54 54 50 46 43 42 41 46 49 50 59 63 67 72 75 74 83 81 79 77
97 96 95 93 92 90 90 90 90 88 89 86 86 87 85 85 83 81 79 77 69 62 59 61 61 57 53 49 50 45 39 37 36 36 38 43 49 54 59 62 64 67 70 73 77 72 69
98 95 95 96 95 93 91 91 88 86 87 86 88 85 84 83 80 78 77 70 63 61 61 62 60 55 52 46 43 38 34 32 33 36 36 36 44 48 50 55 57 63 68 69 68 67 65
98 98 96 98 99 96 93 90 89 85 87 86 84 84 83 78 77 75 70 64 63 63 63 63 59 52 49 43 38 34 32 28 31 34 33 35 42 44 47 52 55 61 64 66 66 64 56
101 101 100 99 97 93 89 88 88 86 86 87 82 82 78 75 75 69 65 66 67 65 63 61 57 49 47 41 35 31 29 26 29 29 29 31 35 41 46 49 52 58 60 60 62 62 60
99 98 98 98 95 93 91 89 87 86 85 83 81 78 76 72 67 69 70 72 69 67 62 57 53 47 40 37 31 28 28 25 27 24 24 28 31 34 38 46 50 54 57 58 56 53 54
97 97 97 94 94 92 89 88 86 84 84 82 78 74 70 70 72 73 74 73 69 64 60 54 51 46 36 35 28 26 25 23 25 23 23 25 28 29 30 38 45 47 50 51 51 47 50
96 95 94 94 93 90 87 86 83 81 80 74 71 71 74 77 77 76 72 71 63 59 59 49 47 43 33 31 25 23 22 22 23 22 22 23 26 27 27 34 39 43 43 43 44 43 44
95 93 90 90 89 86 83 80 75 72 71 73 75 77 79 81 82 75 72 66 61 57 53 48 41 38 33 28 25 20 20 23 23 23 20 23 25 28 28 32 36 39 42 41 39 39 45
88 86 83 82 82 79 78 77 76 78 78 79 80 81 83 83 77 72 67 62 58 52 48 44 36 34 28 24 24 21 21 24 24 23 21 24 26 28 30 32 36 38 38 38 40 44 44
87 87 85 85 86 83 83 82 81 82 82 83 83 82 79 74 72 68 63 59 53 48 44 36 34 32 26 25 24 22 20 22 25 26 24 22 28 30 32 33 33 34 37 39 42 43 39
87 88 86 87 87 86 85 84 83 82 81 82 79 73 71 72 65 62 61 54 45 43 38 31 32 28 24 25 23 21 20 24 26 25 25 24 27 31 33 32 32 35 37 39 40 39 39
84 83 79 85 85 82 82 81 78 76 74 73 72 69 67 65 59 56 54 46 36 41 33 29 30 24 22 23 21 21 22 24 25 28 27 29 27 32 35 36 35 37 38 39 40 41 42

GFSGBSN_250_spd_117.txt.gz
Wind_Speed
54 51 53 51 51 52 53 58 61 65 67 66 66 67 68 70 68 68 68 71 73 75 77 78 77 81 84 83 84 83 80 79 83 88 90 85 84 84 81 80 84 84 85 85 82 88 85
59 59 57 59 57 57 62 65 65 66 69 69 70 71 72 73 73 74 75 76 77 79 78 79 81 83 88 83 81 80 81 84 85 89 91 92 86 89 83 84 84 86 89 88 89 83 89
66 63 64 64 65 60 61 65 75 75 75 75 73 75 76 75 77 80 81 83 84 87 85 85 88 90 85 83 81 81 83 84 84 81 86 85 89 87 88 89 87 85 88 88 87 89 88
73 69 68 68 67 67 63 69 71 77 77 78 79 81 81 82 80 83 82 85 88 92 91 90 91 93 84 85 87 86 85 84 79 74 75 79 83 84 83 88 90 91 89 89 84 88 90
79 75 71 71 69 71 71 73 76 78 79 81 79 80 83 86 88 86 89 89 94 96 97 91 95 95 89 90 88 89 88 81 76 71 71 74 78 81 82 83 87 85 89 92 95 92 89
82 81 77 75 74 75 76 77 79 82 83 83 84 84 85 86 91 93 94 95 96 98 99 98 94 95 94 92 91 90 89 82 78 78 68 69 72 77 80 88 85 93 99 100 98 99 99
85 85 80 79 79 78 80 81 84 87 88 88 90 91 88 89 91 92 98 100 102 103 100 93 93 98 97 94 93 91 85 82 78 75 69 67 68 61 84 95 93 100 99 101 99 99 102
81 83 84 84 80 82 81 85 86 88 92 94 96 91 92 97 101 99 102 104 99 100 95 95 99 98 99 96 95 90 85 84 77 72 69 68 57 68 83 84 88 97 96 95 101 104 108
82 79 87 88 80 80 84 86 88 89 90 92 94 95 93 99 99 99 103 104 100 96 97 98 97 93 94 92 89 88 88 85 80 70 70 69 52 78 79 81 81 85 91 92 104 110 111
87 91 91 88 83 80 83 85 88 92 93 92 94 94 95 96 97 97 99 98 98 100 103 101 96 94 92 91 91 90 85 81 79 71 70 57 65 74 80 80 81 87 82 93 103 107 111
98 96 92 92 87 88 85 84 87 91 91 92 91 92 93 95 96 94 94 94 97 100 105 101 94 92 91 88 89 91 82 78 73 71 71 54 63 72 72 71 88 78 86 94 99 104 105
98 94 94 94 93 87 86 84 84 87 87 88 85 88 89 91 91 92 95 95 93 97 97 92 92 90 89 88 90 88 83 78 71 68 70 64 68 70 65 72 83 80 91 89 95 100 108
89 93 95 95 96 90 85 78 82 82 85 86 87 90 93 91 89 93 94 94 96 94 94 89 91 90 88 88 90 85 81 78 72 69 68 64 70 73 67 70 74 74 84 90 95 97 91
99 98 96 99 99 94 87 86 89 88 89 92 93 92 86 92 93 93 91 92 90 89 89 88 86 88 86 86 86 81 79 78 72 64 56 57 66 63 71 62 65 72 77 82 86 85 80
102 103 103 101 98 91 93 92 93 92 94 97 95 92 93 95 92 88 84 86 85 86 85 85 87 86 88 86 82 76 74 72 65 60 54 51 58 60 63 63 61 66 77 70 75 82 91
99 106 104 103 99 99 93 88 91 95 98 98 95 93 98 93 85 83 82 80 82 84 83 84 84 84 83 83 78 75 69 64 58 57 49 48 52 50 56 59 62 62 66 69 75 79 80
97 99 95 96 92 91 91 88 93 96 98 96 97 96 94 84 83 83 81 82 82 81 82 84 82 81 81 74 71 69 60 55 53 50 47 43 45 44 52 54 58 60 64 66 70 70 74
100 96 96 92 93 93 94 96 100 99 97 93 93 93 88 84 85 85 84 84 82 82 82 82 81 79 76 70 65 62 57 49 48 44 42 37 38 40 46 47 54 60 59 64 65 64 64
100 98 96 94 94 94 94 99 98 96 95 94 91 88 85 84 87 85 84 83 82 81 81 79 77 74 67 65 59 58 56 46 40 40 38 33 33 34 34 43 52 54 55 57 57 62 59
97 98 94 95 95 94 100 102 102 99 96 91 90 87 87 86 88 86 84 83 81 81 79 78 77 65 60 61 58 52 50 43 37 36 32 30 32 28 31 38 44 48 52 54 56 59 56
91 95 95 95 99 98 101 102 103 100 97 94 93 90 89 88 88 87 84 82 80 79 77 75 67 60 56 61 58 48 46 39 36 33 30 28 27 25 30 36 44 44 47 50 54 54 57
96 96 97 102 102 100 102 102 103 103 97 95 96 91 89 87 86 85 83 81 78 77 74 65 60 62 56 59 55 51 42 36 33 31 27 24 24 24 27 33 40 42 46 50 50 52 51
95 98 100 101 99 100 100 100 99 99 100 95 93 89 85 84 83 82 79 77 76 73 66 59 63 64 56 56 50 45 38 35 32 29 24 23 21 21 25 31 36 41 46 47 47 47 45
94 98 100 101 99 96 94 95 95 96 94 92 90 86 84 84 83 79 77 73 71 66 66 63 65 63 59 51 47 42 35 33 31 27 23 22 20 21 26 30 35 40 39 41 44 41 39
90 95 98 97 95 95 94 93 92 93 92 87 85 84 83 80 78 74 69 67 68 70 70 66 64 61 57 48 42 38 34 31 30 26 24 22 20 21 23 27 30 32 34 36 34 35 39
87 89 91 90 91 91 88 87 87 86 87 85 84 82 81 75 69 66 66 70 73 73 68 67 65 59 53 45 39 34 31 28 29 24 24 25 23 23 26 29 31 32 33 32 29 29 35
83 84 84 84 86 86 84 84 84 84 83 80 76 70 68 68 67 70 72 74 75 72 66 63 60 57 46 39 35 32 28 25 27 23 24 27 28 27 29 30 30 30 31 33 36 37 35
83 83 81 80 79 79 76 75 73 72 71 71 71 71 72 73 74 76 75 76 71 65 62 60 54 50 41 34 32 28 24 26 26 25 26 29 29 29 31 33 33 33 34 37 41 40 32
81 84 82 81 81 82 80 79 79 78 78 79 78 76 76 77 76 74 72 67 65 60 59 53 51 43 36 31 29 26 22 24 23 26 25 28 30 28 33 35 35 36 39 42 43 46 44

GFSGBSN_250_spd_120.txt.gz
Wind_Speed
51 52 54 56 57 56 55 56 58 58 58 61 62 65 65 67 69 69 71 71 72 71 71 70 70 74 78 81 83 83 81 81 81 83 84 84 82 81 80 84 88 83 82 79 73 75 77
57 56 57 62 60 61 60 60 61 64 65 64 67 68 72 73 74 75 76 76 75 75 73 74 81 83 79 82 87 86 86 88 87 89 91 89 84 85 89 90 96 95 85 84 82 77 77
66 63 66 63 66 66 67 66 65 67 69 68 68 68 70 75 78 76 77 77 79 80 81 80 84 84 87 87 89 91 90 90 93 95 91 94 87 85 90 91 96 98 96 82 85 85 83
69 70 69 69 70 69 72 71 69 69 70 71 73 72 74 73 71 70 74 77 82 82 81 83 88 87 89 94 95 96 98 99 100 97 95 96 87 82 84 85 87 91 92 85 76 90 87
73 71 72 73 74 75 77 74 74 74 73 72 74 75 75 77 79 81 82 84 85 86 89 91 92 93 93 96 98 102 102 103 100 97 99 94 86 77 77 78 74 80 87 89 81 88 91
81 80 76 78 79 79 79 79 78 79 77 76 74 75 77 79 78 82 83 85 87 88 91 92 93 96 97 99 102 103 105 107 100 101 101 93 83 71 78 79 70 78 89 88 80 85 90
87 82 79 79 80 80 81 82 82 82 80 80 80 79 79 80 80 84 87 90 93 93 93 98 101 102 99 105 104 103 101 101 101 102 98 91 78 76 78 73 68 73 79 82 80 82 94
85 80 80 77 79 79 79 81 84 83 84 84 82 81 83 85 86 88 91 95 98 99 98 101 101 101 104 106 105 105 100 98 100 98 94 88 79 78 77 65 67 67 71 74 77 83 94
80 75 71 73 70 69 73 78 81 80 79 81 83 85 86 87 89 90 91 94 97 100 101 100 103 101 102 103 102 103 101 102 99 95 92 89 83 81 79 63 62 62 69 65 77 87 97
77 70 71 69 70 74 73 74 77 83 82 81 80 76 81 84 86 88 91 95 98 100 99 95 98 99 97 99 101 101 100 99 96 94 89 87 84 84 75 65 61 64 63 65 78 87 97
78 76 78 83 78 78 79 83 85 87 88 89 89 86 85 85 86 88 91 92 96 100 101 93 94 97 99 97 96 95 95 94 92 88 89 84 83 77 66 62 61 56 57 66 72 79 90
76 74 82 85 85 81 83 84 89 88 87 88 90 88 88 89 84 84 85 88 92 89 89 95 93 91 94 90 87 88 88 90 90 86 84 82 73 71 62 58 59 51 57 65 66 73 84
83 83 89 87 86 88 91 91 92 90 92 94 98 98 95 92 84 82 86 88 93 94 96 92 90 94 88 84 84 85 87 89 93 86 79 72 73 67 58 51 59 53 57 61 64 70 61
90 86 92 93 93 92 93 90 90 94 96 100 90 91 87 91 89 88 87 93 95 97 95 88 88 88 85 82 83 87 88 90 91 86 75 58 64 64 60 52 51 54 55 56 61 60 54
90 90 100 95 94 95 96 93 89 93 94 93 89 89 92 98 88 90 94 100 95 97 96 92 88 85 85 85 85 87 89 90 87 82 71 64 69 62 54 51 49 55 48 49 57 60 52
99 100 99 102 94 98 96 95 94 93 92 92 89 89 89 90 95 97 92 94 96 97 94 90 88 86 87 87 88 89 88 86 82 78 73 69 59 55 51 43 45 46 46 47 49 52 47
102 101 104 101 100 104 103 98 95 97 102 100 100 103 100 100 100 97 94 93 95 94 92 91 86 86 87 88 88 88 86 82 79 77 73 60 49 51 43 40 37 43 45 43 45 53 53
88 93 98 99 103 107 104 105 101 102 102 97 101 96 100 96 95 97 98 97 96 89 90 87 87 88 87 87 86 86 83 81 78 74 65 52 46 44 38 35 34 37 39 39 42 50 50
80 89 97 95 101 103 104 105 103 100 99 100 100 98 98 98 96 98 97 94 93 89 90 89 89 88 86 85 84 82 79 81 73 65 56 46 38 40 35 33 31 33 35 38 40 43 44
78 79 81 81 82 96 101 101 101 98 98 98 97 97 98 97 98 100 98 97 95 92 90 90 88 87 84 81 79 78 77 73 63 57 48 40 36 34 32 31 28 28 33 36 38 35 40
84 81 79 79 81 84 92 98 98 97 98 97 98 96 96 95 98 99 100 97 94 92 94 88 86 84 80 78 76 80 74 58 58 53 43 33 34 30 29 29 29 23 29 33 35 37 40
87 81 80 77 76 76 83 85 84 91 92 93 94 94 95 97 98 97 97 96 96 93 90 87 83 80 78 74 76 75 62 50 54 48 40 30 30 26 28 27 24 26 26 28 32 35 35
90 89 85 78 76 79 78 79 82 84 86 90 93 93 96 93 94 95 98 97 94 92 86 82 77 75 74 74 69 65 57 51 47 41 36 28 27 27 28 26 26 29 27 31 30 36 42
93 88 82 85 81 82 83 84 81 84 88 91 93 95 95 95 94 93 93 90 87 86 82 77 74 72 73 63 58 58 53 47 42 37 32 26 25 26 26 29 32 33 30 29 35 35 40
93 92 93 94 90 90 88 85 90 89 91 92 92 90 92 92 91 88 88 88 86 80 77 73 72 71 64 59 58 56 50 43 37 34 30 25 24 25 29 30 32 31 27 31 33 35 39
89 91 90 97 91 85 89 90 90 92 93 94 93 91 93 91 88 88 87 81 78 74 72 69 68 59 61 61 58 52 46 38 35 31 28 26 23 24 30 30 29 27 26 25 27 31 37
84 87 85 89 87 87 91 91 91 89 89 90 90 90 90 90 88 81 78 75 70 68 65 59 63 65 62 59 57 50 42 36 31 30 26 27 25 25 31 31 30 31 30 30 32 34 38
73 75 79 82 82 83 82 82 86 89 88 89 87 85 84 81 78 74 67 67 64 63 62 62 66 66 63 57 52 45 37 31 30 28 27 27 27 25 30 32 33 34 34 35 36 37 39
74 75 75 74 74 78 79 79 79 81 82 81 79 79 75 73 68 63 60 61 64 66 69 67 66 63 60 52 47 40 34 29 28 28 27 26 26 27 28 33 34 34 35 41 44 43 44

GFSGBSN_250_spd_123.txt.gz
Wind_Speed
66 59 51 53 53 56 49 55 59 56 55 58 57 62 61 61 63 63 64 65 66 68 70 71 71 72 72 70 71 72 72 73 74 76 78 77 75 78 80 86 94 94 94 90 85 84 87
61 58 53 53 56 59 57 53 58 60 62 62 63 63 64 67 68 69 69 70 71 72 73 74 74 74 73 75 73 75 75 75 75 78 79 78 86 88 88 91 95 98 98 90 85 84 89
60 57 57 59 60 64 65 65 61 62 66 65 64 66 69 70 71 72 71 72 74 74 75 75 76 77 79 78 78 78 78 78 79 79 84 84 84 86 93 98 101 104 103 94 87 89 90
72 72 73 68 63 73 69 69 67 64 66 69 67 70 74 74 74 73 73 73 74 73 72 71 74 76 76 76 77 74 76 80 83 83 86 92 94 98 101 107 106 105 99 92 78 82 82
89 77 78 76 71 75 71 72 71 67 69 71 70 71 74 77 78 76 75 72 73 74 74 78 77 76 78 78 76 76 80 84 88 94 95 96 103 105 108 112 101 96 91 86 70 78 81
91 81 80 75 72 76 75 74 75 75 74 75 75 76 74 78 78 79 76 74 74 76 74 76 78 75 78 79 84 88 92 95 97 103 100 103 108 107 111 108 94 87 83 69 67 66 84
94 93 87 86 80 80 76 76 77 77 78 78 78 77 76 78 79 79 76 76 75 77 80 81 83 85 88 89 91 93 97 99 96 95 98 105 109 106 101 96 88 81 74 67 58 64 81
98 95 91 93 84 84 81 80 79 77 80 80 80 78 75 78 77 74 76 76 78 74 78 83 82 84 86 89 89 90 92 93 96 99 103 104 100 97 92 89 87 78 73 65 56 59 82
104 97 92 85 87 89 89 84 80 77 76 75 71 73 74 76 80 79 82 82 80 80 78 80 84 88 90 93 94 98 95 98 97 99 96 92 91 89 89 89 90 82 82 74 67 58 77
107 103 94 92 93 91 90 82 78 73 73 69 70 70 73 74 77 79 78 76 80 80 79 80 84 89 91 92 90 91 89 87 90 89 87 86 89 87 89 90 90 83 81 80 68 60 67
111 106 103 98 99 90 82 80 75 73 72 73 72 74 76 76 75 75 80 82 86 89 82 83 87 91 85 84 86 86 86 86 86 85 85 85 86 89 91 89 84 84 78 68 66 62 67
115 109 103 97 92 84 82 82 75 72 74 78 80 81 81 82 83 86 89 88 89 90 91 93 92 90 89 87 90 93 89 84 84 83 84 83 87 94 91 82 78 73 65 62 60 60 57
114 115 104 93 87 82 82 85 76 71 75 78 82 84 84 86 86 84 84 86 90 94 94 95 95 93 92 90 92 93 88 88 86 85 84 85 87 93 94 80 65 66 53 52 50 51 41
100 95 96 88 84 81 84 82 79 77 75 79 81 85 87 87 88 88 89 92 94 97 97 93 95 93 97 97 97 94 91 91 91 92 89 88 79 86 85 76 50 59 48 45 37 38 37
94 95 89 85 84 82 81 82 82 83 79 83 80 86 89 87 89 91 92 93 95 95 97 96 96 99 101 102 99 93 93 91 93 94 91 86 83 81 66 62 49 55 49 40 34 35 31
91 92 90 89 84 85 88 87 86 87 89 84 83 90 92 90 91 94 89 92 92 93 93 94 100 105 106 105 96 94 91 92 93 93 89 81 72 74 67 59 56 48 41 36 30 29 27
85 86 92 91 89 88 95 92 93 90 94 90 87 86 94 91 88 92 95 91 91 95 98 103 106 106 107 100 96 93 92 92 93 87 85 77 70 68 67 61 53 43 35 31 25 24 24
71 75 82 86 90 98 96 94 95 93 96 94 93 94 90 87 85 90 96 97 102 98 101 104 103 102 101 98 96 96 91 93 88 84 79 73 65 65 63 55 46 37 32 25 24 20 26
61 70 76 81 83 93 96 98 100 102 97 97 98 97 98 100 101 99 92 94 100 100 103 104 101 98 98 99 96 96 94 90 86 78 74 67 63 62 55 47 38 32 28 23 19 20 24
64 65 74 79 82 86 88 91 97 99 102 101 99 99 108 102 100 98 98 96 97 100 104 103 101 99 98 96 95 95 91 85 80 74 70 65 62 51 47 40 33 27 25 22 16 20 27
69 69 71 79 78 82 85 86 96 104 100 102 106 103 101 101 96 98 99 99 100 104 103 102 101 101 98 94 92 88 86 81 74 68 68 60 55 44 38 35 28 28 22 22 16 22 34
76 75 73 73 82 87 78 75 80 85 89 91 88 87 89 96 98 95 95 99 101 102 103 102 97 95 91 85 87 83 81 73 65 67 60 53 46 38 33 31 26 27 22 23 22 24 32
81 78 76 74 73 71 71 69 72 69 70 73 72 69 73 77 85 89 94 94 96 98 97 96 94 90 87 86 84 80 74 66 63 60 54 45 40 33 31 27 27 28 24 24 25 29 36
83 82 81 84 78 76 73 73 72 73 73 67 69 73 71 76 74 77 84 87 89 92 91 89 88 84 85 81 77 72 64 64 59 54 44 41 34 28 28 26 27 27 27 27 29 33 38
84 83 84 81 84 81 78 79 76 75 71 70 70 66 67 71 74 76 77 80 84 85 85 84 83 81 78 75 69 63 64 57 51 48 40 34 30 27 27 26 26 28 28 30 30 31 37
78 83 82 83 85 84 81 77 69 70 69 72 68 72 74 74 74 78 77 80 83 84 83 84 85 82 75 67 62 62 54 48 50 49 39 30 27 27 26 29 25 27 28 28 28 30 33
76 81 83 85 89 87 86 80 81 79 81 77 77 75 75 75 78 80 78 84 86 85 84 80 78 73 67 63 64 54 50 48 46 44 35 26 28 27 27 27 23 26 28 27 29 29 31
73 75 80 86 87 87 85 85 83 84 86 82 79 79 78 80 79 83 82 82 78 77 76 70 64 62 61 61 52 51 52 48 44 38 34 28 26 27 26 23 21 27 31 30 35 36 36
68 70 73 75 77 79 84 85 83 83 85 84 84 80 84 88 87 82 81 78 75 68 64 63 61 60 57 53 52 53 51 46 41 34 30 28 26 27 23 21 27 29 32 37 43 43 43

GFSGBSN_250_spd_129.txt.gz
Wind_Speed
74 72 70 70 74 69 67 65 62 66 60 59 59 63 62 57 51 50 50 54 59 58 59 59 60 61 61 64 67 64 62 63 65 66 67 67 69 70 74 73 71 68 70 69 65 65 68
75 71 72 68 74 71 68 65 66 65 61 58 63 66 62 57 52 50 55 52 54 61 62 61 60 61 60 59 61 63 67 70 71 71 69 69 72 74 73 74 73 67 62 62 68 73 78
75 73 72 78 70 74 68 69 65 60 65 61 62 65 65 61 56 57 57 57 59 64 69 66 65 63 62 65 67 64 69 73 75 75 73 70 70 70 74 69 61 63 65 72 76 83 88
67 70 69 71 69 69 68 68 66 65 62 63 63 68 66 63 65 65 62 60 65 64 67 68 69 68 68 67 69 67 70 74 75 73 70 67 65 60 58 63 68 73 74 77 85 93 99
86 82 81 78 73 70 72 71 75 68 68 67 62 71 70 68 71 75 70 67 66 67 68 70 69 67 66 70 70 75 74 73 71 69 68 54 55 64 69 77 81 82 83 85 82 81 87
87 90 90 88 83 78 76 70 69 73 71 72 73 70 70 74 81 77 75 75 73 69 70 71 71 73 73 73 73 75 73 75 69 57 57 64 70 72 73 74 77 80 84 79 79 78 86
98 97 96 93 94 91 92 94 87 83 83 84 77 76 84 80 75 73 77 75 73 76 75 70 69 70 72 73 73 74 70 62 59 66 68 71 75 78 79 78 78 79 77 79 79 85 88
118 110 107 103 96 99 95 95 95 92 91 86 89 87 84 76 76 78 79 79 79 75 75 73 71 72 73 70 71 72 68 67 68 71 76 79 81 79 76 77 79 81 82 84 78 88 95
128 118 112 111 105 101 100 99 98 95 92 88 88 89 84 82 79 82 82 80 81 78 75 75 73 73 73 73 69 70 70 71 75 78 80 78 77 79 78 83 84 89 91 86 89 87 94
127 123 116 116 112 108 107 103 106 101 97 96 93 90 90 87 85 88 89 88 84 84 81 76 76 77 73 71 68 70 71 72 74 72 73 76 80 81 87 89 86 89 93 94 96 100 95
127 125 123 120 121 113 113 113 107 112 107 102 100 98 94 93 93 96 92 91 87 84 83 79 76 76 69 68 68 68 71 73 73 75 79 84 85 87 93 96 93 95 98 100 102 100 95
122 127 125 125 121 121 118 116 107 109 106 107 103 100 100 99 100 98 96 90 89 85 77 75 71 73 72 71 68 69 72 75 76 79 84 88 87 91 94 97 98 101 100 103 102 95 81
119 124 124 123 119 118 116 117 117 116 114 114 107 110 110 108 102 98 96 89 87 79 79 73 75 74 71 72 72 75 77 78 79 84 89 87 89 94 99 98 104 111 112 107 95 82 77
102 108 111 113 115 114 109 110 109 113 111 112 106 116 110 105 104 98 96 92 81 77 73 73 77 78 73 71 73 77 79 80 81 82 84 87 91 96 102 104 102 108 107 102 84 71 60
81 83 83 86 93 101 109 110 114 112 105 95 98 102 106 102 100 99 98 88 79 77 71 74 75 74 75 71 74 78 79 79 81 84 88 91 93 99 106 103 107 107 109 99 79 69 57
60 62 68 72 79 87 94 97 97 100 92 90 95 100 98 98 96 94 88 83 77 79 72 79 77 67 69 75 77 79 82 84 86 88 91 96 96 99 106 110 113 116 100 86 75 54 47
52 54 58 68 74 74 79 82 87 91 92 86 99 96 93 90 86 83 83 83 80 77 76 75 71 68 68 72 76 80 82 85 86 89 90 92 98 103 109 113 117 115 96 78 62 49 35
48 58 61 63 58 62 63 72 82 87 96 98 92 101 88 88 86 85 86 82 81 78 79 80 75 76 75 74 74 74 78 80 84 89 93 99 102 104 113 115 115 103 84 70 52 43 31
55 58 67 67 68 70 70 74 72 73 82 86 89 86 81 80 79 82 85 85 82 80 80 84 83 79 81 82 81 85 87 89 90 93 95 100 105 108 116 113 105 91 69 57 44 34 28
55 57 62 68 65 61 64 72 72 75 76 79 82 76 74 72 67 70 77 80 83 83 78 81 82 83 84 89 89 90 94 96 96 98 100 104 110 111 107 92 86 78 61 48 41 32 23
59 63 67 68 64 64 64 70 70 73 77 79 81 76 76 70 68 66 66 72 76 80 81 82 81 82 84 87 88 91 95 98 100 101 102 105 107 111 94 80 74 61 54 43 40 24 20
58 64 72 69 69 72 73 69 68 67 70 73 75 77 75 76 78 73 70 68 71 74 82 82 84 84 85 88 93 96 99 100 100 100 102 106 103 84 80 65 61 53 48 42 37 21 18
60 64 67 73 70 77 76 73 71 70 69 75 73 72 72 73 71 70 70 69 68 74 78 82 82 83 84 89 94 96 98 95 94 97 98 85 74 70 69 57 54 49 46 41 31 22 20
61 62 69 73 78 79 73 74 63 66 64 66 69 69 71 71 72 68 68 72 75 75 76 78 81 83 82 88 90 91 93 88 82 88 74 70 69 66 62 52 50 48 45 38 25 22 20
65 63 69 71 74 73 71 68 64 61 58 49 46 56 65 65 65 65 68 65 68 77 68 62 67 78 83 76 72 65 67 64 71 68 64 68 66 59 55 51 51 47 39 34 25 23 22
66 68 68 71 73 74 73 69 65 62 56 49 40 45 48 47 46 52 53 56 55 54 56 57 60 59 59 62 60 60 60 59 59 62 67 66 61 55 50 52 49 44 33 32 26 24 25
63 63 69 68 64 64 66 64 66 61 59 55 47 43 40 42 45 50 49 49 51 50 47 52 55 58 57 54 51 53 57 61 62 64 65 60 57 53 50 49 48 41 29 34 30 26 26
66 64 61 65 67 65 61 60 61 57 59 58 49 45 44 42 45 46 46 46 47 49 50 54 57 56 53 51 54 60 63 63 67 67 65 60 55 51 49 45 45 38 29 36 32 30 28
64 68 64 64 64 64 62 57 57 53 48 50 49 50 51 50 50 51 52 53 52 55 52 54 52 53 54 57 61 63 63 66 66 62 59 57 57 56 49 43 43 38 31 36 35 33 32

GFSGBSN_250_spd_132.txt.gz
Wind_Speed
80 83 83 77 81 75 70 74 71 65 65 67 71 70 64 65 62 58 56 55 54 51 47 43 44 45 48 56 59 59 61 63 64 62 61 61 63 63 65 65 65 67 69 72 73 73 73
88 87 84 85 77 69 70 66 67 63 65 65 68 69 67 65 66 62 62 59 58 52 49 46 48 44 46 53 60 65 64 64 64 64 62 65 65 66 68 70 71 72 76 77 76 72 66
83 83 79 75 70 66 69 71 70 63 67 68 69 69 70 67 62 62 60 57 60 57 55 46 50 53 51 54 64 61 67 64 67 67 67 67 67 69 69 73 75 73 72 70 67 63 64
79 76 72 66 69 72 74 74 67 64 62 65 66 64 68 64 64 64 61 60 65 62 62 60 60 59 55 61 63 67 63 65 66 69 71 73 74 74 75 74 72 71 67 61 66 70 72
87 90 82 89 86 84 81 75 71 68 67 63 63 63 65 67 66 69 64 61 61 66 66 67 67 68 66 64 60 65 64 66 67 70 73 74 77 76 77 75 71 61 58 67 71 77 81
106 95 92 89 87 82 82 82 78 75 71 71 63 66 69 72 65 69 69 69 67 68 71 71 71 68 66 63 65 65 65 67 68 70 74 76 75 76 79 67 61 63 70 76 81 83 84
121 114 110 109 105 96 92 82 84 82 82 78 73 78 69 71 70 68 70 66 69 70 73 73 73 65 64 65 65 67 68 69 69 67 71 70 73 72 68 68 70 76 79 79 87 88 87
126 122 113 119 117 113 108 103 94 90 86 86 87 89 86 89 83 81 83 81 84 76 79 79 71 65 68 66 68 69 69 71 70 71 71 72 70 70 70 70 74 80 82 80 72 79 82
132 123 118 116 117 114 108 105 103 102 101 100 96 97 95 90 88 84 87 84 82 81 77 79 74 74 72 72 73 74 72 70 70 72 71 70 70 73 75 77 75 77 78 76 76 76 86
125 120 118 120 113 112 111 110 109 107 106 105 108 105 98 96 91 90 88 87 84 83 81 77 78 79 80 79 78 78 76 70 69 68 68 70 72 74 76 79 80 79 79 82 84 85 84
126 124 122 121 118 115 114 113 108 106 103 102 102 104 103 96 94 92 93 91 89 83 86 84 82 82 84 84 82 82 79 76 69 66 67 71 74 76 77 78 80 82 84 85 88 95 94
124 123 124 122 120 116 118 118 115 108 104 102 103 102 101 97 99 97 95 95 96 94 89 87 84 85 87 88 84 84 80 79 74 70 70 70 73 74 75 80 83 86 87 90 96 97 94
120 124 126 123 122 121 120 122 119 113 108 107 106 106 103 102 103 106 100 102 102 96 89 88 87 87 89 85 84 81 79 72 72 73 74 76 75 76 77 82 86 88 93 95 97 97 88
107 117 116 116 118 118 118 118 122 117 115 109 112 113 104 106 108 109 108 105 105 97 97 94 93 90 89 84 81 78 75 70 68 70 71 74 77 77 84 85 86 91 96 97 97 90 73
90 94 89 96 101 103 105 103 106 112 113 106 110 113 110 108 111 109 106 110 105 105 103 97 93 93 86 82 79 76 72 70 65 69 71 73 76 77 80 87 87 92 93 101 102 96 82
80 68 74 77 79 83 85 86 96 102 109 105 113 100 111 94 110 106 108 104 95 95 93 91 89 84 81 80 80 81 75 78 75 72 69 69 74 78 80 82 87 94 102 108 113 94 72
60 54 56 62 66 71 73 73 78 94 107 107 108 111 110 105 111 109 105 98 93 99 95 92 85 82 81 75 78 79 73 73 70 68 69 72 74 76 86 91 96 102 109 113 112 95 67
45 46 51 49 57 61 64 65 68 75 93 105 112 111 107 107 109 109 109 98 105 103 94 87 86 81 77 73 74 75 75 77 81 79 73 81 85 89 92 94 99 107 112 116 103 86 71
45 43 47 52 51 56 59 61 62 67 78 92 102 101 105 95 105 102 101 98 95 91 90 86 81 80 75 72 75 74 76 76 77 75 78 81 85 86 91 97 99 105 107 110 95 76 61
43 42 47 46 47 47 50 54 54 60 62 75 86 95 89 100 100 90 89 88 86 90 83 81 79 76 75 76 77 77 78 79 77 74 77 81 86 87 91 99 99 104 112 104 89 66 50
43 47 53 50 49 49 53 56 57 56 63 68 70 79 88 99 91 84 88 86 84 84 83 77 72 70 66 67 76 80 80 78 77 79 81 84 88 88 95 95 98 105 108 101 79 56 39
44 50 57 58 60 57 54 58 56 55 67 70 69 67 73 80 85 87 95 90 90 88 82 58 54 55 59 60 66 69 72 74 78 78 79 84 86 85 89 92 93 96 89 84 65 48 34
44 49 62 63 64 66 64 65 61 55 55 54 54 58 67 71 75 79 94 98 97 92 71 55 54 67 63 62 62 63 65 70 74 77 76 81 83 84 87 86 79 76 73 63 54 41 32
46 52 62 72 65 65 67 64 59 58 58 57 58 63 65 67 67 67 75 74 72 65 60 58 58 60 63 63 65 63 64 64 65 68 70 71 76 79 71 70 70 67 61 53 48 38 33
50 56 62 70 71 69 67 63 61 58 61 65 66 66 62 62 64 63 61 61 60 61 59 59 61 61 59 62 66 67 57 55 55 61 63 67 66 63 62 63 66 61 53 48 45 39 32
51 56 59 67 64 68 70 67 64 58 60 62 58 63 58 56 55 54 57 62 62 62 58 56 58 55 58 61 63 55 58 52 52 58 59 56 57 57 59 61 61 57 47 46 44 40 31
53 56 58 64 67 68 69 62 62 62 64 61 61 52 53 54 51 51 51 53 57 52 44 48 53 55 51 48 47 46 48 53 59 60 59 57 56 58 60 61 60 55 46 43 44 42 31
53 56 58 58 65 69 72 64 66 63 66 63 57 56 53 47 46 38 39 39 38 36 39 39 39 45 46 43 45 47 50 56 56 55 55 56 58 61 60 58 57 55 47 43 42 43 32
55 54 59 60 57 58 66 68 68 65 65 66 62 60 50 47 45 38 34 34 33 33 35 37 38 39 40 43 47 51 55 54 53 54 56 59 58 60 55 55 52 50 49 47 41 42 34

GFSGBSN_250_spd_135.txt.gz
Wind_Speed
77 75 77 76 74 71 72 71 72 74 73 74 72 73 70 69 67 63 62 63 62 62 58 53 49 50 47 47 43 37 38 39 43 50 54 55 62 63 63 65 64 63 63 62 61 64 64
83 81 82 84 82 82 83 74 75 82 79 77 76 74 71 67 63 61 66 66 61 61 59 56 55 55 50 49 48 42 40 42 44 47 53 64 62 63 64 64 64 68 68 64 66 68 66
78 78 81 84 79 82 78 75 74 74 70 72 72 68 68 62 65 67 65 63 62 60 56 57 52 51 51 52 51 46 41 45 53 54 62 61 64 61 63 64 66 67 69 70 72 73 73
86 82 78 75 81 75 77 68 69 63 64 62 62 63 66 66 65 69 68 64 63 62 59 58 57 52 55 53 56 60 57 53 55 59 58 59 62 63 64 65 65 67 70 72 75 77 78
101 97 95 91 91 90 86 75 72 65 66 71 70 72 69 72 66 67 57 62 56 60 60 59 58 54 55 60 57 64 65 63 59 64 63 59 60 62 64 63 66 67 70 75 78 77 74
106 105 102 99 96 95 96 96 100 86 80 78 78 70 71 74 76 67 60 64 59 58 61 61 61 57 59 63 62 64 64 65 63 65 57 55 56 60 59 64 65 67 69 71 72 70 66
111 110 107 109 104 102 106 107 114 107 104 97 92 87 81 79 70 70 69 66 64 63 68 67 64 66 67 68 66 67 71 71 66 63 63 62 59 59 61 63 65 68 68 66 67 70 69
123 120 121 116 113 116 122 124 122 121 109 107 100 94 95 85 83 80 79 74 76 71 71 66 69 69 69 65 72 74 71 74 72 66 67 65 65 63 63 65 68 67 64 65 67 74 77
140 137 135 132 131 132 130 126 125 115 106 106 102 96 96 93 92 90 92 85 82 85 77 80 79 77 76 77 77 75 72 71 73 73 70 69 69 66 64 65 66 65 66 70 74 78 82
143 141 142 142 139 136 130 128 120 110 104 105 103 100 97 100 97 91 94 95 91 87 85 84 86 82 82 79 78 78 77 75 77 77 76 74 73 71 68 67 67 68 69 73 76 80 79
147 147 143 138 141 135 133 128 116 109 106 104 100 96 96 96 97 90 93 97 97 96 94 88 82 85 82 81 79 78 78 81 80 79 80 83 79 77 74 68 67 67 67 70 73 76 77
134 135 137 136 130 133 130 126 115 110 107 105 104 97 96 103 95 94 98 99 97 99 92 87 82 84 82 81 79 78 79 82 83 81 84 84 85 80 76 71 70 69 70 72 75 77 80
115 115 112 112 115 124 126 122 118 114 108 111 104 104 98 105 102 93 104 97 103 98 93 91 87 85 85 83 81 81 83 84 84 83 87 89 88 82 78 75 73 71 70 74 75 75 80
98 97 97 98 99 108 112 117 119 119 116 112 108 111 104 106 108 101 104 97 101 97 98 91 92 89 90 89 87 88 88 87 88 90 86 82 82 79 77 76 76 75 76 77 79 85 87
89 87 85 84 89 95 95 98 110 114 115 116 116 111 108 108 113 106 113 109 103 103 102 97 96 95 91 91 93 92 90 90 85 80 79 78 78 77 77 78 79 76 80 81 85 91 91
81 79 76 77 84 82 79 83 90 99 104 110 111 111 110 109 109 113 115 108 105 104 103 100 98 92 90 91 92 91 91 85 82 81 76 76 75 78 78 75 73 76 78 86 87 92 93
73 70 69 77 71 65 70 75 80 79 83 101 111 116 115 116 115 112 115 111 109 105 105 100 96 96 94 95 96 93 88 83 81 78 74 73 72 71 73 73 74 77 82 83 90 93 94
65 60 69 67 53 61 63 65 67 64 73 86 95 107 102 106 113 112 104 108 115 105 106 102 100 100 98 100 95 86 86 83 80 75 74 74 69 70 72 75 77 77 82 84 88 92 92
58 64 61 49 53 55 60 62 61 64 73 79 83 79 83 91 112 110 109 103 108 103 104 98 98 96 95 89 91 87 86 84 79 78 73 68 69 70 71 74 78 78 82 86 90 90 92
56 52 46 49 51 55 58 57 58 64 71 71 67 69 72 83 85 103 108 113 110 98 95 90 90 89 88 80 86 87 87 85 80 74 75 70 71 73 75 75 76 78 83 86 88 88 88
48 45 46 49 49 49 49 49 50 54 57 58 59 58 61 65 80 94 98 105 106 105 92 93 91 91 92 92 87 83 84 79 75 69 74 70 61 64 67 70 71 72 79 82 85 86 79
45 45 46 48 46 43 43 41 41 46 47 50 52 55 57 64 79 85 91 95 98 95 94 89 92 91 94 93 85 84 76 70 62 57 55 56 58 61 64 65 67 67 71 76 78 79 73
45 45 48 48 47 47 42 39 40 39 43 46 48 47 59 65 75 83 83 91 95 95 93 91 93 93 90 77 74 70 68 66 65 64 57 58 59 60 58 55 59 63 68 71 70 70 64
45 47 48 48 53 49 48 47 44 41 39 43 38 48 60 64 69 79 83 82 85 89 89 90 85 83 82 74 68 68 69 66 65 72 68 61 59 58 53 54 60 64 66 65 65 66 55
46 46 47 49 54 49 54 50 46 45 42 44 45 45 51 52 56 62 68 74 78 74 77 80 81 82 76 73 73 73 72 68 62 65 61 58 56 51 55 58 62 67 65 64 65 60 48
46 47 47 49 53 55 57 57 54 50 47 42 54 52 50 51 54 56 58 69 76 82 80 81 80 79 77 75 77 70 58 53 59 61 56 58 56 57 55 62 65 64 63 66 61 53 43
48 48 50 59 58 56 57 65 57 53 50 49 51 52 57 55 53 48 48 52 57 57 56 59 58 56 58 56 54 53 55 55 54 54 57 54 51 52 59 63 64 62 61 61 57 47 42
48 52 54 60 59 58 59 58 59 57 58 53 50 48 57 52 46 44 43 46 50 53 50 48 49 51 53 54 52 53 47 46 50 54 53 48 49 57 61 62 61 62 60 57 50 44 39
48 50 53 58 60 64 61 60 56 56 57 52 48 45 47 49 47 48 47 49 46 41 44 49 50 52 50 45 41 41 46 49 51 49 48 51 55 58 60 59 61 61 63 55 49 42 37

GFSGBSN_250_spd_141.txt.gz
Wind_Speed
66 66 65 66 67 72 68 67 66 65 65 64 60 59 64 72 69 66 69 71 68 69 68 67 67 63 62 63 57 59 60 56 46 44 45 43 45 38 42 42 44 44 41 43 42 44 46
71 72 71 71 76 73 76 78 70 65 66 68 66 61 61 69 70 69 71 71 72 72 70 68 67 70 68 66 63 57 59 55 49 47 46 47 49 43 40 42 43 44 43 46 46 51 55
81 77 76 79 84 85 83 79 76 76 74 72 77 70 64 65 63 65 67 68 70 72 67 71 69 71 68 60 57 55 60 59 50 49 48 47 45 46 42 42 43 43 47 50 52 56 56
89 92 92 80 82 84 84 81 82 85 83 86 82 80 76 70 74 67 58 61 60 60 64 67 65 61 62 58 55 55 56 57 56 54 48 48 46 46 47 48 50 51 55 59 60 65 62
97 94 90 92 87 86 86 87 85 84 85 89 85 82 82 82 80 76 69 69 62 58 62 61 59 53 52 56 54 51 55 50 53 52 47 47 45 46 48 49 49 50 57 57 61 58 62
103 101 102 96 94 95 94 95 92 95 85 84 87 86 87 89 89 84 80 73 73 70 61 67 57 58 52 48 48 53 51 47 50 55 52 52 48 49 54 59 61 60 58 60 63 61 63
106 104 106 107 100 100 98 101 99 99 98 93 93 93 92 89 88 87 87 81 80 75 71 65 66 63 67 57 54 55 52 52 47 53 53 58 56 56 61 63 64 67 68 68 64 66 70
105 106 108 109 110 107 103 106 106 99 102 104 105 96 100 98 97 93 93 87 88 79 70 76 77 80 76 73 62 66 59 60 63 60 59 58 60 65 67 67 67 69 72 74 76 75 74
106 112 114 108 112 113 113 111 106 110 108 109 110 103 104 105 103 99 98 95 91 91 88 81 84 83 87 82 83 68 69 67 70 73 70 66 62 69 69 72 76 74 80 81 80 80 83
114 119 120 120 117 120 118 119 117 113 118 111 116 115 112 107 109 105 100 98 97 97 102 96 92 93 88 86 81 69 76 71 71 75 79 75 70 71 75 75 76 79 78 80 82 82 85
129 127 130 132 131 124 127 128 126 125 122 121 120 121 115 118 111 110 104 101 98 97 101 96 90 84 88 90 81 74 74 80 75 76 80 77 74 77 77 81 81 80 80 80 83 87 82
133 139 137 142 141 137 135 137 138 134 126 123 122 124 124 123 117 109 106 104 102 105 101 93 84 81 86 94 85 76 74 75 78 78 80 81 76 76 78 78 81 84 83 83 83 82 82
139 139 141 140 144 146 144 140 139 136 127 126 123 120 122 117 114 113 107 106 109 111 100 101 83 83 92 88 87 81 80 77 77 76 79 77 77 76 77 80 80 82 84 85 84 82 82
133 134 133 134 133 131 132 136 133 130 130 130 128 127 124 120 117 112 109 111 117 111 105 96 86 90 97 85 89 84 84 86 85 78 81 78 78 78 80 81 80 83 86 86 84 84 83
117 120 121 121 122 122 125 124 126 126 128 131 133 132 129 126 124 120 120 125 118 113 106 98 96 94 92 91 86 89 85 88 88 80 81 81 86 80 81 81 81 79 83 84 83 80 78
105 107 108 111 112 111 112 111 113 120 120 129 132 136 132 128 127 129 132 132 125 118 116 109 106 97 93 91 91 91 91 86 86 85 88 87 85 82 81 81 80 83 84 85 84 84 76
92 95 97 99 100 102 104 105 107 108 111 117 127 128 126 128 133 136 137 133 125 122 120 115 112 102 97 93 94 94 90 87 80 83 90 88 86 83 83 84 83 86 87 89 87 86 77
82 80 80 81 83 88 93 95 100 103 105 109 109 107 103 112 124 127 129 127 122 120 122 122 113 105 99 95 100 96 89 88 86 88 87 90 91 88 87 80 87 88 93 95 93 90 81
73 71 72 73 74 77 79 83 86 91 97 100 100 96 95 96 103 97 96 103 108 114 118 118 113 107 102 97 100 96 90 94 90 88 90 90 87 86 82 84 89 92 95 95 93 84 79
62 61 62 63 64 66 69 72 75 81 87 90 90 83 79 78 80 79 81 82 84 91 98 106 106 108 104 98 96 95 101 98 98 95 88 89 89 91 91 90 93 94 95 97 87 79 81
50 50 53 57 57 57 60 65 69 74 78 81 77 56 59 60 64 64 67 68 72 75 80 89 97 99 101 100 99 99 102 99 96 92 89 95 98 96 97 89 89 96 88 83 78 79 79
46 49 48 49 48 51 52 56 60 61 63 60 45 40 50 55 66 69 69 67 66 68 73 78 84 93 99 95 97 103 97 97 94 92 93 96 98 98 98 94 90 83 84 82 84 86 72
41 40 40 42 43 46 49 51 54 55 52 39 39 53 57 60 62 62 54 57 58 69 70 75 82 90 95 95 98 98 92 94 96 93 97 96 94 95 93 92 88 85 80 87 86 76 64
36 35 38 39 41 42 44 46 46 40 36 44 48 52 50 48 48 45 52 53 54 56 64 71 77 80 85 94 97 94 85 87 94 95 95 95 91 93 91 80 82 79 85 88 81 65 66
32 33 35 37 38 41 43 44 43 42 43 44 46 44 46 44 51 57 49 47 55 59 58 61 66 70 81 90 95 93 90 87 82 85 84 85 84 79 89 86 80 82 90 84 68 69 73
33 34 35 36 37 39 40 39 39 39 37 38 38 40 37 42 42 49 48 49 46 39 40 44 45 56 66 75 80 84 84 82 85 86 71 71 80 79 75 79 85 84 80 72 73 75 76
34 34 34 34 36 38 42 39 40 37 36 36 38 39 40 40 41 39 37 36 38 37 39 40 35 43 48 56 61 66 67 65 73 76 77 72 76 77 76 80 81 82 79 75 73 71 70
35 35 35 37 40 41 42 39 38 36 37 35 35 37 37 38 40 42 39 40 40 40 44 46 48 52 55 60 65 67 67 71 68 67 77 78 73 76 78 79 80 79 71 69 69 73 78
38 37 38 36 38 38 34 34 40 36 37 34 37 37 40 43 46 46 47 48 52 58 57 52 57 60 65 62 62 61 64 75 76 76 74 74 77 78 79 73 71 69 70 71 75 77 76

GFSGBSN_250_spd_144.txt.gz
Wind_Speed
73 70 66 70 70 68 62 58 56 59 64 65 64 61 59 62 60 55 56 62 55 56 62 65 66 67 64 65 65 65 63 61 60 58 60 59 56 46 45 46 47 50 48 47 45 47 49
72 70 68 71 72 68 68 66 62 61 65 72 75 70 66 60 61 58 59 55 54 57 63 65 68 68 68 66 69 69 68 66 63 63 62 58 61 48 47 49 46 49 50 47 52 53 53
75 75 74 71 72 74 69 69 71 71 72 75 74 75 74 68 65 66 64 64 61 60 58 62 58 55 56 67 69 70 65 64 62 64 64 57 58 51 48 48 48 47 47 48 50 48 49
83 81 82 78 74 75 75 76 79 81 82 80 83 79 77 78 74 70 67 72 72 66 64 61 62 62 54 49 56 59 59 56 59 59 54 56 56 50 43 46 48 46 51 50 48 47 49
91 87 82 82 82 81 84 84 87 85 85 87 85 86 83 84 80 74 70 71 72 71 67 67 64 61 61 57 51 56 54 50 50 51 53 54 47 44 42 43 49 50 51 50 46 45 45
98 92 85 86 89 89 90 91 90 89 90 90 91 93 90 86 86 82 81 77 73 73 66 68 74 70 63 60 58 55 59 53 48 44 43 44 46 43 43 44 49 49 53 57 59 59 58
101 101 95 96 96 98 90 92 98 95 95 96 96 97 94 96 93 92 90 89 85 76 75 73 69 70 65 67 66 62 64 61 58 55 49 48 47 43 51 43 50 55 57 60 64 64 66
103 104 106 105 100 109 101 97 97 95 99 98 98 98 96 99 93 94 90 87 90 85 79 79 78 70 74 68 68 69 66 66 64 64 61 58 54 53 57 60 59 57 62 64 67 69 68
109 110 110 111 112 111 118 109 107 99 98 98 100 98 99 98 100 97 96 90 90 92 91 83 84 78 78 76 72 75 75 75 73 73 71 68 64 62 63 62 67 69 68 68 71 71 74
111 113 112 114 116 121 124 120 107 111 100 103 104 102 101 105 104 101 99 94 96 99 101 86 89 87 83 81 73 76 76 83 83 83 78 71 74 65 69 67 68 72 74 76 74 76 76
116 115 119 124 108 115 116 116 117 111 113 103 103 108 108 112 104 101 100 103 104 102 109 93 92 91 91 86 83 81 81 79 85 88 85 78 73 69 68 71 71 79 78 80 80 77 75
119 116 120 120 124 121 123 115 121 122 116 119 115 114 110 117 119 111 108 112 113 117 118 102 96 95 91 90 86 90 84 82 81 86 85 83 76 65 65 63 69 72 74 79 78 79 78
132 130 129 130 132 129 130 130 130 131 130 130 128 124 122 122 121 122 121 121 124 125 115 106 100 96 96 88 84 84 83 82 79 83 82 82 77 71 66 68 70 73 74 71 73 76 81
137 132 137 139 135 138 137 138 141 140 144 146 138 133 131 128 128 128 130 127 133 123 118 118 104 98 99 90 84 83 83 79 80 84 83 80 73 70 71 75 76 76 75 76 77 83 87
133 132 129 128 130 131 134 133 133 134 135 138 138 142 138 138 136 134 135 140 136 129 126 119 111 104 91 91 89 86 86 82 88 86 84 77 76 74 76 82 76 75 77 77 77 80 79
120 122 122 123 124 125 126 128 132 134 135 138 139 139 140 133 136 140 147 143 143 130 129 123 117 108 98 91 97 90 87 85 90 87 85 82 83 76 78 77 81 83 79 77 80 79 80
108 108 108 110 110 111 114 115 117 117 124 127 132 138 136 135 140 143 145 136 131 127 131 126 116 112 106 98 98 95 90 89 91 90 87 81 87 83 78 80 85 80 78 84 83 80 80
98 97 97 99 100 101 104 104 107 109 113 117 119 121 116 123 128 131 131 125 127 129 125 124 122 118 110 105 106 104 95 95 92 98 87 86 90 87 79 77 85 85 86 85 82 75 77
85 86 86 87 89 90 93 95 97 99 104 106 109 109 107 107 112 111 110 115 116 120 123 122 120 115 111 112 115 108 102 103 100 97 97 91 90 88 83 79 76 79 75 86 85 87 86
76 75 74 75 75 77 79 81 82 85 90 93 96 97 97 97 95 95 96 94 96 99 105 114 118 117 118 117 117 112 109 106 105 104 103 101 94 88 86 87 86 82 89 89 92 87 84
66 67 64 65 64 65 66 68 70 72 77 79 79 77 78 74 75 75 78 79 81 83 87 95 102 106 113 118 120 115 109 110 107 98 100 101 94 90 92 94 90 85 82 87 83 80 93
56 56 55 54 53 55 59 60 62 64 69 69 65 59 55 52 60 66 68 67 70 74 76 74 77 80 93 100 105 108 109 112 106 99 102 101 94 94 92 93 89 85 83 86 91 94 91
49 51 51 50 47 46 49 52 54 54 55 43 41 38 40 42 49 54 48 55 59 69 67 67 69 76 80 77 86 93 99 103 100 98 100 96 92 92 89 89 88 83 89 93 91 94 92
44 42 42 43 45 46 45 45 46 45 38 36 43 49 48 41 40 43 56 62 66 63 61 64 68 71 69 77 78 83 84 89 95 94 93 90 92 90 88 80 76 84 86 90 93 97 97
36 37 37 38 39 39 38 37 38 38 39 48 49 49 53 53 56 61 57 53 57 55 54 58 61 63 70 67 69 69 74 78 81 82 89 88 91 82 79 77 80 79 77 82 88 93 91
33 32 33 34 34 32 32 31 31 32 34 34 37 45 50 54 48 58 54 53 48 43 48 51 56 55 52 55 55 59 65 67 73 78 87 84 79 80 73 80 79 81 78 85 89 92 78
30 30 31 30 28 29 27 28 27 27 28 31 33 41 41 47 47 43 35 38 43 40 42 40 39 45 45 48 51 49 53 57 63 70 70 73 81 79 80 83 84 79 82 81 80 81 84
29 29 27 27 26 25 25 27 29 29 29 28 29 34 36 38 35 35 33 34 33 33 34 39 35 26 33 35 37 37 41 45 50 58 66 73 78 76 75 78 77 72 77 82 87 82 83
29 28 27 24 26 27 24 28 30 30 33 35 37 36 35 34 35 33 31 31 32 35 38 38 35 35 31 30 30 30 34 37 45 55 63 70 71 77 80 76 75 80 83 85 82 81 84